Wetterdaten: Montag, 07.05.2018
Datum Zeit Temp. A. Feuchte A. Luftdruck Regen Wind Richtung Richtung Sonnenschein ET UV Solar Taupunkt Windchill Windböen
07.05.2018 00:00 7,8 °C 80 % 1017,1 hPa 0,0 mm 0,0 km/h (0 Bft) S-SO 162 ° 0 min 0,000 mm 0,0 UV-I 0 W/m² 4,6 °C 7,8 °C 0,0 km/h (0 Bft)
07.05.2018 00:01 7,8 °C 80 % 1017,0 hPa 0,0 mm 0,0 km/h (0 Bft) S-SO 162 ° 0 min 0,000 mm 0,0 UV-I 0 W/m² 4,6 °C 7,8 °C 0,0 km/h (0 Bft)
07.05.2018 00:02 7,8 °C 80 % 1017,0 hPa 0,0 mm 0,0 km/h (0 Bft) S-SO 162 ° 0 min 0,000 mm 0,0 UV-I 0 W/m² 4,6 °C 7,8 °C 0,0 km/h (0 Bft)
07.05.2018 00:03 7,7 °C 80 % 1017,1 hPa 0,0 mm 0,1 km/h (0 Bft) S-SO 162 ° 0 min 0,000 mm 0,0 UV-I 0 W/m² 4,5 °C 7,7 °C 1,6 km/h (1 Bft)
07.05.2018 00:04 7,6 °C 80 % 1017,1 hPa 0,0 mm 0,0 km/h (0 Bft) S-SO 162 ° 0 min 0,000 mm 0,0 UV-I 0 W/m² 4,4 °C 7,6 °C 0,0 km/h (0 Bft)
07.05.2018 00:05 7,5 °C 82 % 1017,1 hPa 0,0 mm 0,0 km/h (0 Bft) S-SO 162 ° 0 min 0,000 mm 0,0 UV-I 0 W/m² 4,6 °C 7,5 °C 0,0 km/h (0 Bft)
07.05.2018 00:06 7,4 °C 82 % 1017,1 hPa 0,0 mm 0,0 km/h (0 Bft) S-SO 162 ° 0 min 0,000 mm 0,0 UV-I 0 W/m² 4,5 °C 7,4 °C 0,0 km/h (0 Bft)
07.05.2018 00:07 7,4 °C 82 % 1017,1 hPa 0,0 mm 0,0 km/h (0 Bft) S-SO 162 ° 0 min 0,000 mm 0,0 UV-I 0 W/m² 4,5 °C 7,4 °C 0,0 km/h (0 Bft)
07.05.2018 00:08 7,4 °C 82 % 1017,1 hPa 0,0 mm 0,0 km/h (0 Bft) S-SO 162 ° 0 min 0,000 mm 0,0 UV-I 0 W/m² 4,5 °C 7,4 °C 0,0 km/h (0 Bft)
07.05.2018 00:09 7,4 °C 82 % 1017,1 hPa 0,0 mm 0,0 km/h (0 Bft) S-SO 162 ° 0 min 0,000 mm 0,0 UV-I 0 W/m² 4,5 °C 7,4 °C 0,0 km/h (0 Bft)
07.05.2018 00:10 7,4 °C 82 % 1017,0 hPa 0,0 mm 0,3 km/h (0 Bft) S-SO 162 ° 0 min 0,000 mm 0,0 UV-I 0 W/m² 4,5 °C 7,4 °C 1,6 km/h (1 Bft)
07.05.2018 00:11 7,4 °C 82 % 1017,0 hPa 0,0 mm 0,0 km/h (0 Bft) S-SO 162 ° 0 min 0,000 mm 0,0 UV-I 0 W/m² 4,5 °C 7,4 °C 0,0 km/h (0 Bft)
07.05.2018 00:12 7,4 °C 82 % 1017,0 hPa 0,0 mm 0,0 km/h (0 Bft) S-SO 162 ° 0 min 0,000 mm 0,0 UV-I 0 W/m² 4,5 °C 7,4 °C 0,0 km/h (0 Bft)
07.05.2018 00:13 7,4 °C 82 % 1017,0 hPa 0,0 mm 0,0 km/h (0 Bft) S-SO 162 ° 0 min 0,000 mm 0,0 UV-I 0 W/m² 4,5 °C 7,4 °C 0,0 km/h (0 Bft)
07.05.2018 00:14 7,3 °C 82 % 1017,1 hPa 0,0 mm 0,0 km/h (0 Bft) S-SO 162 ° 0 min 0,000 mm 0,0 UV-I 0 W/m² 4,4 °C 7,3 °C 0,0 km/h (0 Bft)
07.05.2018 00:15 7,2 °C 82 % 1017,0 hPa 0,0 mm 0,0 km/h (0 Bft) S-SO 162 ° 0 min 0,000 mm 0,0 UV-I 0 W/m² 4,3 °C 7,2 °C 0,0 km/h (0 Bft)
07.05.2018 00:16 7,2 °C 83 % 1017,0 hPa 0,0 mm 0,0 km/h (0 Bft) S-SO 162 ° 0 min 0,000 mm 0,0 UV-I 0 W/m² 4,5 °C 7,2 °C 0,0 km/h (0 Bft)
07.05.2018 00:17 7,2 °C 84 % 1017,0 hPa 0,0 mm 0,0 km/h (0 Bft) S-SO 162 ° 0 min 0,000 mm 0,0 UV-I 0 W/m² 4,7 °C 7,2 °C 0,0 km/h (0 Bft)
07.05.2018 00:18 7,3 °C 84 % 1017,0 hPa 0,0 mm 0,0 km/h (0 Bft) S-SO 162 ° 0 min 0,000 mm 0,0 UV-I 0 W/m² 4,8 °C 7,3 °C 0,0 km/h (0 Bft)
07.05.2018 00:19 7,3 °C 83 % 1017,0 hPa 0,0 mm 0,0 km/h (0 Bft) S-SO 162 ° 0 min 0,000 mm 0,0 UV-I 0 W/m² 4,6 °C 7,3 °C 0,0 km/h (0 Bft)
07.05.2018 00:20 7,3 °C 83 % 1017,0 hPa 0,0 mm 0,0 km/h (0 Bft) S-SO 162 ° 0 min 0,000 mm 0,0 UV-I 0 W/m² 4,6 °C 7,3 °C 0,0 km/h (0 Bft)
07.05.2018 00:21 7,3 °C 83 % 1017,0 hPa 0,0 mm 0,0 km/h (0 Bft) S-SO 162 ° 0 min 0,000 mm 0,0 UV-I 0 W/m² 4,6 °C 7,3 °C 0,0 km/h (0 Bft)
07.05.2018 00:22 7,3 °C 83 % 1017,0 hPa 0,0 mm 0,0 km/h (0 Bft) S-SO 162 ° 0 min 0,000 mm 0,0 UV-I 0 W/m² 4,6 °C 7,3 °C 0,0 km/h (0 Bft)
07.05.2018 00:23 7,3 °C 83 % 1017,1 hPa 0,0 mm 0,0 km/h (0 Bft) S-SO 162 ° 0 min 0,000 mm 0,0 UV-I 0 W/m² 4,6 °C 7,3 °C 0,0 km/h (0 Bft)
07.05.2018 00:24 7,2 °C 83 % 1017,0 hPa 0,0 mm 0,0 km/h (0 Bft) S-SO 162 ° 0 min 0,000 mm 0,0 UV-I 0 W/m² 4,5 °C 7,2 °C 0,0 km/h (0 Bft)
07.05.2018 00:25 7,2 °C 83 % 1017,0 hPa 0,0 mm 0,0 km/h (0 Bft) S-SO 162 ° 0 min 0,000 mm 0,0 UV-I 0 W/m² 4,5 °C 7,2 °C 0,0 km/h (0 Bft)
07.05.2018 00:26 7,2 °C 83 % 1017,0 hPa 0,0 mm 0,0 km/h (0 Bft) S-SO 162 ° 0 min 0,000 mm 0,0 UV-I 0 W/m² 4,5 °C 7,2 °C 0,0 km/h (0 Bft)
07.05.2018 00:27 7,1 °C 84 % 1017,0 hPa 0,0 mm 0,0 km/h (0 Bft) S-SO 162 ° 0 min 0,000 mm 0,0 UV-I 0 W/m² 4,6 °C 7,1 °C 0,0 km/h (0 Bft)
07.05.2018 00:28 7,1 °C 84 % 1017,0 hPa 0,0 mm 0,0 km/h (0 Bft) S-SO 162 ° 0 min 0,000 mm 0,0 UV-I 0 W/m² 4,6 °C 7,1 °C 0,0 km/h (0 Bft)
07.05.2018 00:29 7,1 °C 84 % 1017,0 hPa 0,0 mm 0,0 km/h (0 Bft) S-SO 162 ° 0 min 0,000 mm 0,0 UV-I 0 W/m² 4,6 °C 7,1 °C 0,0 km/h (0 Bft)
07.05.2018 00:30 7,0 °C 84 % 1017,0 hPa 0,0 mm 0,0 km/h (0 Bft) S-SO 162 ° 0 min 0,000 mm 0,0 UV-I 0 W/m² 4,5 °C 7,0 °C 0,0 km/h (0 Bft)
07.05.2018 00:31 6,9 °C 83 % 1017,0 hPa 0,0 mm 0,0 km/h (0 Bft) S-SO 162 ° 0 min 0,000 mm 0,0 UV-I 0 W/m² 4,2 °C 6,9 °C 0,0 km/h (0 Bft)
07.05.2018 00:32 6,9 °C 84 % 1017,0 hPa 0,0 mm 0,0 km/h (0 Bft) S-SO 162 ° 0 min 0,000 mm 0,0 UV-I 0 W/m² 4,4 °C 6,9 °C 0,0 km/h (0 Bft)
07.05.2018 00:33 6,9 °C 85 % 1017,1 hPa 0,0 mm 0,0 km/h (0 Bft) S-SO 162 ° 0 min 0,000 mm 0,0 UV-I 0 W/m² 4,6 °C 6,9 °C 0,0 km/h (0 Bft)
07.05.2018 00:34 6,9 °C 84 % 1017,0 hPa 0,0 mm 0,0 km/h (0 Bft) S-SO 162 ° 0 min 0,000 mm 0,0 UV-I 0 W/m² 4,4 °C 6,9 °C 0,0 km/h (0 Bft)
07.05.2018 00:35 6,9 °C 84 % 1017,0 hPa 0,0 mm 0,0 km/h (0 Bft) S-SO 162 ° 0 min 0,000 mm 0,0 UV-I 0 W/m² 4,4 °C 6,9 °C 0,0 km/h (0 Bft)
07.05.2018 00:36 6,9 °C 84 % 1017,0 hPa 0,0 mm 0,0 km/h (0 Bft) S-SO 162 ° 0 min 0,000 mm 0,0 UV-I 0 W/m² 4,4 °C 6,9 °C 0,0 km/h (0 Bft)
07.05.2018 00:37 6,9 °C 84 % 1017,0 hPa 0,0 mm 0,0 km/h (0 Bft) S-SO 162 ° 0 min 0,000 mm 0,0 UV-I 0 W/m² 4,4 °C 6,9 °C 0,0 km/h (0 Bft)
07.05.2018 00:38 6,9 °C 84 % 1017,0 hPa 0,0 mm 0,0 km/h (0 Bft) S-SO 162 ° 0 min 0,000 mm 0,0 UV-I 0 W/m² 4,4 °C 6,9 °C 0,0 km/h (0 Bft)
07.05.2018 00:39 6,9 °C 84 % 1017,0 hPa 0,0 mm 0,0 km/h (0 Bft) S-SO 162 ° 0 min 0,000 mm 0,0 UV-I 0 W/m² 4,4 °C 6,9 °C 0,0 km/h (0 Bft)
07.05.2018 00:40 6,9 °C 84 % 1017,0 hPa 0,0 mm 1,2 km/h (1 Bft) S-SO 162 ° 0 min 0,000 mm 0,0 UV-I 0 W/m² 4,4 °C 6,9 °C 3,2 km/h (1 Bft)
07.05.2018 00:41 7,0 °C 85 % 1016,9 hPa 0,0 mm 2,3 km/h (1 Bft) S-SO 162 ° 0 min 0,000 mm 0,0 UV-I 0 W/m² 4,7 °C 7,0 °C 6,4 km/h (2 Bft)
07.05.2018 00:42 7,1 °C 85 % 1016,9 hPa 0,0 mm 1,8 km/h (1 Bft) S-SO 162 ° 0 min 0,000 mm 0,0 UV-I 0 W/m² 4,8 °C 7,1 °C 3,2 km/h (1 Bft)
07.05.2018 00:43 7,2 °C 85 % 1016,9 hPa 0,0 mm 0,9 km/h (0 Bft) S-SO 162 ° 0 min 0,000 mm 0,0 UV-I 0 W/m² 4,9 °C 7,2 °C 1,6 km/h (1 Bft)
07.05.2018 00:44 7,2 °C 84 % 1016,9 hPa 0,0 mm 0,0 km/h (0 Bft) S-SO 162 ° 0 min 0,000 mm 0,0 UV-I 0 W/m² 4,7 °C 7,2 °C 0,0 km/h (0 Bft)
07.05.2018 00:45 7,1 °C 84 % 1016,9 hPa 0,0 mm 0,0 km/h (0 Bft) S-SO 162 ° 0 min 0,000 mm 0,0 UV-I 0 W/m² 4,6 °C 7,1 °C 0,0 km/h (0 Bft)
07.05.2018 00:46 7,1 °C 84 % 1017,0 hPa 0,0 mm 0,0 km/h (0 Bft) S-SO 162 ° 0 min 0,000 mm 0,0 UV-I 0 W/m² 4,6 °C 7,1 °C 0,0 km/h (0 Bft)
07.05.2018 00:47 7,1 °C 84 % 1017,0 hPa 0,0 mm 0,0 km/h (0 Bft) S-SO 162 ° 0 min 0,000 mm 0,0 UV-I 0 W/m² 4,6 °C 7,1 °C 0,0 km/h (0 Bft)
07.05.2018 00:48 7,0 °C 84 % 1017,0 hPa 0,0 mm 0,0 km/h (0 Bft) S-SO 162 ° 0 min 0,000 mm 0,0 UV-I 0 W/m² 4,5 °C 7,0 °C 0,0 km/h (0 Bft)
07.05.2018 00:49 6,9 °C 84 % 1016,8 hPa 0,0 mm 0,0 km/h (0 Bft) S-SO 162 ° 0 min 0,000 mm 0,0 UV-I 0 W/m² 4,4 °C 6,9 °C 0,0 km/h (0 Bft)
07.05.2018 00:50 6,9 °C 84 % 1016,8 hPa 0,0 mm 0,0 km/h (0 Bft) S-SO 162 ° 0 min 0,000 mm 0,0 UV-I 0 W/m² 4,4 °C 6,9 °C 0,0 km/h (0 Bft)
07.05.2018 00:51 6,9 °C 84 % 1016,9 hPa 0,0 mm 0,0 km/h (0 Bft) S-SO 162 ° 0 min 0,000 mm 0,0 UV-I 0 W/m² 4,4 °C 6,9 °C 0,0 km/h (0 Bft)
07.05.2018 00:52 6,9 °C 84 % 1016,9 hPa 0,0 mm 0,0 km/h (0 Bft) S-SO 162 ° 0 min 0,000 mm 0,0 UV-I 0 W/m² 4,4 °C 6,9 °C 0,0 km/h (0 Bft)
07.05.2018 00:53 7,0 °C 84 % 1016,9 hPa 0,0 mm 0,0 km/h (0 Bft) S-SO 162 ° 0 min 0,000 mm 0,0 UV-I 0 W/m² 4,5 °C 7,0 °C 0,0 km/h (0 Bft)
07.05.2018 00:54 6,9 °C 84 % 1016,9 hPa 0,0 mm 0,0 km/h (0 Bft) S-SO 162 ° 0 min 0,000 mm 0,0 UV-I 0 W/m² 4,4 °C 6,9 °C 0,0 km/h (0 Bft)
07.05.2018 00:55 6,9 °C 84 % 1016,9 hPa 0,0 mm 0,0 km/h (0 Bft) S-SO 162 ° 0 min 0,000 mm 0,0 UV-I 0 W/m² 4,4 °C 6,9 °C 0,0 km/h (0 Bft)
07.05.2018 00:56 6,8 °C 84 % 1016,9 hPa 0,0 mm 0,0 km/h (0 Bft) S-SO 162 ° 0 min 0,000 mm 0,0 UV-I 0 W/m² 4,3 °C 6,8 °C 0,0 km/h (0 Bft)
07.05.2018 00:57 6,8 °C 84 % 1016,8 hPa 0,0 mm 0,0 km/h (0 Bft) S-SO 162 ° 0 min 0,000 mm 0,0 UV-I 0 W/m² 4,3 °C 6,8 °C 0,0 km/h (0 Bft)
07.05.2018 00:58 6,8 °C 85 % 1016,9 hPa 0,0 mm 0,0 km/h (0 Bft) S-SO 162 ° 0 min 0,000 mm 0,0 UV-I 0 W/m² 4,5 °C 6,8 °C 0,0 km/h (0 Bft)
07.05.2018 00:59 6,8 °C 85 % 1016,9 hPa 0,0 mm 0,0 km/h (0 Bft) S-SO 162 ° 0 min 0,000 mm 0,0 UV-I 0 W/m² 4,5 °C 6,8 °C 0,0 km/h (0 Bft)
07.05.2018 01:00 6,8 °C 85 % 1016,9 hPa 0,0 mm 0,0 km/h (0 Bft) S-SO 162 ° 0 min 0,000 mm 0,0 UV-I 0 W/m² 4,5 °C 6,8 °C 0,0 km/h (0 Bft)
07.05.2018 01:01 6,8 °C 85 % 1016,9 hPa 0,0 mm 0,0 km/h (0 Bft) S-SO 162 ° 0 min 0,000 mm 0,0 UV-I 0 W/m² 4,5 °C 6,8 °C 0,0 km/h (0 Bft)
07.05.2018 01:02 6,8 °C 85 % 1016,9 hPa 0,0 mm 0,0 km/h (0 Bft) S-SO 162 ° 0 min 0,000 mm 0,0 UV-I 0 W/m² 4,5 °C 6,8 °C 0,0 km/h (0 Bft)
07.05.2018 01:03 6,7 °C 85 % 1016,9 hPa 0,0 mm 0,0 km/h (0 Bft) S-SO 162 ° 0 min 0,000 mm 0,0 UV-I 0 W/m² 4,4 °C 6,7 °C 0,0 km/h (0 Bft)
07.05.2018 01:04 6,7 °C 85 % 1016,9 hPa 0,0 mm 0,0 km/h (0 Bft) S-SO 162 ° 0 min 0,000 mm 0,0 UV-I 0 W/m² 4,4 °C 6,7 °C 0,0 km/h (0 Bft)
07.05.2018 01:05 6,7 °C 85 % 1016,8 hPa 0,0 mm 0,0 km/h (0 Bft) S-SO 162 ° 0 min 0,000 mm 0,0 UV-I 0 W/m² 4,4 °C 6,7 °C 0,0 km/h (0 Bft)
07.05.2018 01:06 6,7 °C 85 % 1016,8 hPa 0,0 mm 1,1 km/h (1 Bft) S-SO 162 ° 0 min 0,000 mm 0,0 UV-I 0 W/m² 4,4 °C 6,7 °C 3,2 km/h (1 Bft)
07.05.2018 01:07 6,8 °C 85 % 1016,8 hPa 0,0 mm 1,3 km/h (1 Bft) S-SO 162 ° 0 min 0,000 mm 0,0 UV-I 0 W/m² 4,5 °C 6,8 °C 3,2 km/h (1 Bft)
07.05.2018 01:08 6,8 °C 85 % 1016,7 hPa 0,0 mm 1,0 km/h (0 Bft) S-SO 162 ° 0 min 0,000 mm 0,0 UV-I 0 W/m² 4,5 °C 6,8 °C 1,6 km/h (1 Bft)
07.05.2018 01:09 6,8 °C 85 % 1016,7 hPa 0,0 mm 0,1 km/h (0 Bft) S-SO 162 ° 0 min 0,000 mm 0,0 UV-I 0 W/m² 4,5 °C 6,8 °C 1,6 km/h (1 Bft)
07.05.2018 01:10 6,8 °C 85 % 1016,7 hPa 0,0 mm 0,0 km/h (0 Bft) S-SO 162 ° 0 min 0,000 mm 0,0 UV-I 0 W/m² 4,5 °C 6,8 °C 0,0 km/h (0 Bft)
07.05.2018 01:11 6,7 °C 85 % 1016,7 hPa 0,0 mm 0,0 km/h (0 Bft) S-SO 162 ° 0 min 0,000 mm 0,0 UV-I 0 W/m² 4,4 °C 6,7 °C 0,0 km/h (0 Bft)
07.05.2018 01:12 6,7 °C 85 % 1016,7 hPa 0,0 mm 0,0 km/h (0 Bft) S-SO 162 ° 0 min 0,000 mm 0,0 UV-I 0 W/m² 4,4 °C 6,7 °C 0,0 km/h (0 Bft)
07.05.2018 01:13 6,8 °C 85 % 1016,7 hPa 0,0 mm 0,0 km/h (0 Bft) S-SO 162 ° 0 min 0,000 mm 0,0 UV-I 0 W/m² 4,5 °C 6,8 °C 0,0 km/h (0 Bft)
07.05.2018 01:14 6,8 °C 85 % 1016,6 hPa 0,0 mm 0,0 km/h (0 Bft) S-SO 162 ° 0 min 0,000 mm 0,0 UV-I 0 W/m² 4,5 °C 6,8 °C 0,0 km/h (0 Bft)
07.05.2018 01:15 6,7 °C 85 % 1016,6 hPa 0,0 mm 0,0 km/h (0 Bft) S-SO 162 ° 0 min 0,000 mm 0,0 UV-I 0 W/m² 4,4 °C 6,7 °C 0,0 km/h (0 Bft)
07.05.2018 01:16 6,7 °C 85 % 1016,7 hPa 0,0 mm 0,0 km/h (0 Bft) S-SO 162 ° 0 min 0,000 mm 0,0 UV-I 0 W/m² 4,4 °C 6,7 °C 0,0 km/h (0 Bft)
07.05.2018 01:17 6,6 °C 85 % 1016,6 hPa 0,0 mm 0,0 km/h (0 Bft) S-SO 162 ° 0 min 0,000 mm 0,0 UV-I 0 W/m² 4,3 °C 6,6 °C 0,0 km/h (0 Bft)
07.05.2018 01:18 6,6 °C 86 % 1016,6 hPa 0,0 mm 0,0 km/h (0 Bft) S-SO 162 ° 0 min 0,000 mm 0,0 UV-I 0 W/m² 4,4 °C 6,6 °C 0,0 km/h (0 Bft)
07.05.2018 01:19 6,5 °C 86 % 1016,7 hPa 0,0 mm 0,0 km/h (0 Bft) S-SO 162 ° 0 min 0,000 mm 0,0 UV-I 0 W/m² 4,3 °C 6,5 °C 0,0 km/h (0 Bft)
07.05.2018 01:20 6,4 °C 86 % 1016,7 hPa 0,0 mm 0,0 km/h (0 Bft) S-SO 162 ° 0 min 0,000 mm 0,0 UV-I 0 W/m² 4,2 °C 6,4 °C 0,0 km/h (0 Bft)
07.05.2018 01:21 6,4 °C 86 % 1016,7 hPa 0,0 mm 0,0 km/h (0 Bft) S-SO 162 ° 0 min 0,000 mm 0,0 UV-I 0 W/m² 4,2 °C 6,4 °C 0,0 km/h (0 Bft)
07.05.2018 01:22 6,4 °C 86 % 1016,7 hPa 0,0 mm 0,0 km/h (0 Bft) S-SO 162 ° 0 min 0,000 mm 0,0 UV-I 0 W/m² 4,2 °C 6,4 °C 0,0 km/h (0 Bft)
07.05.2018 01:23 6,4 °C 87 % 1016,7 hPa 0,0 mm 0,0 km/h (0 Bft) S-SO 162 ° 0 min 0,000 mm 0,0 UV-I 0 W/m² 4,4 °C 6,4 °C 0,0 km/h (0 Bft)
07.05.2018 01:24 6,3 °C 86 % 1016,6 hPa 0,0 mm 0,0 km/h (0 Bft) S-SO 162 ° 0 min 0,000 mm 0,0 UV-I 0 W/m² 4,1 °C 6,3 °C 0,0 km/h (0 Bft)
07.05.2018 01:25 6,3 °C 86 % 1016,6 hPa 0,0 mm 0,0 km/h (0 Bft) S-SO 162 ° 0 min 0,000 mm 0,0 UV-I 0 W/m² 4,1 °C 6,3 °C 0,0 km/h (0 Bft)
07.05.2018 01:26 6,3 °C 87 % 1016,6 hPa 0,0 mm 0,0 km/h (0 Bft) S-SO 162 ° 0 min 0,000 mm 0,0 UV-I 0 W/m² 4,3 °C 6,3 °C 0,0 km/h (0 Bft)
07.05.2018 01:27 6,3 °C 87 % 1016,6 hPa 0,0 mm 0,0 km/h (0 Bft) S-SO 162 ° 0 min 0,000 mm 0,0 UV-I 0 W/m² 4,3 °C 6,3 °C 0,0 km/h (0 Bft)
07.05.2018 01:28 6,3 °C 87 % 1016,7 hPa 0,0 mm 0,0 km/h (0 Bft) S-SO 162 ° 0 min 0,000 mm 0,0 UV-I 0 W/m² 4,3 °C 6,3 °C 0,0 km/h (0 Bft)
07.05.2018 01:29 6,3 °C 87 % 1016,6 hPa 0,0 mm 0,0 km/h (0 Bft) S-SO 162 ° 0 min 0,000 mm 0,0 UV-I 0 W/m² 4,3 °C 6,3 °C 0,0 km/h (0 Bft)
07.05.2018 01:30 6,3 °C 87 % 1016,6 hPa 0,0 mm 0,0 km/h (0 Bft) S-SO 162 ° 0 min 0,000 mm 0,0 UV-I 0 W/m² 4,3 °C 6,3 °C 0,0 km/h (0 Bft)
07.05.2018 01:31 6,3 °C 87 % 1016,6 hPa 0,0 mm 0,0 km/h (0 Bft) S-SO 162 ° 0 min 0,000 mm 0,0 UV-I 0 W/m² 4,3 °C 6,3 °C 0,0 km/h (0 Bft)
07.05.2018 01:32 6,3 °C 87 % 1016,7 hPa 0,0 mm 0,0 km/h (0 Bft) S-SO 162 ° 0 min 0,000 mm 0,0 UV-I 0 W/m² 4,3 °C 6,3 °C 0,0 km/h (0 Bft)
07.05.2018 01:33 6,3 °C 87 % 1016,6 hPa 0,0 mm 0,0 km/h (0 Bft) S-SO 162 ° 0 min 0,000 mm 0,0 UV-I 0 W/m² 4,3 °C 6,3 °C 0,0 km/h (0 Bft)
07.05.2018 01:34 6,4 °C 87 % 1016,6 hPa 0,0 mm 0,0 km/h (0 Bft) S-SO 162 ° 0 min 0,000 mm 0,0 UV-I 0 W/m² 4,4 °C 6,4 °C 0,0 km/h (0 Bft)
07.05.2018 01:35 6,4 °C 87 % 1016,7 hPa 0,0 mm 0,0 km/h (0 Bft) S-SO 162 ° 0 min 0,000 mm 0,0 UV-I 0 W/m² 4,4 °C 6,4 °C 0,0 km/h (0 Bft)
07.05.2018 01:36 6,3 °C 87 % 1016,7 hPa 0,0 mm 0,0 km/h (0 Bft) S-SO 162 ° 0 min 0,000 mm 0,0 UV-I 0 W/m² 4,3 °C 6,3 °C 0,0 km/h (0 Bft)
07.05.2018 01:37 6,3 °C 87 % 1016,6 hPa 0,0 mm 0,0 km/h (0 Bft) S-SO 162 ° 0 min 0,000 mm 0,0 UV-I 0 W/m² 4,3 °C 6,3 °C 0,0 km/h (0 Bft)
07.05.2018 01:38 6,3 °C 87 % 1016,7 hPa 0,0 mm 0,0 km/h (0 Bft) S-SO 162 ° 0 min 0,000 mm 0,0 UV-I 0 W/m² 4,3 °C 6,3 °C 0,0 km/h (0 Bft)
07.05.2018 01:39 6,3 °C 87 % 1016,7 hPa 0,0 mm 0,0 km/h (0 Bft) S-SO 162 ° 0 min 0,000 mm 0,0 UV-I 0 W/m² 4,3 °C 6,3 °C 0,0 km/h (0 Bft)
07.05.2018 01:40 6,3 °C 87 % 1016,6 hPa 0,0 mm 0,0 km/h (0 Bft) S-SO 162 ° 0 min 0,000 mm 0,0 UV-I 0 W/m² 4,3 °C 6,3 °C 0,0 km/h (0 Bft)
07.05.2018 01:41 6,2 °C 87 % 1016,6 hPa 0,0 mm 0,0 km/h (0 Bft) S-SO 162 ° 0 min 0,000 mm 0,0 UV-I 0 W/m² 4,2 °C 6,2 °C 0,0 km/h (0 Bft)
07.05.2018 01:42 6,2 °C 87 % 1016,6 hPa 0,0 mm 0,0 km/h (0 Bft) S-SO 162 ° 0 min 0,000 mm 0,0 UV-I 0 W/m² 4,2 °C 6,2 °C 0,0 km/h (0 Bft)
07.05.2018 01:43 6,2 °C 87 % 1016,7 hPa 0,0 mm 0,0 km/h (0 Bft) S-SO 162 ° 0 min 0,000 mm 0,0 UV-I 0 W/m² 4,2 °C 6,2 °C 0,0 km/h (0 Bft)
07.05.2018 01:44 6,2 °C 87 % 1016,7 hPa 0,0 mm 0,0 km/h (0 Bft) S-SO 162 ° 0 min 0,000 mm 0,0 UV-I 0 W/m² 4,2 °C 6,2 °C 0,0 km/h (0 Bft)
07.05.2018 01:45 6,2 °C 87 % 1016,6 hPa 0,0 mm 0,0 km/h (0 Bft) S-SO 162 ° 0 min 0,000 mm 0,0 UV-I 0 W/m² 4,2 °C 6,2 °C 0,0 km/h (0 Bft)
07.05.2018 01:46 6,2 °C 87 % 1016,6 hPa 0,0 mm 0,0 km/h (0 Bft) S-SO 162 ° 0 min 0,000 mm 0,0 UV-I 0 W/m² 4,2 °C 6,2 °C 0,0 km/h (0 Bft)
07.05.2018 01:47 6,1 °C 87 % 1016,6 hPa 0,0 mm 0,0 km/h (0 Bft) S-SO 162 ° 0 min 0,000 mm 0,0 UV-I 0 W/m² 4,1 °C 6,1 °C 0,0 km/h (0 Bft)
07.05.2018 01:48 6,1 °C 87 % 1016,6 hPa 0,0 mm 0,0 km/h (0 Bft) S-SO 162 ° 0 min 0,000 mm 0,0 UV-I 0 W/m² 4,1 °C 6,1 °C 0,0 km/h (0 Bft)
07.05.2018 01:49 6,2 °C 87 % 1016,5 hPa 0,0 mm 0,0 km/h (0 Bft) S-SO 162 ° 0 min 0,000 mm 0,0 UV-I 0 W/m² 4,2 °C 6,2 °C 0,0 km/h (0 Bft)
07.05.2018 01:50 6,2 °C 87 % 1016,5 hPa 0,0 mm 0,0 km/h (0 Bft) S-SO 162 ° 0 min 0,000 mm 0,0 UV-I 0 W/m² 4,2 °C 6,2 °C 0,0 km/h (0 Bft)
07.05.2018 01:51 6,2 °C 87 % 1016,6 hPa 0,0 mm 0,0 km/h (0 Bft) S-SO 162 ° 0 min 0,000 mm 0,0 UV-I 0 W/m² 4,2 °C 6,2 °C 0,0 km/h (0 Bft)
07.05.2018 01:52 6,2 °C 87 % 1016,6 hPa 0,0 mm 0,0 km/h (0 Bft) S-SO 162 ° 0 min 0,000 mm 0,0 UV-I 0 W/m² 4,2 °C 6,2 °C 0,0 km/h (0 Bft)
07.05.2018 01:53 6,2 °C 87 % 1016,5 hPa 0,0 mm 0,0 km/h (0 Bft) S-SO 162 ° 0 min 0,000 mm 0,0 UV-I 0 W/m² 4,2 °C 6,2 °C 0,0 km/h (0 Bft)
07.05.2018 01:54 6,2 °C 87 % 1016,5 hPa 0,0 mm 0,0 km/h (0 Bft) S-SO 162 ° 0 min 0,000 mm 0,0 UV-I 0 W/m² 4,2 °C 6,2 °C 0,0 km/h (0 Bft)
07.05.2018 01:55 6,3 °C 87 % 1016,5 hPa 0,0 mm 0,0 km/h (0 Bft) S-SO 162 ° 0 min 0,000 mm 0,0 UV-I 0 W/m² 4,3 °C 6,3 °C 0,0 km/h (0 Bft)
07.05.2018 01:56 6,3 °C 87 % 1016,5 hPa 0,0 mm 0,0 km/h (0 Bft) S-SO 162 ° 0 min 0,000 mm 0,0 UV-I 0 W/m² 4,3 °C 6,3 °C 0,0 km/h (0 Bft)
07.05.2018 01:57 6,3 °C 87 % 1016,5 hPa 0,0 mm 0,0 km/h (0 Bft) S-SO 162 ° 0 min 0,000 mm 0,0 UV-I 0 W/m² 4,3 °C 6,3 °C 0,0 km/h (0 Bft)
07.05.2018 01:58 6,3 °C 87 % 1016,5 hPa 0,0 mm 0,0 km/h (0 Bft) S-SO 162 ° 0 min 0,000 mm 0,0 UV-I 0 W/m² 4,3 °C 6,3 °C 0,0 km/h (0 Bft)
07.05.2018 01:59 6,2 °C 87 % 1016,5 hPa 0,0 mm 0,0 km/h (0 Bft) S-SO 162 ° 0 min 0,000 mm 0,0 UV-I 0 W/m² 4,2 °C 6,2 °C 0,0 km/h (0 Bft)
07.05.2018 02:00 6,1 °C 86 % 1016,5 hPa 0,0 mm 0,0 km/h (0 Bft) S-SO 162 ° 0 min 0,000 mm 0,0 UV-I 0 W/m² 3,9 °C 6,1 °C 0,0 km/h (0 Bft)
07.05.2018 02:01 5,9 °C 87 % 1016,5 hPa 0,0 mm 0,0 km/h (0 Bft) S-SO 162 ° 0 min 0,000 mm 0,0 UV-I 0 W/m² 3,9 °C 5,9 °C 0,0 km/h (0 Bft)
07.05.2018 02:02 5,9 °C 87 % 1016,4 hPa 0,0 mm 0,0 km/h (0 Bft) S-SO 162 ° 0 min 0,000 mm 0,0 UV-I 0 W/m² 3,9 °C 5,9 °C 0,0 km/h (0 Bft)
07.05.2018 02:03 5,8 °C 88 % 1016,5 hPa 0,0 mm 0,0 km/h (0 Bft) S-SO 162 ° 0 min 0,000 mm 0,0 UV-I 0 W/m² 4,0 °C 5,8 °C 0,0 km/h (0 Bft)
07.05.2018 02:04 5,8 °C 88 % 1016,5 hPa 0,0 mm 0,0 km/h (0 Bft) S-SO 162 ° 0 min 0,000 mm 0,0 UV-I 0 W/m² 4,0 °C 5,8 °C 0,0 km/h (0 Bft)
07.05.2018 02:05 5,8 °C 88 % 1016,4 hPa 0,0 mm 0,0 km/h (0 Bft) S-SO 162 ° 0 min 0,000 mm 0,0 UV-I 0 W/m² 4,0 °C 5,8 °C 0,0 km/h (0 Bft)
07.05.2018 02:06 5,9 °C 88 % 1016,4 hPa 0,0 mm 0,0 km/h (0 Bft) S-SO 162 ° 0 min 0,000 mm 0,0 UV-I 0 W/m² 4,1 °C 5,9 °C 0,0 km/h (0 Bft)
07.05.2018 02:07 5,9 °C 88 % 1016,4 hPa 0,0 mm 0,0 km/h (0 Bft) S-SO 162 ° 0 min 0,000 mm 0,0 UV-I 0 W/m² 4,1 °C 5,9 °C 0,0 km/h (0 Bft)
07.05.2018 02:08 6,0 °C 88 % 1016,4 hPa 0,0 mm 0,0 km/h (0 Bft) S-SO 162 ° 0 min 0,000 mm 0,0 UV-I 0 W/m² 4,2 °C 6,0 °C 0,0 km/h (0 Bft)
07.05.2018 02:09 6,1 °C 88 % 1016,4 hPa 0,0 mm 0,0 km/h (0 Bft) S-SO 162 ° 0 min 0,000 mm 0,0 UV-I 0 W/m² 4,3 °C 6,1 °C 0,0 km/h (0 Bft)
07.05.2018 02:10 6,1 °C 88 % 1016,4 hPa 0,0 mm 0,0 km/h (0 Bft) S-SO 162 ° 0 min 0,000 mm 0,0 UV-I 0 W/m² 4,3 °C 6,1 °C 0,0 km/h (0 Bft)
07.05.2018 02:11 6,1 °C 88 % 1016,4 hPa 0,0 mm 0,0 km/h (0 Bft) S-SO 162 ° 0 min 0,000 mm 0,0 UV-I 0 W/m² 4,3 °C 6,1 °C 0,0 km/h (0 Bft)
07.05.2018 02:12 6,1 °C 88 % 1016,4 hPa 0,0 mm 0,0 km/h (0 Bft) S-SO 162 ° 0 min 0,000 mm 0,0 UV-I 0 W/m² 4,3 °C 6,1 °C 0,0 km/h (0 Bft)
07.05.2018 02:13 6,2 °C 88 % 1016,3 hPa 0,0 mm 0,5 km/h (0 Bft) S-SO 162 ° 0 min 0,000 mm 0,0 UV-I 0 W/m² 4,4 °C 6,2 °C 3,2 km/h (1 Bft)
07.05.2018 02:14 6,3 °C 88 % 1016,4 hPa 0,0 mm 1,4 km/h (1 Bft) S-SO 162 ° 0 min 0,000 mm 0,0 UV-I 0 W/m² 4,5 °C 6,3 °C 3,2 km/h (1 Bft)
07.05.2018 02:15 6,3 °C 88 % 1016,3 hPa 0,0 mm 0,1 km/h (0 Bft) S-SO 162 ° 0 min 0,000 mm 0,0 UV-I 0 W/m² 4,5 °C 6,3 °C 1,6 km/h (1 Bft)
07.05.2018 02:16 6,4 °C 88 % 1016,3 hPa 0,0 mm 0,0 km/h (0 Bft) S-SO 162 ° 0 min 0,000 mm 0,0 UV-I 0 W/m² 4,6 °C 6,4 °C 0,0 km/h (0 Bft)
07.05.2018 02:17 6,3 °C 88 % 1016,3 hPa 0,0 mm 0,0 km/h (0 Bft) S-SO 162 ° 0 min 0,000 mm 0,0 UV-I 0 W/m² 4,5 °C 6,3 °C 0,0 km/h (0 Bft)
07.05.2018 02:18 6,4 °C 88 % 1016,3 hPa 0,0 mm 0,0 km/h (0 Bft) S-SO 162 ° 0 min 0,000 mm 0,0 UV-I 0 W/m² 4,6 °C 6,4 °C 0,0 km/h (0 Bft)
07.05.2018 02:19 6,3 °C 88 % 1016,3 hPa 0,0 mm 0,0 km/h (0 Bft) S-SO 162 ° 0 min 0,000 mm 0,0 UV-I 0 W/m² 4,5 °C 6,3 °C 0,0 km/h (0 Bft)
07.05.2018 02:20 6,3 °C 88 % 1016,2 hPa 0,0 mm 0,3 km/h (0 Bft) S-SO 162 ° 0 min 0,000 mm 0,0 UV-I 0 W/m² 4,5 °C 6,3 °C 1,6 km/h (1 Bft)
07.05.2018 02:21 6,3 °C 87 % 1016,3 hPa 0,0 mm 0,0 km/h (0 Bft) S-SO 162 ° 0 min 0,000 mm 0,0 UV-I 0 W/m² 4,3 °C 6,3 °C 0,0 km/h (0 Bft)
07.05.2018 02:22 6,2 °C 87 % 1016,3 hPa 0,0 mm 0,0 km/h (0 Bft) S-SO 162 ° 0 min 0,000 mm 0,0 UV-I 0 W/m² 4,2 °C 6,2 °C 0,0 km/h (0 Bft)
07.05.2018 02:23 6,2 °C 87 % 1016,3 hPa 0,0 mm 0,3 km/h (0 Bft) S-SO 162 ° 0 min 0,000 mm 0,0 UV-I 0 W/m² 4,2 °C 6,2 °C 1,6 km/h (1 Bft)
07.05.2018 02:24 6,1 °C 87 % 1016,3 hPa 0,0 mm 0,3 km/h (0 Bft) S-SO 162 ° 0 min 0,000 mm 0,0 UV-I 0 W/m² 4,1 °C 6,1 °C 1,6 km/h (1 Bft)
07.05.2018 02:25 6,1 °C 88 % 1016,3 hPa 0,0 mm 0,0 km/h (0 Bft) S-SO 162 ° 0 min 0,000 mm 0,0 UV-I 0 W/m² 4,3 °C 6,1 °C 0,0 km/h (0 Bft)
07.05.2018 02:26 6,1 °C 88 % 1016,2 hPa 0,0 mm 0,0 km/h (0 Bft) S-SO 162 ° 0 min 0,000 mm 0,0 UV-I 0 W/m² 4,3 °C 6,1 °C 0,0 km/h (0 Bft)
07.05.2018 02:27 5,9 °C 88 % 1016,3 hPa 0,0 mm 0,0 km/h (0 Bft) S-SO 162 ° 0 min 0,000 mm 0,0 UV-I 0 W/m² 4,1 °C 5,9 °C 0,0 km/h (0 Bft)
07.05.2018 02:28 5,9 °C 88 % 1016,2 hPa 0,0 mm 0,0 km/h (0 Bft) S-SO 162 ° 0 min 0,000 mm 0,0 UV-I 0 W/m² 4,1 °C 5,9 °C 0,0 km/h (0 Bft)
07.05.2018 02:29 5,9 °C 88 % 1016,2 hPa 0,0 mm 0,0 km/h (0 Bft) S-SO 162 ° 0 min 0,000 mm 0,0 UV-I 0 W/m² 4,1 °C 5,9 °C 0,0 km/h (0 Bft)
07.05.2018 02:30 5,9 °C 88 % 1016,2 hPa 0,0 mm 0,0 km/h (0 Bft) S-SO 162 ° 0 min 0,000 mm 0,0 UV-I 0 W/m² 4,1 °C 5,9 °C 0,0 km/h (0 Bft)
07.05.2018 02:31 5,9 °C 88 % 1016,3 hPa 0,0 mm 0,0 km/h (0 Bft) S-SO 162 ° 0 min 0,000 mm 0,0 UV-I 0 W/m² 4,1 °C 5,9 °C 0,0 km/h (0 Bft)
07.05.2018 02:32 5,8 °C 88 % 1016,3 hPa 0,0 mm 0,0 km/h (0 Bft) S-SO 162 ° 0 min 0,000 mm 0,0 UV-I 0 W/m² 4,0 °C 5,8 °C 0,0 km/h (0 Bft)
07.05.2018 02:33 5,8 °C 89 % 1016,3 hPa 0,0 mm 0,0 km/h (0 Bft) S-SO 162 ° 0 min 0,000 mm 0,0 UV-I 0 W/m² 4,1 °C 5,8 °C 0,0 km/h (0 Bft)
07.05.2018 02:34 5,9 °C 89 % 1016,3 hPa 0,0 mm 0,0 km/h (0 Bft) S-SO 162 ° 0 min 0,000 mm 0,0 UV-I 0 W/m² 4,2 °C 5,9 °C 0,0 km/h (0 Bft)
07.05.2018 02:35 5,8 °C 89 % 1016,3 hPa 0,0 mm 0,0 km/h (0 Bft) S-SO 162 ° 0 min 0,000 mm 0,0 UV-I 0 W/m² 4,1 °C 5,8 °C 0,0 km/h (0 Bft)
07.05.2018 02:36 5,8 °C 89 % 1016,3 hPa 0,0 mm 0,0 km/h (0 Bft) S-SO 162 ° 0 min 0,000 mm 0,0 UV-I 0 W/m² 4,1 °C 5,8 °C 0,0 km/h (0 Bft)
07.05.2018 02:37 5,8 °C 89 % 1016,3 hPa 0,0 mm 0,0 km/h (0 Bft) S-SO 162 ° 0 min 0,000 mm 0,0 UV-I 0 W/m² 4,1 °C 5,8 °C 0,0 km/h (0 Bft)
07.05.2018 02:38 5,8 °C 89 % 1016,3 hPa 0,0 mm 0,0 km/h (0 Bft) S-SO 162 ° 0 min 0,000 mm 0,0 UV-I 0 W/m² 4,1 °C 5,8 °C 0,0 km/h (0 Bft)
07.05.2018 02:39 5,8 °C 89 % 1016,3 hPa 0,0 mm 0,0 km/h (0 Bft) S-SO 162 ° 0 min 0,000 mm 0,0 UV-I 0 W/m² 4,1 °C 5,8 °C 0,0 km/h (0 Bft)
07.05.2018 02:40 5,8 °C 89 % 1016,3 hPa 0,0 mm 0,1 km/h (0 Bft) S-SO 162 ° 0 min 0,000 mm 0,0 UV-I 0 W/m² 4,1 °C 5,8 °C 1,6 km/h (1 Bft)
07.05.2018 02:41 5,8 °C 89 % 1016,3 hPa 0,0 mm 0,0 km/h (0 Bft) S-SO 162 ° 0 min 0,000 mm 0,0 UV-I 0 W/m² 4,1 °C 5,8 °C 0,0 km/h (0 Bft)
07.05.2018 02:42 5,9 °C 89 % 1016,2 hPa 0,0 mm 0,5 km/h (0 Bft) S-SO 162 ° 0 min 0,000 mm 0,0 UV-I 0 W/m² 4,2 °C 5,9 °C 3,2 km/h (1 Bft)
07.05.2018 02:43 6,2 °C 90 % 1016,2 hPa 0,0 mm 2,8 km/h (1 Bft) S-SO 162 ° 0 min 0,000 mm 0,0 UV-I 0 W/m² 4,7 °C 6,2 °C 3,2 km/h (1 Bft)
07.05.2018 02:44 6,4 °C 90 % 1016,2 hPa 0,0 mm 1,1 km/h (1 Bft) S-SO 162 ° 0 min 0,000 mm 0,0 UV-I 0 W/m² 4,9 °C 6,4 °C 1,6 km/h (1 Bft)
07.05.2018 02:45 6,6 °C 89 % 1016,2 hPa 0,0 mm 0,0 km/h (0 Bft) S-SO 162 ° 0 min 0,000 mm 0,0 UV-I 0 W/m² 4,9 °C 6,6 °C 0,0 km/h (0 Bft)
07.05.2018 02:46 6,7 °C 89 % 1016,2 hPa 0,0 mm 0,0 km/h (0 Bft) S-SO 162 ° 0 min 0,000 mm 0,0 UV-I 0 W/m² 5,0 °C 6,7 °C 0,0 km/h (0 Bft)
07.05.2018 02:47 6,8 °C 89 % 1016,2 hPa 0,0 mm 0,0 km/h (0 Bft) S-SO 162 ° 0 min 0,000 mm 0,0 UV-I 0 W/m² 5,1 °C 6,8 °C 0,0 km/h (0 Bft)
07.05.2018 02:48 6,9 °C 89 % 1016,2 hPa 0,0 mm 0,0 km/h (0 Bft) S-SO 162 ° 0 min 0,000 mm 0,0 UV-I 0 W/m² 5,2 °C 6,9 °C 0,0 km/h (0 Bft)
07.05.2018 02:49 6,9 °C 88 % 1016,1 hPa 0,0 mm 0,0 km/h (0 Bft) S-SO 162 ° 0 min 0,000 mm 0,0 UV-I 0 W/m² 5,1 °C 6,9 °C 0,0 km/h (0 Bft)
07.05.2018 02:50 7,1 °C 88 % 1016,2 hPa 0,0 mm 0,0 km/h (0 Bft) S-SO 162 ° 0 min 0,000 mm 0,0 UV-I 0 W/m² 5,2 °C 7,1 °C 0,0 km/h (0 Bft)
07.05.2018 02:51 7,1 °C 87 % 1016,1 hPa 0,0 mm 0,0 km/h (0 Bft) S-SO 162 ° 0 min 0,000 mm 0,0 UV-I 0 W/m² 5,1 °C 7,1 °C 0,0 km/h (0 Bft)
07.05.2018 02:52 7,0 °C 87 % 1016,1 hPa 0,0 mm 0,0 km/h (0 Bft) S-SO 162 ° 0 min 0,000 mm 0,0 UV-I 0 W/m² 5,0 °C 7,0 °C 0,0 km/h (0 Bft)
07.05.2018 02:53 6,8 °C 86 % 1016,1 hPa 0,0 mm 0,0 km/h (0 Bft) S-SO 162 ° 0 min 0,000 mm 0,0 UV-I 0 W/m² 4,6 °C 6,8 °C 0,0 km/h (0 Bft)
07.05.2018 02:54 6,6 °C 86 % 1016,1 hPa 0,0 mm 0,0 km/h (0 Bft) S-SO 162 ° 0 min 0,000 mm 0,0 UV-I 0 W/m² 4,4 °C 6,6 °C 0,0 km/h (0 Bft)
07.05.2018 02:55 6,4 °C 87 % 1016,1 hPa 0,0 mm 0,0 km/h (0 Bft) S-SO 162 ° 0 min 0,000 mm 0,0 UV-I 0 W/m² 4,4 °C 6,4 °C 0,0 km/h (0 Bft)
07.05.2018 02:56 6,3 °C 87 % 1016,1 hPa 0,0 mm 0,0 km/h (0 Bft) S-SO 162 ° 0 min 0,000 mm 0,0 UV-I 0 W/m² 4,3 °C 6,3 °C 0,0 km/h (0 Bft)
07.05.2018 02:57 6,1 °C 87 % 1016,1 hPa 0,0 mm 0,0 km/h (0 Bft) S-SO 162 ° 0 min 0,000 mm 0,0 UV-I 0 W/m² 4,1 °C 6,1 °C 0,0 km/h (0 Bft)
07.05.2018 02:58 5,9 °C 87 % 1016,1 hPa 0,0 mm 0,0 km/h (0 Bft) S-SO 162 ° 0 min 0,000 mm 0,0 UV-I 0 W/m² 3,9 °C 5,9 °C 0,0 km/h (0 Bft)
07.05.2018 02:59 5,8 °C 87 % 1016,1 hPa 0,0 mm 0,0 km/h (0 Bft) S-SO 162 ° 0 min 0,000 mm 0,0 UV-I 0 W/m² 3,8 °C 5,8 °C 0,0 km/h (0 Bft)
07.05.2018 03:00 5,7 °C 88 % 1016,1 hPa 0,0 mm 0,0 km/h (0 Bft) S-SO 162 ° 0 min 0,000 mm 0,0 UV-I 0 W/m² 3,9 °C 5,7 °C 0,0 km/h (0 Bft)
07.05.2018 03:01 5,7 °C 88 % 1016,1 hPa 0,0 mm 0,0 km/h (0 Bft) S-SO 162 ° 0 min 0,000 mm 0,0 UV-I 0 W/m² 3,9 °C 5,7 °C 0,0 km/h (0 Bft)
07.05.2018 03:02 5,7 °C 89 % 1016,1 hPa 0,0 mm 0,0 km/h (0 Bft) S-SO 162 ° 0 min 0,000 mm 0,0 UV-I 0 W/m² 4,0 °C 5,7 °C 0,0 km/h (0 Bft)
07.05.2018 03:03 5,7 °C 89 % 1016,1 hPa 0,0 mm 0,0 km/h (0 Bft) S-SO 162 ° 0 min 0,000 mm 0,0 UV-I 0 W/m² 4,0 °C 5,7 °C 0,0 km/h (0 Bft)
07.05.2018 03:04 5,7 °C 89 % 1016,1 hPa 0,0 mm 0,0 km/h (0 Bft) S-SO 162 ° 0 min 0,000 mm 0,0 UV-I 0 W/m² 4,0 °C 5,7 °C 0,0 km/h (0 Bft)
07.05.2018 03:05 5,7 °C 89 % 1016,1 hPa 0,0 mm 0,0 km/h (0 Bft) S-SO 162 ° 0 min 0,000 mm 0,0 UV-I 0 W/m² 4,0 °C 5,7 °C 0,0 km/h (0 Bft)
07.05.2018 03:06 5,4 °C 88 % 1016,1 hPa 0,0 mm 0,0 km/h (0 Bft) S-SO 162 ° 0 min 0,000 mm 0,0 UV-I 0 W/m² 3,6 °C 5,4 °C 0,0 km/h (0 Bft)
07.05.2018 03:07 5,4 °C 89 % 1016,1 hPa 0,0 mm 0,0 km/h (0 Bft) S-SO 162 ° 0 min 0,000 mm 0,0 UV-I 0 W/m² 3,7 °C 5,4 °C 0,0 km/h (0 Bft)
07.05.2018 03:08 5,3 °C 89 % 1016,0 hPa 0,0 mm 0,0 km/h (0 Bft) S-SO 162 ° 0 min 0,000 mm 0,0 UV-I 0 W/m² 3,6 °C 5,3 °C 0,0 km/h (0 Bft)
07.05.2018 03:09 5,4 °C 90 % 1016,0 hPa 0,0 mm 0,0 km/h (0 Bft) S-SO 162 ° 0 min 0,000 mm 0,0 UV-I 0 W/m² 3,9 °C 5,4 °C 0,0 km/h (0 Bft)
07.05.2018 03:10 5,4 °C 90 % 1016,0 hPa 0,0 mm 0,0 km/h (0 Bft) S-SO 162 ° 0 min 0,000 mm 0,0 UV-I 0 W/m² 3,9 °C 5,4 °C 0,0 km/h (0 Bft)
07.05.2018 03:11 5,4 °C 90 % 1016,0 hPa 0,0 mm 0,0 km/h (0 Bft) S-SO 162 ° 0 min 0,000 mm 0,0 UV-I 0 W/m² 3,9 °C 5,4 °C 0,0 km/h (0 Bft)
07.05.2018 03:12 5,4 °C 90 % 1016,0 hPa 0,0 mm 0,0 km/h (0 Bft) S-SO 162 ° 0 min 0,000 mm 0,0 UV-I 0 W/m² 3,9 °C 5,4 °C 0,0 km/h (0 Bft)
07.05.2018 03:13 5,4 °C 89 % 1016,0 hPa 0,0 mm 0,0 km/h (0 Bft) S-SO 162 ° 0 min 0,000 mm 0,0 UV-I 0 W/m² 3,7 °C 5,4 °C 0,0 km/h (0 Bft)
07.05.2018 03:14 5,3 °C 89 % 1016,0 hPa 0,0 mm 0,0 km/h (0 Bft) S-SO 162 ° 0 min 0,000 mm 0,0 UV-I 0 W/m² 3,6 °C 5,3 °C 0,0 km/h (0 Bft)
07.05.2018 03:15 5,2 °C 89 % 1016,0 hPa 0,0 mm 0,0 km/h (0 Bft) S-SO 162 ° 0 min 0,000 mm 0,0 UV-I 0 W/m² 3,5 °C 5,2 °C 0,0 km/h (0 Bft)
07.05.2018 03:16 5,2 °C 89 % 1016,1 hPa 0,0 mm 0,0 km/h (0 Bft) S-SO 162 ° 0 min 0,000 mm 0,0 UV-I 0 W/m² 3,5 °C 5,2 °C 0,0 km/h (0 Bft)
07.05.2018 03:17 5,2 °C 89 % 1016,1 hPa 0,0 mm 0,0 km/h (0 Bft) S-SO 162 ° 0 min 0,000 mm 0,0 UV-I 0 W/m² 3,5 °C 5,2 °C 0,0 km/h (0 Bft)
07.05.2018 03:18 5,2 °C 89 % 1016,1 hPa 0,0 mm 0,0 km/h (0 Bft) S-SO 162 ° 0 min 0,000 mm 0,0 UV-I 0 W/m² 3,5 °C 5,2 °C 0,0 km/h (0 Bft)
07.05.2018 03:19 5,2 °C 90 % 1016,1 hPa 0,0 mm 0,0 km/h (0 Bft) S-SO 162 ° 0 min 0,000 mm 0,0 UV-I 0 W/m² 3,7 °C 5,2 °C 0,0 km/h (0 Bft)
07.05.2018 03:20 5,2 °C 90 % 1016,1 hPa 0,0 mm 0,0 km/h (0 Bft) S-SO 162 ° 0 min 0,000 mm 0,0 UV-I 0 W/m² 3,7 °C 5,2 °C 0,0 km/h (0 Bft)
07.05.2018 03:21 5,2 °C 90 % 1016,1 hPa 0,0 mm 0,0 km/h (0 Bft) S-SO 162 ° 0 min 0,000 mm 0,0 UV-I 0 W/m² 3,7 °C 5,2 °C 0,0 km/h (0 Bft)
07.05.2018 03:22 5,2 °C 90 % 1016,1 hPa 0,0 mm 0,0 km/h (0 Bft) S-SO 162 ° 0 min 0,000 mm 0,0 UV-I 0 W/m² 3,7 °C 5,2 °C 0,0 km/h (0 Bft)
07.05.2018 03:23 5,2 °C 90 % 1016,1 hPa 0,0 mm 0,0 km/h (0 Bft) S-SO 162 ° 0 min 0,000 mm 0,0 UV-I 0 W/m² 3,7 °C 5,2 °C 0,0 km/h (0 Bft)
07.05.2018 03:24 5,2 °C 90 % 1016,1 hPa 0,0 mm 0,0 km/h (0 Bft) S-SO 162 ° 0 min 0,000 mm 0,0 UV-I 0 W/m² 3,7 °C 5,2 °C 0,0 km/h (0 Bft)
07.05.2018 03:25 5,2 °C 90 % 1016,1 hPa 0,0 mm 0,0 km/h (0 Bft) S-SO 162 ° 0 min 0,000 mm 0,0 UV-I 0 W/m² 3,7 °C 5,2 °C 0,0 km/h (0 Bft)
07.05.2018 03:26 5,2 °C 90 % 1016,1 hPa 0,0 mm 0,0 km/h (0 Bft) S-SO 162 ° 0 min 0,000 mm 0,0 UV-I 0 W/m² 3,7 °C 5,2 °C 0,0 km/h (0 Bft)
07.05.2018 03:27 5,2 °C 90 % 1016,1 hPa 0,0 mm 0,0 km/h (0 Bft) S-SO 162 ° 0 min 0,000 mm 0,0 UV-I 0 W/m² 3,7 °C 5,2 °C 0,0 km/h (0 Bft)
07.05.2018 03:28 5,2 °C 90 % 1016,1 hPa 0,0 mm 0,0 km/h (0 Bft) S-SO 162 ° 0 min 0,000 mm 0,0 UV-I 0 W/m² 3,7 °C 5,2 °C 0,0 km/h (0 Bft)
07.05.2018 03:29 5,2 °C 90 % 1016,1 hPa 0,0 mm 0,0 km/h (0 Bft) S-SO 162 ° 0 min 0,000 mm 0,0 UV-I 0 W/m² 3,7 °C 5,2 °C 0,0 km/h (0 Bft)
07.05.2018 03:30 5,3 °C 91 % 1016,1 hPa 0,0 mm 0,0 km/h (0 Bft) S-SO 162 ° 0 min 0,000 mm 0,0 UV-I 0 W/m² 4,0 °C 5,3 °C 0,0 km/h (0 Bft)
07.05.2018 03:31 5,3 °C 91 % 1016,1 hPa 0,0 mm 0,0 km/h (0 Bft) S-SO 162 ° 0 min 0,000 mm 0,0 UV-I 0 W/m² 4,0 °C 5,3 °C 0,0 km/h (0 Bft)
07.05.2018 03:32 5,2 °C 90 % 1016,1 hPa 0,0 mm 0,0 km/h (0 Bft) S-SO 162 ° 0 min 0,000 mm 0,0 UV-I 0 W/m² 3,7 °C 5,2 °C 0,0 km/h (0 Bft)
07.05.2018 03:33 5,2 °C 90 % 1016,1 hPa 0,0 mm 0,0 km/h (0 Bft) S-SO 162 ° 0 min 0,000 mm 0,0 UV-I 0 W/m² 3,7 °C 5,2 °C 0,0 km/h (0 Bft)
07.05.2018 03:34 5,2 °C 90 % 1016,1 hPa 0,0 mm 0,0 km/h (0 Bft) S-SO 162 ° 0 min 0,000 mm 0,0 UV-I 0 W/m² 3,7 °C 5,2 °C 0,0 km/h (0 Bft)
07.05.2018 03:35 5,1 °C 90 % 1016,1 hPa 0,0 mm 0,0 km/h (0 Bft) S-SO 162 ° 0 min 0,000 mm 0,0 UV-I 0 W/m² 3,6 °C 5,1 °C 0,0 km/h (0 Bft)
07.05.2018 03:36 5,2 °C 91 % 1016,1 hPa 0,0 mm 0,0 km/h (0 Bft) S-SO 162 ° 0 min 0,000 mm 0,0 UV-I 0 W/m² 3,9 °C 5,2 °C 0,0 km/h (0 Bft)
07.05.2018 03:37 5,2 °C 91 % 1016,1 hPa 0,0 mm 0,0 km/h (0 Bft) S-SO 162 ° 0 min 0,000 mm 0,0 UV-I 0 W/m² 3,9 °C 5,2 °C 0,0 km/h (0 Bft)
07.05.2018 03:38 5,1 °C 91 % 1016,1 hPa 0,0 mm 0,0 km/h (0 Bft) S-SO 162 ° 0 min 0,000 mm 0,0 UV-I 0 W/m² 3,8 °C 5,1 °C 0,0 km/h (0 Bft)
07.05.2018 03:39 5,1 °C 91 % 1016,1 hPa 0,0 mm 0,0 km/h (0 Bft) S-SO 162 ° 0 min 0,000 mm 0,0 UV-I 0 W/m² 3,8 °C 5,1 °C 0,0 km/h (0 Bft)
07.05.2018 03:40 5,1 °C 91 % 1016,1 hPa 0,0 mm 0,0 km/h (0 Bft) S-SO 162 ° 0 min 0,000 mm 0,0 UV-I 0 W/m² 3,8 °C 5,1 °C 0,0 km/h (0 Bft)
07.05.2018 03:41 5,1 °C 91 % 1016,0 hPa 0,0 mm 0,0 km/h (0 Bft) S-SO 162 ° 0 min 0,000 mm 0,0 UV-I 0 W/m² 3,8 °C 5,1 °C 0,0 km/h (0 Bft)
07.05.2018 03:42 5,2 °C 91 % 1016,0 hPa 0,0 mm 0,0 km/h (0 Bft) S-SO 162 ° 0 min 0,000 mm 0,0 UV-I 0 W/m² 3,9 °C 5,2 °C 0,0 km/h (0 Bft)
07.05.2018 03:43 5,2 °C 91 % 1016,1 hPa 0,0 mm 0,0 km/h (0 Bft) S-SO 162 ° 0 min 0,000 mm 0,0 UV-I 0 W/m² 3,9 °C 5,2 °C 0,0 km/h (0 Bft)
07.05.2018 03:44 5,2 °C 91 % 1016,1 hPa 0,0 mm 0,0 km/h (0 Bft) S-SO 162 ° 0 min 0,000 mm 0,0 UV-I 0 W/m² 3,9 °C 5,2 °C 0,0 km/h (0 Bft)
07.05.2018 03:45 5,2 °C 91 % 1016,0 hPa 0,0 mm 0,0 km/h (0 Bft) S-SO 162 ° 0 min 0,000 mm 0,0 UV-I 0 W/m² 3,9 °C 5,2 °C 0,0 km/h (0 Bft)
07.05.2018 03:46 5,2 °C 91 % 1016,0 hPa 0,0 mm 0,0 km/h (0 Bft) S-SO 162 ° 0 min 0,000 mm 0,0 UV-I 0 W/m² 3,9 °C 5,2 °C 0,0 km/h (0 Bft)
07.05.2018 03:47 5,1 °C 91 % 1016,1 hPa 0,0 mm 0,0 km/h (0 Bft) S-SO 162 ° 0 min 0,000 mm 0,0 UV-I 0 W/m² 3,8 °C 5,1 °C 0,0 km/h (0 Bft)
07.05.2018 03:48 5,2 °C 91 % 1016,0 hPa 0,0 mm 0,0 km/h (0 Bft) S-SO 162 ° 0 min 0,000 mm 0,0 UV-I 0 W/m² 3,9 °C 5,2 °C 0,0 km/h (0 Bft)
07.05.2018 03:49 5,1 °C 91 % 1016,1 hPa 0,0 mm 0,0 km/h (0 Bft) S-SO 162 ° 0 min 0,000 mm 0,0 UV-I 0 W/m² 3,8 °C 5,1 °C 0,0 km/h (0 Bft)
07.05.2018 03:50 5,1 °C 91 % 1016,1 hPa 0,0 mm 0,0 km/h (0 Bft) S-SO 162 ° 0 min 0,000 mm 0,0 UV-I 0 W/m² 3,8 °C 5,1 °C 0,0 km/h (0 Bft)
07.05.2018 03:51 4,9 °C 90 % 1016,1 hPa 0,0 mm 0,0 km/h (0 Bft) S-SO 162 ° 0 min 0,000 mm 0,0 UV-I 0 W/m² 3,4 °C 4,9 °C 0,0 km/h (0 Bft)
07.05.2018 03:52 4,8 °C 90 % 1016,1 hPa 0,0 mm 0,0 km/h (0 Bft) S-SO 162 ° 0 min 0,000 mm 0,0 UV-I 0 W/m² 3,3 °C 4,8 °C 0,0 km/h (0 Bft)
07.05.2018 03:53 4,7 °C 90 % 1016,1 hPa 0,0 mm 0,0 km/h (0 Bft) S-SO 162 ° 0 min 0,000 mm 0,0 UV-I 0 W/m² 3,2 °C 4,7 °C 0,0 km/h (0 Bft)
07.05.2018 03:54 4,6 °C 90 % 1016,1 hPa 0,0 mm 0,0 km/h (0 Bft) S-SO 162 ° 0 min 0,000 mm 0,0 UV-I 0 W/m² 3,1 °C 4,6 °C 0,0 km/h (0 Bft)
07.05.2018 03:55 4,6 °C 90 % 1016,1 hPa 0,0 mm 0,0 km/h (0 Bft) S-SO 162 ° 0 min 0,000 mm 0,0 UV-I 0 W/m² 3,1 °C 4,6 °C 0,0 km/h (0 Bft)
07.05.2018 03:56 4,5 °C 90 % 1016,1 hPa 0,0 mm 0,0 km/h (0 Bft) S-SO 162 ° 0 min 0,000 mm 0,0 UV-I 0 W/m² 3,0 °C 4,5 °C 0,0 km/h (0 Bft)
07.05.2018 03:57 4,5 °C 91 % 1016,1 hPa 0,0 mm 0,0 km/h (0 Bft) S-SO 162 ° 0 min 0,000 mm 0,0 UV-I 0 W/m² 3,2 °C 4,5 °C 0,0 km/h (0 Bft)
07.05.2018 03:58 4,4 °C 91 % 1016,1 hPa 0,0 mm 0,0 km/h (0 Bft) S-SO 162 ° 0 min 0,000 mm 0,0 UV-I 0 W/m² 3,1 °C 4,4 °C 0,0 km/h (0 Bft)
07.05.2018 03:59 4,4 °C 91 % 1016,0 hPa 0,0 mm 0,0 km/h (0 Bft) S-SO 162 ° 0 min 0,000 mm 0,0 UV-I 0 W/m² 3,1 °C 4,4 °C 0,0 km/h (0 Bft)
07.05.2018 04:00 4,4 °C 91 % 1016,1 hPa 0,0 mm 0,0 km/h (0 Bft) S-SO 162 ° 0 min 0,000 mm 0,0 UV-I 0 W/m² 3,1 °C 4,4 °C 0,0 km/h (0 Bft)
07.05.2018 04:01 4,4 °C 91 % 1016,0 hPa 0,0 mm 0,0 km/h (0 Bft) S-SO 162 ° 0 min 0,000 mm 0,0 UV-I 0 W/m² 3,1 °C 4,4 °C 0,0 km/h (0 Bft)
07.05.2018 04:02 4,5 °C 91 % 1016,1 hPa 0,0 mm 0,0 km/h (0 Bft) S-SO 162 ° 0 min 0,000 mm 0,0 UV-I 0 W/m² 3,2 °C 4,5 °C 0,0 km/h (0 Bft)
07.05.2018 04:03 4,5 °C 91 % 1016,0 hPa 0,0 mm 0,0 km/h (0 Bft) S-SO 162 ° 0 min 0,000 mm 0,0 UV-I 0 W/m² 3,2 °C 4,5 °C 0,0 km/h (0 Bft)
07.05.2018 04:04 4,5 °C 91 % 1016,0 hPa 0,0 mm 0,0 km/h (0 Bft) S-SO 162 ° 0 min 0,000 mm 0,0 UV-I 0 W/m² 3,2 °C 4,5 °C 0,0 km/h (0 Bft)
07.05.2018 04:05 4,6 °C 91 % 1016,1 hPa 0,0 mm 0,0 km/h (0 Bft) S-SO 162 ° 0 min 0,000 mm 0,0 UV-I 0 W/m² 3,3 °C 4,6 °C 0,0 km/h (0 Bft)
07.05.2018 04:06 4,6 °C 91 % 1015,9 hPa 0,0 mm 0,0 km/h (0 Bft) S-SO 162 ° 0 min 0,000 mm 0,0 UV-I 0 W/m² 3,3 °C 4,6 °C 0,0 km/h (0 Bft)
07.05.2018 04:07 4,7 °C 91 % 1015,9 hPa 0,0 mm 0,0 km/h (0 Bft) S-SO 162 ° 0 min 0,000 mm 0,0 UV-I 0 W/m² 3,4 °C 4,7 °C 0,0 km/h (0 Bft)
07.05.2018 04:08 4,7 °C 92 % 1016,0 hPa 0,0 mm 0,0 km/h (0 Bft) S-SO 162 ° 0 min 0,000 mm 0,0 UV-I 0 W/m² 3,5 °C 4,7 °C 0,0 km/h (0 Bft)
07.05.2018 04:09 4,7 °C 91 % 1016,0 hPa 0,0 mm 0,0 km/h (0 Bft) S-SO 162 ° 0 min 0,000 mm 0,0 UV-I 0 W/m² 3,4 °C 4,7 °C 0,0 km/h (0 Bft)
07.05.2018 04:10 4,7 °C 91 % 1016,1 hPa 0,0 mm 0,0 km/h (0 Bft) S-SO 162 ° 0 min 0,000 mm 0,0 UV-I 0 W/m² 3,4 °C 4,7 °C 0,0 km/h (0 Bft)
07.05.2018 04:11 4,7 °C 92 % 1016,0 hPa 0,0 mm 0,0 km/h (0 Bft) S-SO 162 ° 0 min 0,000 mm 0,0 UV-I 0 W/m² 3,5 °C 4,7 °C 0,0 km/h (0 Bft)
07.05.2018 04:12 4,7 °C 92 % 1016,0 hPa 0,0 mm 0,0 km/h (0 Bft) S-SO 162 ° 0 min 0,000 mm 0,0 UV-I 0 W/m² 3,5 °C 4,7 °C 0,0 km/h (0 Bft)
07.05.2018 04:13 4,7 °C 92 % 1016,0 hPa 0,0 mm 0,0 km/h (0 Bft) S-SO 162 ° 0 min 0,000 mm 0,0 UV-I 0 W/m² 3,5 °C 4,7 °C 0,0 km/h (0 Bft)
07.05.2018 04:14 4,7 °C 92 % 1015,9 hPa 0,0 mm 0,0 km/h (0 Bft) S-SO 162 ° 0 min 0,000 mm 0,0 UV-I 0 W/m² 3,5 °C 4,7 °C 0,0 km/h (0 Bft)
07.05.2018 04:15 4,7 °C 91 % 1016,0 hPa 0,0 mm 0,0 km/h (0 Bft) S-SO 162 ° 0 min 0,000 mm 0,0 UV-I 0 W/m² 3,4 °C 4,7 °C 0,0 km/h (0 Bft)
07.05.2018 04:16 4,7 °C 91 % 1016,0 hPa 0,0 mm 0,0 km/h (0 Bft) S-SO 162 ° 0 min 0,000 mm 0,0 UV-I 0 W/m² 3,4 °C 4,7 °C 0,0 km/h (0 Bft)
07.05.2018 04:17 4,7 °C 92 % 1016,0 hPa 0,0 mm 0,0 km/h (0 Bft) S-SO 162 ° 0 min 0,000 mm 0,0 UV-I 0 W/m² 3,5 °C 4,7 °C 0,0 km/h (0 Bft)
07.05.2018 04:18 4,7 °C 92 % 1016,0 hPa 0,0 mm 0,0 km/h (0 Bft) S-SO 162 ° 0 min 0,000 mm 0,0 UV-I 0 W/m² 3,5 °C 4,7 °C 0,0 km/h (0 Bft)
07.05.2018 04:19 4,6 °C 91 % 1015,9 hPa 0,0 mm 0,0 km/h (0 Bft) S-SO 162 ° 0 min 0,000 mm 0,0 UV-I 0 W/m² 3,3 °C 4,6 °C 0,0 km/h (0 Bft)
07.05.2018 04:20 4,6 °C 91 % 1015,9 hPa 0,0 mm 0,0 km/h (0 Bft) S-SO 162 ° 0 min 0,000 mm 0,0 UV-I 0 W/m² 3,3 °C 4,6 °C 0,0 km/h (0 Bft)
07.05.2018 04:21 4,6 °C 91 % 1016,0 hPa 0,0 mm 0,0 km/h (0 Bft) S-SO 162 ° 0 min 0,000 mm 0,0 UV-I 0 W/m² 3,3 °C 4,6 °C 0,0 km/h (0 Bft)
07.05.2018 04:22 4,6 °C 91 % 1015,9 hPa 0,0 mm 0,0 km/h (0 Bft) S-SO 162 ° 0 min 0,000 mm 0,0 UV-I 0 W/m² 3,3 °C 4,6 °C 0,0 km/h (0 Bft)
07.05.2018 04:23 4,6 °C 91 % 1015,9 hPa 0,0 mm 0,0 km/h (0 Bft) S-SO 162 ° 0 min 0,000 mm 0,0 UV-I 0 W/m² 3,3 °C 4,6 °C 0,0 km/h (0 Bft)
07.05.2018 04:24 4,5 °C 91 % 1015,9 hPa 0,0 mm 0,0 km/h (0 Bft) S-SO 162 ° 0 min 0,000 mm 0,0 UV-I 0 W/m² 3,2 °C 4,5 °C 0,0 km/h (0 Bft)
07.05.2018 04:25 4,6 °C 91 % 1015,9 hPa 0,0 mm 0,0 km/h (0 Bft) S-SO 162 ° 0 min 0,000 mm 0,0 UV-I 0 W/m² 3,3 °C 4,6 °C 0,0 km/h (0 Bft)
07.05.2018 04:26 4,6 °C 92 % 1015,9 hPa 0,0 mm 0,0 km/h (0 Bft) S-SO 162 ° 0 min 0,000 mm 0,0 UV-I 0 W/m² 3,4 °C 4,6 °C 0,0 km/h (0 Bft)
07.05.2018 04:27 4,6 °C 92 % 1015,9 hPa 0,0 mm 0,0 km/h (0 Bft) S-SO 162 ° 0 min 0,000 mm 0,0 UV-I 0 W/m² 3,4 °C 4,6 °C 0,0 km/h (0 Bft)
07.05.2018 04:28 4,5 °C 91 % 1015,9 hPa 0,0 mm 0,0 km/h (0 Bft) S-SO 162 ° 0 min 0,000 mm 0,0 UV-I 0 W/m² 3,2 °C 4,5 °C 0,0 km/h (0 Bft)
07.05.2018 04:29 4,6 °C 92 % 1015,9 hPa 0,0 mm 0,0 km/h (0 Bft) S-SO 162 ° 0 min 0,000 mm 0,0 UV-I 0 W/m² 3,4 °C 4,6 °C 0,0 km/h (0 Bft)
07.05.2018 04:30 4,5 °C 92 % 1015,9 hPa 0,0 mm 0,0 km/h (0 Bft) S-SO 162 ° 0 min 0,000 mm 0,0 UV-I 0 W/m² 3,3 °C 4,5 °C 0,0 km/h (0 Bft)
07.05.2018 04:31 4,6 °C 92 % 1015,8 hPa 0,0 mm 0,0 km/h (0 Bft) S-SO 162 ° 0 min 0,000 mm 0,0 UV-I 0 W/m² 3,4 °C 4,6 °C 0,0 km/h (0 Bft)
07.05.2018 04:32 4,7 °C 92 % 1015,9 hPa 0,0 mm 0,0 km/h (0 Bft) S-SO 162 ° 0 min 0,000 mm 0,0 UV-I 0 W/m² 3,5 °C 4,7 °C 0,0 km/h (0 Bft)
07.05.2018 04:33 4,6 °C 92 % 1015,9 hPa 0,0 mm 0,0 km/h (0 Bft) S-SO 162 ° 0 min 0,000 mm 0,0 UV-I 0 W/m² 3,4 °C 4,6 °C 0,0 km/h (0 Bft)
07.05.2018 04:34 4,6 °C 91 % 1015,9 hPa 0,0 mm 0,0 km/h (0 Bft) S-SO 162 ° 0 min 0,000 mm 0,0 UV-I 0 W/m² 3,3 °C 4,6 °C 0,0 km/h (0 Bft)
07.05.2018 04:35 4,4 °C 91 % 1015,9 hPa 0,0 mm 0,0 km/h (0 Bft) S-SO 162 ° 0 min 0,000 mm 0,0 UV-I 0 W/m² 3,1 °C 4,4 °C 0,0 km/h (0 Bft)
07.05.2018 04:36 4,4 °C 91 % 1015,9 hPa 0,0 mm 0,0 km/h (0 Bft) S-SO 162 ° 0 min 0,000 mm 0,0 UV-I 0 W/m² 3,1 °C 4,4 °C 0,0 km/h (0 Bft)
07.05.2018 04:37 4,4 °C 91 % 1015,9 hPa 0,0 mm 0,0 km/h (0 Bft) S-SO 162 ° 0 min 0,000 mm 0,0 UV-I 0 W/m² 3,1 °C 4,4 °C 0,0 km/h (0 Bft)
07.05.2018 04:38 4,4 °C 91 % 1015,9 hPa 0,0 mm 0,0 km/h (0 Bft) S-SO 162 ° 0 min 0,000 mm 0,0 UV-I 0 W/m² 3,1 °C 4,4 °C 0,0 km/h (0 Bft)
07.05.2018 04:39 4,4 °C 91 % 1015,8 hPa 0,0 mm 0,0 km/h (0 Bft) S-SO 162 ° 0 min 0,000 mm 0,0 UV-I 0 W/m² 3,1 °C 4,4 °C 0,0 km/h (0 Bft)
07.05.2018 04:40 4,4 °C 91 % 1015,8 hPa 0,0 mm 0,0 km/h (0 Bft) S-SO 162 ° 0 min 0,000 mm 0,0 UV-I 0 W/m² 3,1 °C 4,4 °C 0,0 km/h (0 Bft)
07.05.2018 04:41 4,3 °C 91 % 1015,9 hPa 0,0 mm 0,0 km/h (0 Bft) S-SO 162 ° 0 min 0,000 mm 0,0 UV-I 0 W/m² 3,0 °C 4,3 °C 0,0 km/h (0 Bft)
07.05.2018 04:42 4,3 °C 91 % 1015,9 hPa 0,0 mm 0,0 km/h (0 Bft) S-SO 162 ° 0 min 0,000 mm 0,0 UV-I 0 W/m² 3,0 °C 4,3 °C 0,0 km/h (0 Bft)
07.05.2018 04:43 4,3 °C 91 % 1015,9 hPa 0,0 mm 0,0 km/h (0 Bft) S-SO 162 ° 0 min 0,000 mm 0,0 UV-I 0 W/m² 3,0 °C 4,3 °C 0,0 km/h (0 Bft)
07.05.2018 04:44 4,3 °C 91 % 1015,9 hPa 0,0 mm 0,0 km/h (0 Bft) S-SO 162 ° 0 min 0,000 mm 0,0 UV-I 0 W/m² 3,0 °C 4,3 °C 0,0 km/h (0 Bft)
07.05.2018 04:45 4,5 °C 92 % 1015,9 hPa 0,0 mm 0,0 km/h (0 Bft) S-SO 162 ° 0 min 0,000 mm 0,0 UV-I 0 W/m² 3,3 °C 4,5 °C 0,0 km/h (0 Bft)
07.05.2018 04:46 4,7 °C 92 % 1015,9 hPa 0,0 mm 0,2 km/h (0 Bft) S-SO 162 ° 0 min 0,000 mm 0,0 UV-I 0 W/m² 3,5 °C 4,7 °C 1,6 km/h (1 Bft)
07.05.2018 04:47 4,9 °C 92 % 1015,9 hPa 0,0 mm 0,0 km/h (0 Bft) S-SO 162 ° 0 min 0,000 mm 0,0 UV-I 0 W/m² 3,7 °C 4,9 °C 0,0 km/h (0 Bft)
07.05.2018 04:48 5,1 °C 92 % 1015,9 hPa 0,0 mm 0,3 km/h (0 Bft) S-SO 162 ° 0 min 0,000 mm 0,0 UV-I 0 W/m² 3,9 °C 5,1 °C 1,6 km/h (1 Bft)
07.05.2018 04:49 5,2 °C 92 % 1015,8 hPa 0,0 mm 3,9 km/h (1 Bft) S-SO 162 ° 0 min 0,000 mm 0,0 UV-I 0 W/m² 4,0 °C 5,2 °C 6,4 km/h (2 Bft)
07.05.2018 04:50 5,3 °C 92 % 1015,8 hPa 0,0 mm 1,0 km/h (0 Bft) S-SO 162 ° 0 min 0,000 mm 0,0 UV-I 0 W/m² 4,1 °C 5,3 °C 1,6 km/h (1 Bft)
07.05.2018 04:51 5,3 °C 91 % 1015,8 hPa 0,0 mm 0,0 km/h (0 Bft) S-SO 162 ° 0 min 0,000 mm 0,0 UV-I 0 W/m² 4,0 °C 5,3 °C 0,0 km/h (0 Bft)
07.05.2018 04:52 5,3 °C 91 % 1015,8 hPa 0,0 mm 0,0 km/h (0 Bft) S-SO 162 ° 0 min 0,000 mm 0,0 UV-I 0 W/m² 4,0 °C 5,3 °C 0,0 km/h (0 Bft)
07.05.2018 04:53 5,2 °C 90 % 1015,8 hPa 0,0 mm 0,0 km/h (0 Bft) S-SO 162 ° 0 min 0,000 mm 0,0 UV-I 0 W/m² 3,7 °C 5,2 °C 0,0 km/h (0 Bft)
07.05.2018 04:54 5,1 °C 90 % 1015,9 hPa 0,0 mm 0,0 km/h (0 Bft) S-SO 162 ° 0 min 0,000 mm 0,0 UV-I 0 W/m² 3,6 °C 5,1 °C 0,0 km/h (0 Bft)
07.05.2018 04:55 4,9 °C 90 % 1015,9 hPa 0,0 mm 0,0 km/h (0 Bft) S-SO 162 ° 0 min 0,000 mm 0,0 UV-I 0 W/m² 3,4 °C 4,9 °C 0,0 km/h (0 Bft)
07.05.2018 04:56 4,7 °C 90 % 1015,9 hPa 0,0 mm 0,0 km/h (0 Bft) S-SO 162 ° 0 min 0,000 mm 0,0 UV-I 0 W/m² 3,2 °C 4,7 °C 0,0 km/h (0 Bft)
07.05.2018 04:57 4,6 °C 90 % 1015,9 hPa 0,0 mm 0,0 km/h (0 Bft) S-SO 162 ° 0 min 0,000 mm 0,0 UV-I 0 W/m² 3,1 °C 4,6 °C 0,0 km/h (0 Bft)
07.05.2018 04:58 4,5 °C 90 % 1015,9 hPa 0,0 mm 0,0 km/h (0 Bft) S-SO 162 ° 0 min 0,000 mm 0,0 UV-I 0 W/m² 3,0 °C 4,5 °C 0,0 km/h (0 Bft)
07.05.2018 04:59 4,5 °C 90 % 1015,8 hPa 0,0 mm 0,0 km/h (0 Bft) S-SO 162 ° 0 min 0,000 mm 0,0 UV-I 0 W/m² 3,0 °C 4,5 °C 0,0 km/h (0 Bft)
07.05.2018 05:00 4,4 °C 91 % 1015,8 hPa 0,0 mm 0,0 km/h (0 Bft) S-SO 162 ° 0 min 0,000 mm 0,0 UV-I 0 W/m² 3,1 °C 4,4 °C 0,0 km/h (0 Bft)
07.05.2018 05:01 4,4 °C 91 % 1015,8 hPa 0,0 mm 0,0 km/h (0 Bft) S-SO 162 ° 0 min 0,000 mm 0,0 UV-I 0 W/m² 3,1 °C 4,4 °C 0,0 km/h (0 Bft)
07.05.2018 05:02 4,5 °C 91 % 1015,8 hPa 0,0 mm 0,0 km/h (0 Bft) S-SO 162 ° 0 min 0,000 mm 0,0 UV-I 0 W/m² 3,2 °C 4,5 °C 0,0 km/h (0 Bft)
07.05.2018 05:03 4,6 °C 91 % 1015,8 hPa 0,0 mm 0,0 km/h (0 Bft) S-SO 162 ° 0 min 0,000 mm 0,0 UV-I 0 W/m² 3,3 °C 4,6 °C 0,0 km/h (0 Bft)
07.05.2018 05:04 4,6 °C 91 % 1015,8 hPa 0,0 mm 0,0 km/h (0 Bft) S-SO 162 ° 0 min 0,000 mm 0,0 UV-I 0 W/m² 3,3 °C 4,6 °C 0,0 km/h (0 Bft)
07.05.2018 05:05 4,6 °C 91 % 1015,8 hPa 0,0 mm 0,0 km/h (0 Bft) S-SO 162 ° 0 min 0,000 mm 0,0 UV-I 0 W/m² 3,3 °C 4,6 °C 0,0 km/h (0 Bft)
07.05.2018 05:06 4,7 °C 91 % 1015,9 hPa 0,0 mm 0,0 km/h (0 Bft) S-SO 162 ° 0 min 0,000 mm 0,0 UV-I 0 W/m² 3,4 °C 4,7 °C 0,0 km/h (0 Bft)
07.05.2018 05:07 4,7 °C 91 % 1015,9 hPa 0,0 mm 0,0 km/h (0 Bft) S-SO 162 ° 0 min 0,000 mm 0,0 UV-I 0 W/m² 3,4 °C 4,7 °C 0,0 km/h (0 Bft)
07.05.2018 05:08 4,7 °C 91 % 1015,9 hPa 0,0 mm 0,0 km/h (0 Bft) S-SO 162 ° 0 min 0,000 mm 0,0 UV-I 0 W/m² 3,4 °C 4,7 °C 0,0 km/h (0 Bft)
07.05.2018 05:09 4,7 °C 91 % 1015,9 hPa 0,0 mm 0,0 km/h (0 Bft) S-SO 162 ° 0 min 0,000 mm 0,0 UV-I 0 W/m² 3,4 °C 4,7 °C 0,0 km/h (0 Bft)
07.05.2018 05:10 4,7 °C 91 % 1015,9 hPa 0,0 mm 0,0 km/h (0 Bft) S-SO 162 ° 0 min 0,000 mm 0,0 UV-I 0 W/m² 3,4 °C 4,7 °C 0,0 km/h (0 Bft)
07.05.2018 05:11 4,7 °C 90 % 1015,8 hPa 0,0 mm 0,0 km/h (0 Bft) S-SO 162 ° 0 min 0,000 mm 0,0 UV-I 0 W/m² 3,2 °C 4,7 °C 0,0 km/h (0 Bft)
07.05.2018 05:12 4,7 °C 91 % 1015,8 hPa 0,0 mm 0,0 km/h (0 Bft) S-SO 162 ° 0 min 0,000 mm 0,0 UV-I 0 W/m² 3,4 °C 4,7 °C 0,0 km/h (0 Bft)
07.05.2018 05:13 4,6 °C 90 % 1015,9 hPa 0,0 mm 0,0 km/h (0 Bft) S-SO 162 ° 0 min 0,000 mm 0,0 UV-I 0 W/m² 3,1 °C 4,6 °C 0,0 km/h (0 Bft)
07.05.2018 05:14 4,6 °C 90 % 1015,8 hPa 0,0 mm 0,0 km/h (0 Bft) S-SO 162 ° 0 min 0,000 mm 0,0 UV-I 0 W/m² 3,1 °C 4,6 °C 0,0 km/h (0 Bft)
07.05.2018 05:15 4,5 °C 90 % 1015,9 hPa 0,0 mm 0,0 km/h (0 Bft) S-SO 162 ° 0 min 0,000 mm 0,0 UV-I 0 W/m² 3,0 °C 4,5 °C 0,0 km/h (0 Bft)
07.05.2018 05:16 4,5 °C 91 % 1015,8 hPa 0,0 mm 0,0 km/h (0 Bft) S-SO 162 ° 0 min 0,000 mm 0,0 UV-I 0 W/m² 3,2 °C 4,5 °C 0,0 km/h (0 Bft)
07.05.2018 05:17 4,5 °C 91 % 1015,8 hPa 0,0 mm 0,0 km/h (0 Bft) S-SO 162 ° 0 min 0,000 mm 0,0 UV-I 0 W/m² 3,2 °C 4,5 °C 0,0 km/h (0 Bft)
07.05.2018 05:18 4,5 °C 91 % 1015,8 hPa 0,0 mm 1,0 km/h (0 Bft) S-SO 162 ° 0 min 0,000 mm 0,0 UV-I 0 W/m² 3,2 °C 4,5 °C 3,2 km/h (1 Bft)
07.05.2018 05:19 4,6 °C 91 % 1015,9 hPa 0,0 mm 3,5 km/h (1 Bft) S-SO 162 ° 0 min 0,000 mm 0,0 UV-I 0 W/m² 3,3 °C 4,6 °C 6,4 km/h (2 Bft)
07.05.2018 05:20 4,6 °C 91 % 1015,8 hPa 0,0 mm 5,1 km/h (1 Bft) S-SO 162 ° 0 min 0,000 mm 0,0 UV-I 0 W/m² 3,3 °C 3,6 °C 8,0 km/h (2 Bft)
07.05.2018 05:21 4,6 °C 91 % 1015,8 hPa 0,0 mm 5,4 km/h (1 Bft) S-SO 162 ° 0 min 0,000 mm 0,0 UV-I 0 W/m² 3,3 °C 3,5 °C 6,4 km/h (2 Bft)
07.05.2018 05:22 4,6 °C 91 % 1015,7 hPa 0,0 mm 3,9 km/h (1 Bft) S-SO 162 ° 0 min 0,000 mm 0,0 UV-I 0 W/m² 3,3 °C 4,6 °C 6,4 km/h (2 Bft)
07.05.2018 05:23 4,7 °C 91 % 1015,7 hPa 0,0 mm 2,8 km/h (1 Bft) S-SO 162 ° 0 min 0,000 mm 0,0 UV-I 0 W/m² 3,4 °C 4,7 °C 3,2 km/h (1 Bft)
07.05.2018 05:24 4,7 °C 91 % 1015,8 hPa 0,0 mm 2,4 km/h (1 Bft) S-SO 162 ° 0 min 0,000 mm 0,0 UV-I 0 W/m² 3,4 °C 4,7 °C 3,2 km/h (1 Bft)
07.05.2018 05:25 4,8 °C 91 % 1015,8 hPa 0,0 mm 0,3 km/h (0 Bft) S-SO 162 ° 0 min 0,000 mm 0,0 UV-I 0 W/m² 3,5 °C 4,8 °C 1,6 km/h (1 Bft)
07.05.2018 05:26 4,7 °C 91 % 1015,8 hPa 0,0 mm 0,0 km/h (0 Bft) S-SO 162 ° 0 min 0,000 mm 0,0 UV-I 0 W/m² 3,4 °C 4,7 °C 0,0 km/h (0 Bft)
07.05.2018 05:27 4,7 °C 90 % 1015,8 hPa 0,0 mm 0,0 km/h (0 Bft) S-SO 162 ° 0 min 0,000 mm 0,0 UV-I 0 W/m² 3,2 °C 4,7 °C 0,0 km/h (0 Bft)
07.05.2018 05:28 4,6 °C 90 % 1015,8 hPa 0,0 mm 0,0 km/h (0 Bft) S-SO 162 ° 0 min 0,000 mm 0,0 UV-I 0 W/m² 3,1 °C 4,6 °C 0,0 km/h (0 Bft)
07.05.2018 05:29 4,6 °C 90 % 1015,8 hPa 0,0 mm 0,0 km/h (0 Bft) S-SO 162 ° 0 min 0,000 mm 0,0 UV-I 0 W/m² 3,1 °C 4,6 °C 0,0 km/h (0 Bft)
07.05.2018 05:30 4,5 °C 90 % 1015,8 hPa 0,0 mm 0,0 km/h (0 Bft) S-SO 162 ° 0 min 0,000 mm 0,0 UV-I 0 W/m² 3,0 °C 4,5 °C 0,0 km/h (0 Bft)
07.05.2018 05:31 4,4 °C 90 % 1015,8 hPa 0,0 mm 0,0 km/h (0 Bft) S-SO 162 ° 0 min 0,000 mm 0,0 UV-I 0 W/m² 2,9 °C 4,4 °C 0,0 km/h (0 Bft)
07.05.2018 05:32 4,5 °C 91 % 1015,8 hPa 0,0 mm 0,0 km/h (0 Bft) S-SO 162 ° 0 min 0,000 mm 0,0 UV-I 0 W/m² 3,2 °C 4,5 °C 0,0 km/h (0 Bft)
07.05.2018 05:33 4,5 °C 91 % 1015,8 hPa 0,0 mm 0,0 km/h (0 Bft) S-SO 162 ° 0 min 0,000 mm 0,0 UV-I 0 W/m² 3,2 °C 4,5 °C 0,0 km/h (0 Bft)
07.05.2018 05:34 4,4 °C 91 % 1015,8 hPa 0,0 mm 0,0 km/h (0 Bft) S-SO 162 ° 0 min 0,000 mm 0,0 UV-I 0 W/m² 3,1 °C 4,4 °C 0,0 km/h (0 Bft)
07.05.2018 05:35 4,4 °C 90 % 1015,8 hPa 0,0 mm 0,5 km/h (0 Bft) S-SO 162 ° 0 min 0,000 mm 0,0 UV-I 0 W/m² 2,9 °C 4,4 °C 1,6 km/h (1 Bft)
07.05.2018 05:36 4,4 °C 90 % 1015,8 hPa 0,0 mm 0,3 km/h (0 Bft) S-SO 162 ° 0 min 0,000 mm 0,0 UV-I 0 W/m² 2,9 °C 4,4 °C 1,6 km/h (1 Bft)
07.05.2018 05:37 4,4 °C 90 % 1015,8 hPa 0,0 mm 1,2 km/h (1 Bft) S-SO 162 ° 0 min 0,000 mm 0,0 UV-I 0 W/m² 2,9 °C 4,4 °C 1,6 km/h (1 Bft)
07.05.2018 05:38 4,4 °C 91 % 1015,8 hPa 0,0 mm 1,0 km/h (0 Bft) S-SO 162 ° 0 min 0,000 mm 0,0 UV-I 0 W/m² 3,1 °C 4,4 °C 3,2 km/h (1 Bft)
07.05.2018 05:39 4,4 °C 91 % 1015,8 hPa 0,0 mm 0,2 km/h (0 Bft) S-SO 162 ° 0 min 0,000 mm 0,0 UV-I 0 W/m² 3,1 °C 4,4 °C 1,6 km/h (1 Bft)
07.05.2018 05:40 4,5 °C 91 % 1015,8 hPa 0,0 mm 0,0 km/h (0 Bft) S-SO 162 ° 0 min 0,000 mm 0,0 UV-I 0 W/m² 3,2 °C 4,5 °C 0,0 km/h (0 Bft)
07.05.2018 05:41 4,6 °C 91 % 1015,8 hPa 0,0 mm 1,3 km/h (1 Bft) S-SO 162 ° 0 min 0,000 mm 0,0 UV-I 0 W/m² 3,3 °C 4,6 °C 3,2 km/h (1 Bft)
07.05.2018 05:42 4,7 °C 91 % 1015,8 hPa 0,0 mm 0,8 km/h (0 Bft) S-SO 162 ° 0 min 0,000 mm 0,0 UV-I 0 W/m² 3,4 °C 4,7 °C 1,6 km/h (1 Bft)
07.05.2018 05:43 4,8 °C 91 % 1015,8 hPa 0,0 mm 0,7 km/h (0 Bft) S-SO 162 ° 0 min 0,000 mm 0,0 UV-I 0 W/m² 3,5 °C 4,8 °C 1,6 km/h (1 Bft)
07.05.2018 05:44 4,9 °C 91 % 1015,8 hPa 0,0 mm 0,2 km/h (0 Bft) S-SO 162 ° 0 min 0,000 mm 0,0 UV-I 0 W/m² 3,6 °C 4,9 °C 1,6 km/h (1 Bft)
07.05.2018 05:45 5,0 °C 91 % 1015,7 hPa 0,0 mm 0,3 km/h (0 Bft) S-SO 162 ° 0 min 0,000 mm 0,0 UV-I 0 W/m² 3,7 °C 5,0 °C 1,6 km/h (1 Bft)
07.05.2018 05:46 5,1 °C 90 % 1015,7 hPa 0,0 mm 0,7 km/h (0 Bft) S-SO 162 ° 0 min 0,000 mm 0,0 UV-I 0 W/m² 3,6 °C 5,1 °C 1,6 km/h (1 Bft)
07.05.2018 05:47 5,2 °C 90 % 1015,8 hPa 0,0 mm 2,3 km/h (1 Bft) S-SO 162 ° 0 min 0,000 mm 0,0 UV-I 0 W/m² 3,7 °C 5,2 °C 3,2 km/h (1 Bft)
07.05.2018 05:48 5,2 °C 90 % 1015,7 hPa 0,0 mm 1,0 km/h (0 Bft) S-SO 162 ° 0 min 0,000 mm 0,0 UV-I 5 W/m² 3,7 °C 5,2 °C 3,2 km/h (1 Bft)
07.05.2018 05:49 5,3 °C 90 % 1015,7 hPa 0,0 mm 0,7 km/h (0 Bft) S-SO 162 ° 0 min 0,000 mm 0,0 UV-I 5 W/m² 3,8 °C 5,3 °C 1,6 km/h (1 Bft)
07.05.2018 05:50 5,3 °C 90 % 1015,7 hPa 0,0 mm 0,0 km/h (0 Bft) S-SO 162 ° 0 min 0,000 mm 0,0 UV-I 5 W/m² 3,8 °C 5,3 °C 0,0 km/h (0 Bft)
07.05.2018 05:51 5,2 °C 90 % 1015,7 hPa 0,0 mm 0,9 km/h (0 Bft) S-SO 162 ° 0 min 0,000 mm 0,0 UV-I 5 W/m² 3,7 °C 5,2 °C 3,2 km/h (1 Bft)
07.05.2018 05:52 5,2 °C 89 % 1015,7 hPa 0,0 mm 0,5 km/h (0 Bft) S-SO 162 ° 0 min 0,000 mm 0,0 UV-I 5 W/m² 3,5 °C 5,2 °C 1,6 km/h (1 Bft)
07.05.2018 05:53 5,0 °C 89 % 1015,7 hPa 0,0 mm 0,0 km/h (0 Bft) S-SO 162 ° 0 min 0,000 mm 0,0 UV-I 7 W/m² 3,3 °C 5,0 °C 0,0 km/h (0 Bft)
07.05.2018 05:54 4,8 °C 89 % 1015,7 hPa 0,0 mm 0,0 km/h (0 Bft) S-SO 162 ° 0 min 0,000 mm 0,0 UV-I 7 W/m² 3,1 °C 4,8 °C 0,0 km/h (0 Bft)
07.05.2018 05:55 4,7 °C 89 % 1015,7 hPa 0,0 mm 0,0 km/h (0 Bft) S-SO 162 ° 0 min 0,000 mm 0,0 UV-I 9 W/m² 3,0 °C 4,7 °C 0,0 km/h (0 Bft)
07.05.2018 05:56 4,7 °C 90 % 1015,7 hPa 0,0 mm 0,0 km/h (0 Bft) S-SO 162 ° 0 min 0,000 mm 0,0 UV-I 9 W/m² 3,2 °C 4,7 °C 0,0 km/h (0 Bft)
07.05.2018 05:57 4,6 °C 90 % 1015,7 hPa 0,0 mm 0,0 km/h (0 Bft) S-SO 162 ° 0 min 0,000 mm 0,0 UV-I 9 W/m² 3,1 °C 4,6 °C 0,0 km/h (0 Bft)
07.05.2018 05:58 4,6 °C 90 % 1015,7 hPa 0,0 mm 0,0 km/h (0 Bft) S-SO 162 ° 0 min 0,000 mm 0,0 UV-I 11 W/m² 3,1 °C 4,6 °C 0,0 km/h (0 Bft)
07.05.2018 05:59 4,4 °C 90 % 1015,6 hPa 0,0 mm 0,0 km/h (0 Bft) S-SO 162 ° 0 min 0,000 mm 0,0 UV-I 11 W/m² 2,9 °C 4,4 °C 0,0 km/h (0 Bft)
07.05.2018 06:00 4,4 °C 90 % 1015,6 hPa 0,0 mm 0,0 km/h (0 Bft) S-SO 162 ° 0 min 0,000 mm 0,0 UV-I 11 W/m² 2,9 °C 4,4 °C 0,0 km/h (0 Bft)
07.05.2018 06:01 4,3 °C 90 % 1015,6 hPa 0,0 mm 0,0 km/h (0 Bft) S-SO 162 ° 0 min 0,000 mm 0,0 UV-I 12 W/m² 2,8 °C 4,3 °C 0,0 km/h (0 Bft)
07.05.2018 06:02 4,3 °C 90 % 1015,6 hPa 0,0 mm 0,1 km/h (0 Bft) SW 228 ° 0 min 0,000 mm 0,0 UV-I 12 W/m² 2,8 °C 4,3 °C 1,6 km/h (1 Bft)
07.05.2018 06:03 4,3 °C 90 % 1015,6 hPa 0,0 mm 0,0 km/h (0 Bft) SW 228 ° 0 min 0,000 mm 0,0 UV-I 12 W/m² 2,8 °C 4,3 °C 0,0 km/h (0 Bft)
07.05.2018 06:04 4,3 °C 91 % 1015,6 hPa 0,0 mm 0,0 km/h (0 Bft) SW 228 ° 0 min 0,000 mm 0,0 UV-I 14 W/m² 3,0 °C 4,3 °C 0,0 km/h (0 Bft)
07.05.2018 06:05 4,3 °C 91 % 1015,6 hPa 0,0 mm 0,0 km/h (0 Bft) SW 228 ° 0 min 0,000 mm 0,0 UV-I 14 W/m² 3,0 °C 4,3 °C 0,0 km/h (0 Bft)
07.05.2018 06:06 4,4 °C 91 % 1015,5 hPa 0,0 mm 0,0 km/h (0 Bft) SW 228 ° 0 min 0,000 mm 0,0 UV-I 16 W/m² 3,1 °C 4,4 °C 0,0 km/h (0 Bft)
07.05.2018 06:07 4,4 °C 91 % 1015,5 hPa 0,0 mm 0,0 km/h (0 Bft) SW 228 ° 0 min 0,000 mm 0,0 UV-I 16 W/m² 3,1 °C 4,4 °C 0,0 km/h (0 Bft)
07.05.2018 06:08 4,4 °C 91 % 1015,5 hPa 0,0 mm 0,0 km/h (0 Bft) SW 228 ° 0 min 0,000 mm 0,0 UV-I 16 W/m² 3,1 °C 4,4 °C 0,0 km/h (0 Bft)
07.05.2018 06:09 4,4 °C 91 % 1015,6 hPa 0,0 mm 0,0 km/h (0 Bft) SW 228 ° 0 min 0,000 mm 0,0 UV-I 18 W/m² 3,1 °C 4,4 °C 0,0 km/h (0 Bft)
07.05.2018 06:10 4,4 °C 91 % 1015,6 hPa 0,0 mm 0,0 km/h (0 Bft) SW 228 ° 0 min 0,000 mm 0,0 UV-I 18 W/m² 3,1 °C 4,4 °C 0,0 km/h (0 Bft)
07.05.2018 06:11 4,4 °C 91 % 1015,6 hPa 0,0 mm 0,0 km/h (0 Bft) SW 228 ° 0 min 0,000 mm 0,0 UV-I 19 W/m² 3,1 °C 4,4 °C 0,0 km/h (0 Bft)
07.05.2018 06:12 4,4 °C 91 % 1015,6 hPa 0,0 mm 0,0 km/h (0 Bft) SW 228 ° 0 min 0,000 mm 0,0 UV-I 19 W/m² 3,1 °C 4,4 °C 0,0 km/h (0 Bft)
07.05.2018 06:13 4,4 °C 91 % 1015,6 hPa 0,0 mm 0,0 km/h (0 Bft) SW 228 ° 0 min 0,000 mm 0,0 UV-I 19 W/m² 3,1 °C 4,4 °C 0,0 km/h (0 Bft)
07.05.2018 06:14 4,4 °C 91 % 1015,6 hPa 0,0 mm 0,0 km/h (0 Bft) SW 228 ° 0 min 0,000 mm 0,0 UV-I 19 W/m² 3,1 °C 4,4 °C 0,0 km/h (0 Bft)
07.05.2018 06:15 4,4 °C 91 % 1015,6 hPa 0,0 mm 0,0 km/h (0 Bft) SW 228 ° 0 min 0,000 mm 0,0 UV-I 19 W/m² 3,1 °C 4,4 °C 0,0 km/h (0 Bft)
07.05.2018 06:16 4,4 °C 91 % 1015,6 hPa 0,0 mm 0,0 km/h (0 Bft) SW 228 ° 0 min 0,000 mm 0,0 UV-I 21 W/m² 3,1 °C 4,4 °C 0,0 km/h (0 Bft)
07.05.2018 06:17 4,4 °C 91 % 1015,6 hPa 0,0 mm 0,0 km/h (0 Bft) SW 228 ° 0 min 0,000 mm 0,0 UV-I 21 W/m² 3,1 °C 4,4 °C 0,0 km/h (0 Bft)
07.05.2018 06:18 4,4 °C 91 % 1015,6 hPa 0,0 mm 0,0 km/h (0 Bft) SW 228 ° 0 min 0,000 mm 0,0 UV-I 21 W/m² 3,1 °C 4,4 °C 0,0 km/h (0 Bft)
07.05.2018 06:19 4,5 °C 91 % 1015,6 hPa 0,0 mm 0,6 km/h (0 Bft) SW 228 ° 0 min 0,000 mm 0,0 UV-I 21 W/m² 3,2 °C 4,5 °C 1,6 km/h (1 Bft)
07.05.2018 06:20 4,6 °C 91 % 1015,6 hPa 0,0 mm 0,0 km/h (0 Bft) SW 228 ° 0 min 0,000 mm 0,0 UV-I 23 W/m² 3,3 °C 4,6 °C 0,0 km/h (0 Bft)
07.05.2018 06:21 4,5 °C 91 % 1015,6 hPa 0,0 mm 0,0 km/h (0 Bft) SW 228 ° 0 min 0,000 mm 0,0 UV-I 23 W/m² 3,2 °C 4,5 °C 0,0 km/h (0 Bft)
07.05.2018 06:22 4,3 °C 91 % 1015,6 hPa 0,0 mm 0,0 km/h (0 Bft) SW 228 ° 0 min 0,000 mm 0,0 UV-I 23 W/m² 3,0 °C 4,3 °C 0,0 km/h (0 Bft)
07.05.2018 06:23 4,3 °C 91 % 1015,6 hPa 0,0 mm 0,0 km/h (0 Bft) SW 228 ° 0 min 0,000 mm 0,0 UV-I 25 W/m² 3,0 °C 4,3 °C 0,0 km/h (0 Bft)
07.05.2018 06:24 4,2 °C 91 % 1015,6 hPa 0,0 mm 0,0 km/h (0 Bft) SW 228 ° 0 min 0,000 mm 0,0 UV-I 25 W/m² 2,9 °C 4,2 °C 0,0 km/h (0 Bft)
07.05.2018 06:25 4,2 °C 91 % 1015,7 hPa 0,0 mm 0,0 km/h (0 Bft) SW 228 ° 0 min 0,000 mm 0,0 UV-I 25 W/m² 2,9 °C 4,2 °C 0,0 km/h (0 Bft)
07.05.2018 06:26 4,2 °C 91 % 1015,6 hPa 0,0 mm 0,0 km/h (0 Bft) SW 228 ° 0 min 0,000 mm 0,0 UV-I 26 W/m² 2,9 °C 4,2 °C 0,0 km/h (0 Bft)
07.05.2018 06:27 4,2 °C 91 % 1015,6 hPa 0,0 mm 0,0 km/h (0 Bft) SW 228 ° 0 min 0,000 mm 0,0 UV-I 26 W/m² 2,9 °C 4,2 °C 0,0 km/h (0 Bft)
07.05.2018 06:28 4,2 °C 91 % 1015,6 hPa 0,0 mm 0,0 km/h (0 Bft) SW 228 ° 0 min 0,000 mm 0,0 UV-I 26 W/m² 2,9 °C 4,2 °C 0,0 km/h (0 Bft)
07.05.2018 06:29 4,2 °C 91 % 1015,6 hPa 0,0 mm 0,0 km/h (0 Bft) SW 228 ° 0 min 0,000 mm 0,0 UV-I 28 W/m² 2,9 °C 4,2 °C 0,0 km/h (0 Bft)
07.05.2018 06:30 4,2 °C 91 % 1015,6 hPa 0,0 mm 0,0 km/h (0 Bft) SW 228 ° 0 min 0,000 mm 0,0 UV-I 28 W/m² 2,9 °C 4,2 °C 0,0 km/h (0 Bft)
07.05.2018 06:31 4,3 °C 92 % 1015,7 hPa 0,0 mm 0,0 km/h (0 Bft) SW 228 ° 0 min 0,000 mm 0,0 UV-I 30 W/m² 3,1 °C 4,3 °C 0,0 km/h (0 Bft)
07.05.2018 06:32 4,3 °C 92 % 1015,6 hPa 0,0 mm 0,0 km/h (0 Bft) SW 228 ° 0 min 0,000 mm 0,0 UV-I 30 W/m² 3,1 °C 4,3 °C 0,0 km/h (0 Bft)
07.05.2018 06:33 4,3 °C 92 % 1015,7 hPa 0,0 mm 0,0 km/h (0 Bft) SW 228 ° 0 min 0,000 mm 0,0 UV-I 33 W/m² 3,1 °C 4,3 °C 0,0 km/h (0 Bft)
07.05.2018 06:34 4,3 °C 92 % 1015,7 hPa 0,0 mm 0,0 km/h (0 Bft) SW 228 ° 0 min 0,000 mm 0,0 UV-I 39 W/m² 3,1 °C 4,3 °C 0,0 km/h (0 Bft)
07.05.2018 06:35 4,4 °C 92 % 1015,6 hPa 0,0 mm 0,0 km/h (0 Bft) SW 228 ° 0 min 0,000 mm 0,0 UV-I 42 W/m² 3,2 °C 4,4 °C 0,0 km/h (0 Bft)
07.05.2018 06:36 4,4 °C 92 % 1015,7 hPa 0,0 mm 0,0 km/h (0 Bft) SW 228 ° 0 min 0,000 mm 0,0 UV-I 44 W/m² 3,2 °C 4,4 °C 0,0 km/h (0 Bft)
07.05.2018 06:37 4,4 °C 92 % 1015,7 hPa 0,0 mm 0,0 km/h (0 Bft) SW 228 ° 0 min 0,000 mm 0,0 UV-I 44 W/m² 3,2 °C 4,4 °C 0,0 km/h (0 Bft)
07.05.2018 06:38 4,4 °C 92 % 1015,7 hPa 0,0 mm 0,0 km/h (0 Bft) SW 228 ° 0 min 0,000 mm 0,0 UV-I 40 W/m² 3,2 °C 4,4 °C 0,0 km/h (0 Bft)
07.05.2018 06:39 4,4 °C 92 % 1015,8 hPa 0,0 mm 0,0 km/h (0 Bft) SW 228 ° 0 min 0,000 mm 0,0 UV-I 39 W/m² 3,2 °C 4,4 °C 0,0 km/h (0 Bft)
07.05.2018 06:40 4,5 °C 92 % 1015,8 hPa 0,0 mm 0,0 km/h (0 Bft) SW 228 ° 0 min 0,000 mm 0,0 UV-I 40 W/m² 3,3 °C 4,5 °C 0,0 km/h (0 Bft)
07.05.2018 06:41 4,5 °C 92 % 1015,8 hPa 0,0 mm 0,0 km/h (0 Bft) SW 228 ° 0 min 0,000 mm 0,0 UV-I 39 W/m² 3,3 °C 4,5 °C 0,0 km/h (0 Bft)
07.05.2018 06:42 4,6 °C 92 % 1015,8 hPa 0,0 mm 0,0 km/h (0 Bft) SW 228 ° 0 min 0,000 mm 0,0 UV-I 37 W/m² 3,4 °C 4,6 °C 0,0 km/h (0 Bft)
07.05.2018 06:43 4,7 °C 92 % 1015,8 hPa 0,0 mm 0,0 km/h (0 Bft) SW 228 ° 0 min 0,000 mm 0,0 UV-I 37 W/m² 3,5 °C 4,7 °C 0,0 km/h (0 Bft)
07.05.2018 06:44 4,7 °C 92 % 1015,8 hPa 0,0 mm 0,0 km/h (0 Bft) SW 228 ° 0 min 0,000 mm 0,0 UV-I 37 W/m² 3,5 °C 4,7 °C 0,0 km/h (0 Bft)
07.05.2018 06:45 4,8 °C 92 % 1015,8 hPa 0,0 mm 0,0 km/h (0 Bft) SW 228 ° 0 min 0,000 mm 0,0 UV-I 40 W/m² 3,6 °C 4,8 °C 0,0 km/h (0 Bft)
07.05.2018 06:46 5,0 °C 92 % 1015,8 hPa 0,0 mm 0,0 km/h (0 Bft) SW 228 ° 0 min 0,000 mm 0,0 UV-I 40 W/m² 3,8 °C 5,0 °C 0,0 km/h (0 Bft)
07.05.2018 06:47 5,1 °C 92 % 1015,8 hPa 0,0 mm 0,0 km/h (0 Bft) SW 228 ° 0 min 0,000 mm 0,0 UV-I 42 W/m² 3,9 °C 5,1 °C 0,0 km/h (0 Bft)
07.05.2018 06:48 5,2 °C 92 % 1015,8 hPa 0,0 mm 0,0 km/h (0 Bft) SW 228 ° 0 min 0,000 mm 0,0 UV-I 44 W/m² 4,0 °C 5,2 °C 0,0 km/h (0 Bft)
07.05.2018 06:49 5,3 °C 92 % 1015,8 hPa 0,0 mm 0,0 km/h (0 Bft) SW 228 ° 0 min 0,000 mm 0,0 UV-I 42 W/m² 4,1 °C 5,3 °C 0,0 km/h (0 Bft)
07.05.2018 06:50 5,3 °C 92 % 1015,8 hPa 0,0 mm 0,0 km/h (0 Bft) SW 228 ° 0 min 0,000 mm 0,0 UV-I 42 W/m² 4,1 °C 5,3 °C 0,0 km/h (0 Bft)
07.05.2018 06:51 5,4 °C 92 % 1015,7 hPa 0,0 mm 0,0 km/h (0 Bft) SW 228 ° 0 min 0,000 mm 0,0 UV-I 47 W/m² 4,2 °C 5,4 °C 0,0 km/h (0 Bft)
07.05.2018 06:52 5,5 °C 92 % 1015,8 hPa 0,0 mm 0,0 km/h (0 Bft) SW 228 ° 0 min 0,000 mm 0,0 UV-I 65 W/m² 4,3 °C 5,5 °C 0,0 km/h (0 Bft)
07.05.2018 06:53 5,6 °C 92 % 1015,8 hPa 0,0 mm 0,0 km/h (0 Bft) SW 228 ° 0 min 0,000 mm 0,0 UV-I 76 W/m² 4,4 °C 5,6 °C 0,0 km/h (0 Bft)
07.05.2018 06:54 5,6 °C 92 % 1015,8 hPa 0,0 mm 0,0 km/h (0 Bft) SW 228 ° 0 min 0,000 mm 0,0 UV-I 70 W/m² 4,4 °C 5,6 °C 0,0 km/h (0 Bft)
07.05.2018 06:55 5,6 °C 92 % 1015,8 hPa 0,0 mm 0,0 km/h (0 Bft) SW 228 ° 0 min 0,000 mm 0,0 UV-I 69 W/m² 4,4 °C 5,6 °C 0,0 km/h (0 Bft)
07.05.2018 06:56 5,4 °C 91 % 1015,8 hPa 0,0 mm 0,0 km/h (0 Bft) SW 228 ° 0 min 0,000 mm 0,0 UV-I 76 W/m² 4,1 °C 5,4 °C 0,0 km/h (0 Bft)
07.05.2018 06:57 5,4 °C 91 % 1015,8 hPa 0,0 mm 0,0 km/h (0 Bft) SW 228 ° 0 min 0,000 mm 0,0 UV-I 90 W/m² 4,1 °C 5,4 °C 0,0 km/h (0 Bft)
07.05.2018 06:58 5,4 °C 91 % 1015,8 hPa 0,0 mm 0,0 km/h (0 Bft) SW 228 ° 0 min 0,000 mm 0,0 UV-I 90 W/m² 4,1 °C 5,4 °C 0,0 km/h (0 Bft)
07.05.2018 06:59 5,4 °C 91 % 1015,8 hPa 0,0 mm 0,0 km/h (0 Bft) SW 228 ° 0 min 0,000 mm 0,0 UV-I 91 W/m² 4,1 °C 5,4 °C 0,0 km/h (0 Bft)
07.05.2018 07:00 5,4 °C 92 % 1015,8 hPa 0,0 mm 0,0 km/h (0 Bft) SW 228 ° 0 min 0,000 mm 0,0 UV-I 95 W/m² 4,2 °C 5,4 °C 0,0 km/h (0 Bft)
07.05.2018 07:01 5,4 °C 92 % 1015,8 hPa 0,0 mm 0,0 km/h (0 Bft) SW 228 ° 0 min 0,025 mm 0,0 UV-I 98 W/m² 4,2 °C 5,4 °C 0,0 km/h (0 Bft)
07.05.2018 07:02 5,4 °C 92 % 1015,8 hPa 0,0 mm 0,0 km/h (0 Bft) SW 228 ° 0 min 0,000 mm 0,0 UV-I 100 W/m² 4,2 °C 5,4 °C 0,0 km/h (0 Bft)
07.05.2018 07:03 5,5 °C 92 % 1015,8 hPa 0,0 mm 0,0 km/h (0 Bft) SW 228 ° 0 min 0,000 mm 0,0 UV-I 93 W/m² 4,3 °C 5,5 °C 0,0 km/h (0 Bft)
07.05.2018 07:04 5,5 °C 92 % 1015,7 hPa 0,0 mm 0,0 km/h (0 Bft) SW 228 ° 0 min 0,000 mm 0,0 UV-I 83 W/m² 4,3 °C 5,5 °C 0,0 km/h (0 Bft)
07.05.2018 07:05 5,5 °C 92 % 1015,8 hPa 0,0 mm 0,0 km/h (0 Bft) SW 228 ° 0 min 0,000 mm 0,0 UV-I 88 W/m² 4,3 °C 5,5 °C 0,0 km/h (0 Bft)
07.05.2018 07:06 5,6 °C 92 % 1015,8 hPa 0,0 mm 0,0 km/h (0 Bft) SW 228 ° 0 min 0,000 mm 0,0 UV-I 104 W/m² 4,4 °C 5,6 °C 0,0 km/h (0 Bft)
07.05.2018 07:07 5,6 °C 92 % 1015,8 hPa 0,0 mm 0,0 km/h (0 Bft) SW 228 ° 0 min 0,000 mm 0,0 UV-I 104 W/m² 4,4 °C 5,6 °C 0,0 km/h (0 Bft)
07.05.2018 07:08 5,6 °C 92 % 1015,8 hPa 0,0 mm 0,0 km/h (0 Bft) SW 228 ° 0 min 0,000 mm 0,0 UV-I 65 W/m² 4,4 °C 5,6 °C 0,0 km/h (0 Bft)
07.05.2018 07:09 5,7 °C 92 % 1015,8 hPa 0,0 mm 0,0 km/h (0 Bft) SW 228 ° 0 min 0,000 mm 0,0 UV-I 54 W/m² 4,5 °C 5,7 °C 0,0 km/h (0 Bft)
07.05.2018 07:10 5,7 °C 91 % 1015,9 hPa 0,0 mm 0,0 km/h (0 Bft) SW 228 ° 0 min 0,000 mm 0,0 UV-I 51 W/m² 4,3 °C 5,7 °C 0,0 km/h (0 Bft)
07.05.2018 07:11 5,8 °C 91 % 1015,9 hPa 0,0 mm 0,0 km/h (0 Bft) SW 228 ° 0 min 0,000 mm 0,0 UV-I 46 W/m² 4,4 °C 5,8 °C 0,0 km/h (0 Bft)
07.05.2018 07:12 5,8 °C 92 % 1015,8 hPa 0,0 mm 0,0 km/h (0 Bft) SW 228 ° 0 min 0,000 mm 0,0 UV-I 46 W/m² 4,6 °C 5,8 °C 0,0 km/h (0 Bft)
07.05.2018 07:13 5,9 °C 91 % 1015,8 hPa 0,0 mm 0,0 km/h (0 Bft) SW 228 ° 0 min 0,000 mm 0,0 UV-I 46 W/m² 4,5 °C 5,9 °C 0,0 km/h (0 Bft)
07.05.2018 07:14 5,9 °C 91 % 1015,9 hPa 0,0 mm 0,0 km/h (0 Bft) SW 228 ° 0 min 0,000 mm 0,0 UV-I 46 W/m² 4,5 °C 5,9 °C 0,0 km/h (0 Bft)
07.05.2018 07:15 5,8 °C 91 % 1015,9 hPa 0,0 mm 0,0 km/h (0 Bft) SW 228 ° 0 min 0,000 mm 0,0 UV-I 47 W/m² 4,4 °C 5,8 °C 0,0 km/h (0 Bft)
07.05.2018 07:16 5,8 °C 91 % 1015,9 hPa 0,0 mm 0,0 km/h (0 Bft) SW 228 ° 0 min 0,000 mm 0,0 UV-I 49 W/m² 4,4 °C 5,8 °C 0,0 km/h (0 Bft)
07.05.2018 07:17 5,9 °C 91 % 1015,9 hPa 0,0 mm 0,0 km/h (0 Bft) SW 228 ° 0 min 0,000 mm 0,0 UV-I 49 W/m² 4,5 °C 5,9 °C 0,0 km/h (0 Bft)
07.05.2018 07:18 5,9 °C 91 % 1015,9 hPa 0,0 mm 0,0 km/h (0 Bft) SW 228 ° 0 min 0,000 mm 0,0 UV-I 49 W/m² 4,5 °C 5,9 °C 0,0 km/h (0 Bft)
07.05.2018 07:19 6,0 °C 91 % 1016,0 hPa 0,0 mm 0,0 km/h (0 Bft) SW 228 ° 0 min 0,000 mm 0,0 UV-I 49 W/m² 4,6 °C 6,0 °C 0,0 km/h (0 Bft)
07.05.2018 07:20 6,1 °C 91 % 1015,9 hPa 0,0 mm 0,0 km/h (0 Bft) SW 228 ° 0 min 0,000 mm 0,0 UV-I 51 W/m² 4,7 °C 6,1 °C 0,0 km/h (0 Bft)
07.05.2018 07:21 6,2 °C 91 % 1015,9 hPa 0,0 mm 0,0 km/h (0 Bft) SW 228 ° 0 min 0,000 mm 0,0 UV-I 49 W/m² 4,8 °C 6,2 °C 0,0 km/h (0 Bft)
07.05.2018 07:22 6,3 °C 92 % 1015,9 hPa 0,0 mm 0,0 km/h (0 Bft) SW 228 ° 0 min 0,000 mm 0,0 UV-I 49 W/m² 5,1 °C 6,3 °C 0,0 km/h (0 Bft)
07.05.2018 07:23 6,4 °C 91 % 1015,9 hPa 0,0 mm 0,0 km/h (0 Bft) SW 228 ° 0 min 0,000 mm 0,0 UV-I 53 W/m² 5,0 °C 6,4 °C 0,0 km/h (0 Bft)
07.05.2018 07:24 6,7 °C 92 % 1015,9 hPa 0,0 mm 0,0 km/h (0 Bft) SW 228 ° 0 min 0,000 mm 0,6 UV-I 65 W/m² 5,5 °C 6,7 °C 0,0 km/h (0 Bft)
07.05.2018 07:25 6,8 °C 91 % 1015,9 hPa 0,0 mm 0,0 km/h (0 Bft) SW 228 ° 0 min 0,000 mm 0,6 UV-I 90 W/m² 5,4 °C 6,8 °C 0,0 km/h (0 Bft)
07.05.2018 07:26 6,8 °C 91 % 1015,9 hPa 0,0 mm 0,0 km/h (0 Bft) SW 228 ° 0 min 0,000 mm 0,6 UV-I 116 W/m² 5,4 °C 6,8 °C 0,0 km/h (0 Bft)
07.05.2018 07:27 6,9 °C 91 % 1015,9 hPa 0,0 mm 0,0 km/h (0 Bft) SW 228 ° 0 min 0,000 mm 0,6 UV-I 123 W/m² 5,5 °C 6,9 °C 0,0 km/h (0 Bft)
07.05.2018 07:28 7,0 °C 91 % 1015,9 hPa 0,0 mm 0,0 km/h (0 Bft) SW 228 ° 0 min 0,000 mm 0,7 UV-I 123 W/m² 5,6 °C 7,0 °C 0,0 km/h (0 Bft)
07.05.2018 07:29 7,0 °C 91 % 1015,9 hPa 0,0 mm 0,0 km/h (0 Bft) SW 228 ° 0 min 0,000 mm 0,7 UV-I 123 W/m² 5,6 °C 7,0 °C 0,0 km/h (0 Bft)
07.05.2018 07:30 7,1 °C 90 % 1015,9 hPa 0,0 mm 0,0 km/h (0 Bft) SW 228 ° 0 min 0,000 mm 0,7 UV-I 125 W/m² 5,6 °C 7,1 °C 0,0 km/h (0 Bft)
07.05.2018 07:31 7,1 °C 90 % 1015,9 hPa 0,0 mm 0,0 km/h (0 Bft) SW 228 ° 0 min 0,000 mm 0,7 UV-I 127 W/m² 5,6 °C 7,1 °C 0,0 km/h (0 Bft)
07.05.2018 07:32 7,1 °C 90 % 1015,9 hPa 0,0 mm 0,0 km/h (0 Bft) SW 228 ° 0 min 0,000 mm 0,7 UV-I 128 W/m² 5,6 °C 7,1 °C 0,0 km/h (0 Bft)
07.05.2018 07:33 7,2 °C 90 % 1015,9 hPa 0,0 mm 0,0 km/h (0 Bft) SW 228 ° 0 min 0,000 mm 0,7 UV-I 135 W/m² 5,7 °C 7,2 °C 0,0 km/h (0 Bft)
07.05.2018 07:34 7,2 °C 90 % 1015,9 hPa 0,0 mm 0,0 km/h (0 Bft) SW 228 ° 0 min 0,000 mm 0,7 UV-I 139 W/m² 5,7 °C 7,2 °C 0,0 km/h (0 Bft)
07.05.2018 07:35 7,3 °C 90 % 1015,9 hPa 0,0 mm 0,0 km/h (0 Bft) SW 228 ° 0 min 0,000 mm 0,8 UV-I 142 W/m² 5,8 °C 7,3 °C 0,0 km/h (0 Bft)
07.05.2018 07:36 7,5 °C 90 % 1015,9 hPa 0,0 mm 0,0 km/h (0 Bft) SW 228 ° 0 min 0,000 mm 0,8 UV-I 146 W/m² 6,0 °C 7,5 °C 0,0 km/h (0 Bft)
07.05.2018 07:37 7,6 °C 90 % 1015,8 hPa 0,0 mm 0,0 km/h (0 Bft) SW 228 ° 0 min 0,000 mm 0,8 UV-I 149 W/m² 6,1 °C 7,6 °C 0,0 km/h (0 Bft)
07.05.2018 07:38 7,7 °C 90 % 1015,9 hPa 0,0 mm 0,0 km/h (0 Bft) SW 228 ° 0 min 0,000 mm 0,8 UV-I 158 W/m² 6,2 °C 7,7 °C 0,0 km/h (0 Bft)
07.05.2018 07:39 7,8 °C 90 % 1015,9 hPa 0,0 mm 0,0 km/h (0 Bft) SW 228 ° 0 min 0,000 mm 0,8 UV-I 162 W/m² 6,3 °C 7,8 °C 0,0 km/h (0 Bft)
07.05.2018 07:40 7,8 °C 90 % 1015,8 hPa 0,0 mm 0,0 km/h (0 Bft) SW 228 ° 0 min 0,000 mm 0,8 UV-I 165 W/m² 6,3 °C 7,8 °C 0,0 km/h (0 Bft)
07.05.2018 07:41 7,9 °C 90 % 1015,9 hPa 0,0 mm 0,0 km/h (0 Bft) SW 228 ° 0 min 0,000 mm 0,8 UV-I 171 W/m² 6,4 °C 7,9 °C 0,0 km/h (0 Bft)
07.05.2018 07:42 8,1 °C 89 % 1015,9 hPa 0,0 mm 0,0 km/h (0 Bft) SW 228 ° 0 min 0,000 mm 0,8 UV-I 174 W/m² 6,4 °C 8,1 °C 0,0 km/h (0 Bft)
07.05.2018 07:43 8,1 °C 89 % 1015,9 hPa 0,0 mm 0,0 km/h (0 Bft) SW 228 ° 0 min 0,000 mm 0,9 UV-I 179 W/m² 6,4 °C 8,1 °C 0,0 km/h (0 Bft)
07.05.2018 07:44 8,2 °C 89 % 1015,9 hPa 0,0 mm 0,0 km/h (0 Bft) SW 228 ° 0 min 0,000 mm 0,9 UV-I 188 W/m² 6,5 °C 8,2 °C 0,0 km/h (0 Bft)
07.05.2018 07:45 8,2 °C 88 % 1015,8 hPa 0,0 mm 0,0 km/h (0 Bft) SW 228 ° 0 min 0,000 mm 0,9 UV-I 193 W/m² 6,3 °C 8,2 °C 0,0 km/h (0 Bft)
07.05.2018 07:46 8,2 °C 89 % 1015,8 hPa 0,0 mm 0,0 km/h (0 Bft) SW 228 ° 0 min 0,000 mm 0,9 UV-I 197 W/m² 6,5 °C 8,2 °C 0,0 km/h (0 Bft)
07.05.2018 07:47 8,3 °C 88 % 1015,8 hPa 0,0 mm 0,0 km/h (0 Bft) SW 228 ° 0 min 0,000 mm 0,9 UV-I 200 W/m² 6,4 °C 8,3 °C 0,0 km/h (0 Bft)
07.05.2018 07:48 8,4 °C 88 % 1015,8 hPa 0,0 mm 0,0 km/h (0 Bft) SW 228 ° 0 min 0,000 mm 0,9 UV-I 204 W/m² 6,5 °C 8,4 °C 0,0 km/h (0 Bft)
07.05.2018 07:49 8,5 °C 88 % 1015,8 hPa 0,0 mm 0,0 km/h (0 Bft) SW 228 ° 0 min 0,000 mm 1,0 UV-I 209 W/m² 6,6 °C 8,5 °C 0,0 km/h (0 Bft)
07.05.2018 07:50 8,7 °C 88 % 1015,8 hPa 0,0 mm 0,0 km/h (0 Bft) SW 228 ° 0 min 0,000 mm 1,0 UV-I 216 W/m² 6,8 °C 8,7 °C 0,0 km/h (0 Bft)
07.05.2018 07:51 8,9 °C 88 % 1015,8 hPa 0,0 mm 0,0 km/h (0 Bft) SW 228 ° 0 min 0,000 mm 1,0 UV-I 220 W/m² 7,0 °C 8,9 °C 0,0 km/h (0 Bft)
07.05.2018 07:52 9,0 °C 87 % 1015,7 hPa 0,0 mm 0,0 km/h (0 Bft) SW 228 ° 0 min 0,000 mm 1,0 UV-I 223 W/m² 7,0 °C 9,0 °C 0,0 km/h (0 Bft)
07.05.2018 07:53 9,1 °C 87 % 1015,7 hPa 0,0 mm 0,0 km/h (0 Bft) SW 228 ° 0 min 0,000 mm 1,0 UV-I 227 W/m² 7,1 °C 9,1 °C 0,0 km/h (0 Bft)
07.05.2018 07:54 9,3 °C 88 % 1015,7 hPa 0,0 mm 0,0 km/h (0 Bft) SW 228 ° 0 min 0,000 mm 1,0 UV-I 230 W/m² 7,4 °C 9,3 °C 0,0 km/h (0 Bft)
07.05.2018 07:55 9,6 °C 87 % 1015,7 hPa 0,0 mm 0,0 km/h (0 Bft) SW 228 ° 0 min 0,000 mm 1,1 UV-I 236 W/m² 7,5 °C 9,6 °C 0,0 km/h (0 Bft)
07.05.2018 07:56 9,6 °C 86 % 1015,7 hPa 0,0 mm 0,0 km/h (0 Bft) SW 228 ° 0 min 0,000 mm 1,1 UV-I 243 W/m² 7,4 °C 9,6 °C 0,0 km/h (0 Bft)
07.05.2018 07:57 9,6 °C 85 % 1015,7 hPa 0,0 mm 0,0 km/h (0 Bft) SW 228 ° 0 min 0,000 mm 1,1 UV-I 246 W/m² 7,2 °C 9,6 °C 0,0 km/h (0 Bft)
07.05.2018 07:58 9,4 °C 86 % 1015,6 hPa 0,0 mm 0,0 km/h (0 Bft) SW 229 ° 0 min 0,000 mm 1,1 UV-I 250 W/m² 7,2 °C 9,4 °C 0,0 km/h (0 Bft)
07.05.2018 07:59 9,4 °C 85 % 1015,6 hPa 0,0 mm 1,2 km/h (1 Bft) SW 229 ° 0 min 0,000 mm 1,2 UV-I 255 W/m² 7,0 °C 9,4 °C 1,6 km/h (1 Bft)
07.05.2018 08:00 9,6 °C 86 % 1015,6 hPa 0,0 mm 1,8 km/h (1 Bft) SW 230 ° 0 min 0,000 mm 1,2 UV-I 258 W/m² 7,4 °C 9,6 °C 3,2 km/h (1 Bft)
07.05.2018 08:01 9,7 °C 86 % 1015,6 hPa 0,0 mm 1,5 km/h (1 Bft) SW 230 ° 0 min 0,051 mm 1,2 UV-I 262 W/m² 7,5 °C 9,7 °C 3,2 km/h (1 Bft)
07.05.2018 08:02 9,8 °C 84 % 1015,6 hPa 0,0 mm 0,4 km/h (0 Bft) SW 230 ° 0 min 0,000 mm 1,2 UV-I 269 W/m² 7,2 °C 9,8 °C 1,6 km/h (1 Bft)
07.05.2018 08:03 9,8 °C 83 % 1015,7 hPa 0,0 mm 2,7 km/h (1 Bft) O-NO 57 ° 0 min 0,000 mm 1,2 UV-I 272 W/m² 7,1 °C 9,8 °C 4,8 km/h (1 Bft)
07.05.2018 08:04 9,8 °C 82 % 1015,6 hPa 0,0 mm 2,4 km/h (1 Bft) O-NO 57 ° 0 min 0,000 mm 1,3 UV-I 276 W/m² 6,9 °C 9,8 °C 3,2 km/h (1 Bft)
07.05.2018 08:05 9,8 °C 82 % 1015,6 hPa 0,0 mm 2,0 km/h (1 Bft) O-NO 57 ° 0 min 0,000 mm 1,3 UV-I 278 W/m² 6,9 °C 9,8 °C 4,8 km/h (1 Bft)
07.05.2018 08:06 9,8 °C 82 % 1015,7 hPa 0,0 mm 2,8 km/h (1 Bft) O-NO 57 ° 0 min 0,000 mm 1,3 UV-I 281 W/m² 6,9 °C 9,8 °C 4,8 km/h (1 Bft)
07.05.2018 08:07 9,8 °C 82 % 1015,7 hPa 0,0 mm 4,1 km/h (1 Bft) NO 38 ° 0 min 0,000 mm 1,3 UV-I 285 W/m² 6,9 °C 9,8 °C 4,8 km/h (1 Bft)
07.05.2018 08:08 10,1 °C 82 % 1015,7 hPa 0,0 mm 3,6 km/h (1 Bft) NO 51 ° 0 min 0,000 mm 1,3 UV-I 288 W/m² 7,2 °C 10,1 °C 4,8 km/h (1 Bft)
07.05.2018 08:09 10,1 °C 82 % 1015,7 hPa 0,0 mm 2,4 km/h (1 Bft) NO 40 ° 1 min 0,000 mm 1,3 UV-I 292 W/m² 7,2 °C 10,1 °C 4,8 km/h (1 Bft)
07.05.2018 08:10 10,2 °C 80 % 1015,7 hPa 0,0 mm 2,1 km/h (1 Bft) NO 40 ° 1 min 0,000 mm 1,3 UV-I 294 W/m² 6,9 °C 10,2 °C 4,8 km/h (1 Bft)
07.05.2018 08:11 10,2 °C 80 % 1015,7 hPa 0,0 mm 1,2 km/h (1 Bft) NO 40 ° 1 min 0,000 mm 1,4 UV-I 297 W/m² 6,9 °C 10,2 °C 3,2 km/h (1 Bft)
07.05.2018 08:12 10,3 °C 80 % 1015,7 hPa 0,0 mm 2,4 km/h (1 Bft) NO 40 ° 1 min 0,000 mm 1,4 UV-I 299 W/m² 7,0 °C 10,3 °C 8,0 km/h (2 Bft)
07.05.2018 08:13 10,3 °C 80 % 1015,7 hPa 0,0 mm 2,7 km/h (1 Bft) NO 40 ° 1 min 0,000 mm 1,4 UV-I 301 W/m² 7,0 °C 10,3 °C 6,4 km/h (2 Bft)
07.05.2018 08:14 10,3 °C 82 % 1015,7 hPa 0,0 mm 4,0 km/h (1 Bft) O-NO 63 ° 1 min 0,000 mm 1,4 UV-I 306 W/m² 7,4 °C 10,3 °C 6,4 km/h (2 Bft)
07.05.2018 08:15 10,3 °C 80 % 1015,7 hPa 0,0 mm 5,4 km/h (1 Bft) NO 50 ° 1 min 0,000 mm 1,4 UV-I 309 W/m² 7,0 °C 10,3 °C 6,4 km/h (2 Bft)
07.05.2018 08:16 10,4 °C 79 % 1015,7 hPa 0,0 mm 4,2 km/h (1 Bft) NO 50 ° 1 min 0,000 mm 1,4 UV-I 311 W/m² 6,9 °C 10,4 °C 6,4 km/h (2 Bft)
07.05.2018 08:17 10,4 °C 79 % 1015,7 hPa 0,0 mm 4,8 km/h (1 Bft) NO 52 ° 1 min 0,000 mm 1,5 UV-I 313 W/m² 6,9 °C 10,4 °C 8,0 km/h (2 Bft)
07.05.2018 08:18 10,5 °C 79 % 1015,8 hPa 0,0 mm 2,4 km/h (1 Bft) NO 52 ° 1 min 0,000 mm 1,5 UV-I 316 W/m² 7,0 °C 10,5 °C 3,2 km/h (1 Bft)
07.05.2018 08:19 10,4 °C 79 % 1015,8 hPa 0,0 mm 5,5 km/h (1 Bft) O-NO 60 ° 1 min 0,000 mm 1,5 UV-I 322 W/m² 6,9 °C 10,4 °C 8,0 km/h (2 Bft)
07.05.2018 08:20 10,4 °C 78 % 1015,8 hPa 0,0 mm 6,3 km/h (2 Bft) NO 36 ° 1 min 0,000 mm 1,5 UV-I 323 W/m² 6,7 °C 10,4 °C 8,0 km/h (2 Bft)
07.05.2018 08:21 10,4 °C 79 % 1015,8 hPa 0,0 mm 5,4 km/h (1 Bft) NO 36 ° 1 min 0,000 mm 1,5 UV-I 327 W/m² 6,9 °C 10,4 °C 8,0 km/h (2 Bft)
07.05.2018 08:22 10,5 °C 79 % 1015,8 hPa 0,0 mm 4,9 km/h (1 Bft) N-NO 32 ° 1 min 0,000 mm 1,5 UV-I 330 W/m² 7,0 °C 10,5 °C 6,4 km/h (2 Bft)
07.05.2018 08:23 10,5 °C 78 % 1015,8 hPa 0,0 mm 2,3 km/h (1 Bft) N-NO 32 ° 1 min 0,000 mm 1,6 UV-I 332 W/m² 6,8 °C 10,5 °C 4,8 km/h (1 Bft)
07.05.2018 08:24 10,6 °C 78 % 1015,8 hPa 0,0 mm 4,2 km/h (1 Bft) O-NO 77 ° 1 min 0,000 mm 1,6 UV-I 334 W/m² 6,9 °C 10,6 °C 8,0 km/h (2 Bft)
07.05.2018 08:25 10,6 °C 79 % 1015,9 hPa 0,0 mm 6,0 km/h (2 Bft) O-NO 57 ° 1 min 0,000 mm 1,6 UV-I 339 W/m² 7,1 °C 10,6 °C 8,0 km/h (2 Bft)
07.05.2018 08:26 10,6 °C 79 % 1015,8 hPa 0,0 mm 4,3 km/h (1 Bft) O 88 ° 1 min 0,000 mm 1,6 UV-I 341 W/m² 7,1 °C 10,6 °C 6,4 km/h (2 Bft)
07.05.2018 08:27 10,6 °C 78 % 1015,9 hPa 0,0 mm 3,8 km/h (1 Bft) O-NO 66 ° 1 min 0,000 mm 1,6 UV-I 341 W/m² 6,9 °C 10,6 °C 6,4 km/h (2 Bft)
07.05.2018 08:28 10,6 °C 79 % 1015,8 hPa 0,0 mm 2,6 km/h (1 Bft) O-NO 66 ° 1 min 0,000 mm 1,6 UV-I 345 W/m² 7,1 °C 10,6 °C 4,8 km/h (1 Bft)
07.05.2018 08:29 10,6 °C 78 % 1015,9 hPa 0,0 mm 4,8 km/h (1 Bft) O-NO 69 ° 1 min 0,000 mm 1,6 UV-I 346 W/m² 6,9 °C 10,6 °C 6,4 km/h (2 Bft)
07.05.2018 08:30 10,6 °C 78 % 1015,9 hPa 0,0 mm 4,3 km/h (1 Bft) O 80 ° 1 min 0,000 mm 1,7 UV-I 350 W/m² 6,9 °C 10,6 °C 8,0 km/h (2 Bft)
07.05.2018 08:31 10,6 °C 78 % 1015,9 hPa 0,0 mm 3,9 km/h (1 Bft) NO 55 ° 1 min 0,000 mm 1,7 UV-I 355 W/m² 6,9 °C 10,6 °C 6,4 km/h (2 Bft)
07.05.2018 08:32 10,6 °C 79 % 1015,9 hPa 0,0 mm 2,4 km/h (1 Bft) NO 55 ° 1 min 0,000 mm 1,7 UV-I 357 W/m² 7,1 °C 10,6 °C 4,8 km/h (1 Bft)
07.05.2018 08:33 10,6 °C 78 % 1015,8 hPa 0,0 mm 2,4 km/h (1 Bft) NO 55 ° 1 min 0,000 mm 1,7 UV-I 360 W/m² 6,9 °C 10,6 °C 4,8 km/h (1 Bft)
07.05.2018 08:34 10,7 °C 78 % 1015,8 hPa 0,0 mm 0,9 km/h (0 Bft) NO 55 ° 1 min 0,000 mm 1,7 UV-I 362 W/m² 7,0 °C 10,7 °C 1,6 km/h (1 Bft)
07.05.2018 08:35 10,8 °C 78 % 1015,8 hPa 0,0 mm 1,9 km/h (1 Bft) NO 55 ° 1 min 0,000 mm 1,8 UV-I 366 W/m² 7,1 °C 10,8 °C 3,2 km/h (1 Bft)
07.05.2018 08:36 10,9 °C 77 % 1015,8 hPa 0,0 mm 2,3 km/h (1 Bft) NO 55 ° 1 min 0,000 mm 1,8 UV-I 369 W/m² 7,0 °C 10,9 °C 4,8 km/h (1 Bft)
07.05.2018 08:37 10,9 °C 77 % 1015,8 hPa 0,0 mm 3,1 km/h (1 Bft) N-NO 33 ° 1 min 0,000 mm 1,8 UV-I 374 W/m² 7,0 °C 10,9 °C 4,8 km/h (1 Bft)
07.05.2018 08:38 11,1 °C 77 % 1015,8 hPa 0,0 mm 3,5 km/h (1 Bft) N-NO 12 ° 1 min 0,000 mm 1,8 UV-I 376 W/m² 7,2 °C 11,1 °C 4,8 km/h (1 Bft)
07.05.2018 08:39 11,1 °C 77 % 1015,8 hPa 0,0 mm 3,0 km/h (1 Bft) N 11 ° 1 min 0,000 mm 1,8 UV-I 380 W/m² 7,2 °C 11,1 °C 4,8 km/h (1 Bft)
07.05.2018 08:40 11,1 °C 77 % 1015,8 hPa 0,0 mm 2,8 km/h (1 Bft) N 11 ° 1 min 0,000 mm 1,9 UV-I 381 W/m² 7,2 °C 11,1 °C 4,8 km/h (1 Bft)
07.05.2018 08:41 11,2 °C 78 % 1015,8 hPa 0,0 mm 3,0 km/h (1 Bft) N 11 ° 1 min 0,000 mm 1,9 UV-I 383 W/m² 7,5 °C 11,2 °C 4,8 km/h (1 Bft)
07.05.2018 08:42 11,3 °C 77 % 1015,8 hPa 0,0 mm 2,1 km/h (1 Bft) N 11 ° 1 min 0,000 mm 1,9 UV-I 385 W/m² 7,4 °C 11,3 °C 4,8 km/h (1 Bft)
07.05.2018 08:43 11,3 °C 77 % 1015,8 hPa 0,0 mm 1,3 km/h (1 Bft) N 11 ° 1 min 0,000 mm 1,9 UV-I 390 W/m² 7,4 °C 11,3 °C 3,2 km/h (1 Bft)
07.05.2018 08:44 11,4 °C 79 % 1015,8 hPa 0,0 mm 1,3 km/h (1 Bft) N 11 ° 1 min 0,000 mm 1,9 UV-I 392 W/m² 7,9 °C 11,4 °C 3,2 km/h (1 Bft)
07.05.2018 08:45 11,5 °C 79 % 1015,9 hPa 0,0 mm 2,9 km/h (1 Bft) N-NW 348 ° 1 min 0,000 mm 2,0 UV-I 394 W/m² 8,0 °C 11,5 °C 6,4 km/h (2 Bft)
07.05.2018 08:46 11,7 °C 79 % 1015,9 hPa 0,0 mm 3,0 km/h (1 Bft) NO 54 ° 1 min 0,000 mm 2,0 UV-I 397 W/m² 8,2 °C 11,7 °C 4,8 km/h (1 Bft)
07.05.2018 08:47 11,7 °C 75 % 1015,9 hPa 0,0 mm 2,6 km/h (1 Bft) NO 53 ° 1 min 0,000 mm 2,0 UV-I 401 W/m² 7,4 °C 11,7 °C 4,8 km/h (1 Bft)
07.05.2018 08:48 11,6 °C 75 % 1015,8 hPa 0,0 mm 4,4 km/h (1 Bft) O-NO 63 ° 1 min 0,000 mm 2,0 UV-I 403 W/m² 7,3 °C 11,6 °C 6,4 km/h (2 Bft)
07.05.2018 08:49 11,6 °C 76 % 1015,8 hPa 0,0 mm 0,9 km/h (0 Bft) O-NO 63 ° 1 min 0,000 mm 2,1 UV-I 408 W/m² 7,5 °C 11,6 °C 4,8 km/h (1 Bft)
07.05.2018 08:50 11,6 °C 75 % 1015,9 hPa 0,0 mm 0,7 km/h (0 Bft) O-NO 63 ° 1 min 0,000 mm 2,1 UV-I 410 W/m² 7,3 °C 11,6 °C 1,6 km/h (1 Bft)
07.05.2018 08:51 11,5 °C 75 % 1015,9 hPa 0,0 mm 0,7 km/h (0 Bft) O-NO 66 ° 1 min 0,000 mm 2,1 UV-I 411 W/m² 7,2 °C 11,5 °C 4,8 km/h (1 Bft)
07.05.2018 08:52 11,5 °C 76 % 1015,9 hPa 0,0 mm 4,2 km/h (1 Bft) O-NO 78 ° 1 min 0,000 mm 2,1 UV-I 415 W/m² 7,4 °C 11,5 °C 6,4 km/h (2 Bft)
07.05.2018 08:53 11,5 °C 74 % 1015,9 hPa 0,0 mm 5,7 km/h (1 Bft) NO 34 ° 1 min 0,000 mm 2,2 UV-I 417 W/m² 7,0 °C 11,5 °C 8,0 km/h (2 Bft)
07.05.2018 08:54 11,5 °C 74 % 1015,9 hPa 0,0 mm 4,2 km/h (1 Bft) NO 34 ° 1 min 0,000 mm 2,2 UV-I 422 W/m² 7,0 °C 11,5 °C 6,4 km/h (2 Bft)
07.05.2018 08:55 11,6 °C 75 % 1015,9 hPa 0,0 mm 1,9 km/h (1 Bft) NO 34 ° 1 min 0,000 mm 2,2 UV-I 424 W/m² 7,3 °C 11,6 °C 3,2 km/h (1 Bft)
07.05.2018 08:56 11,7 °C 75 % 1015,8 hPa 0,0 mm 1,0 km/h (0 Bft) NO 34 ° 1 min 0,000 mm 2,2 UV-I 427 W/m² 7,4 °C 11,7 °C 3,2 km/h (1 Bft)
07.05.2018 08:57 11,7 °C 74 % 1015,9 hPa 0,0 mm 0,1 km/h (0 Bft) NO 34 ° 1 min 0,000 mm 2,2 UV-I 429 W/m² 7,2 °C 11,7 °C 3,2 km/h (1 Bft)
07.05.2018 08:58 11,8 °C 75 % 1015,8 hPa 0,0 mm 1,6 km/h (1 Bft) NO 34 ° 1 min 0,000 mm 2,2 UV-I 432 W/m² 7,5 °C 11,8 °C 4,8 km/h (1 Bft)
07.05.2018 08:59 11,7 °C 74 % 1015,8 hPa 0,0 mm 1,3 km/h (1 Bft) NO 34 ° 1 min 0,000 mm 2,3 UV-I 434 W/m² 7,2 °C 11,7 °C 3,2 km/h (1 Bft)
07.05.2018 09:00 11,7 °C 75 % 1015,8 hPa 0,0 mm 2,1 km/h (1 Bft) NO 34 ° 1 min 0,178 mm 2,3 UV-I 441 W/m² 7,4 °C 11,7 °C 3,2 km/h (1 Bft)
07.05.2018 09:01 11,7 °C 73 % 1015,8 hPa 0,0 mm 2,6 km/h (1 Bft) NO 34 ° 1 min 0,000 mm 2,3 UV-I 443 W/m² 7,0 °C 11,7 °C 3,2 km/h (1 Bft)
07.05.2018 09:02 11,7 °C 75 % 1015,8 hPa 0,0 mm 3,4 km/h (1 Bft) NO 34 ° 1 min 0,000 mm 2,3 UV-I 445 W/m² 7,4 °C 11,7 °C 4,8 km/h (1 Bft)
07.05.2018 09:03 11,8 °C 73 % 1015,8 hPa 0,0 mm 1,7 km/h (1 Bft) NO 34 ° 1 min 0,000 mm 2,4 UV-I 448 W/m² 7,1 °C 11,8 °C 3,2 km/h (1 Bft)
07.05.2018 09:04 11,8 °C 73 % 1015,8 hPa 0,0 mm 2,4 km/h (1 Bft) NO 34 ° 1 min 0,000 mm 2,4 UV-I 450 W/m² 7,1 °C 11,8 °C 4,8 km/h (1 Bft)
07.05.2018 09:05 11,8 °C 76 % 1015,8 hPa 0,0 mm 1,5 km/h (1 Bft) NO 34 ° 1 min 0,000 mm 2,4 UV-I 452 W/m² 7,7 °C 11,8 °C 3,2 km/h (1 Bft)
07.05.2018 09:06 12,0 °C 77 % 1015,8 hPa 0,0 mm 3,0 km/h (1 Bft) NO 34 ° 1 min 0,000 mm 2,4 UV-I 455 W/m² 8,1 °C 12,0 °C 4,8 km/h (1 Bft)
07.05.2018 09:07 12,1 °C 74 % 1015,8 hPa 0,0 mm 3,8 km/h (1 Bft) NO 34 ° 1 min 0,000 mm 2,5 UV-I 459 W/m² 7,6 °C 12,1 °C 6,4 km/h (2 Bft)
07.05.2018 09:08 12,2 °C 74 % 1015,8 hPa 0,0 mm 2,5 km/h (1 Bft) NO 34 ° 1 min 0,000 mm 2,5 UV-I 461 W/m² 7,7 °C 12,2 °C 4,8 km/h (1 Bft)
07.05.2018 09:09 12,3 °C 73 % 1015,8 hPa 0,0 mm 3,1 km/h (1 Bft) NO 49 ° 1 min 0,000 mm 2,5 UV-I 461 W/m² 7,6 °C 12,3 °C 6,4 km/h (2 Bft)
07.05.2018 09:10 12,3 °C 73 % 1015,8 hPa 0,0 mm 1,0 km/h (0 Bft) NO 49 ° 1 min 0,000 mm 2,5 UV-I 461 W/m² 7,6 °C 12,3 °C 4,8 km/h (1 Bft)
07.05.2018 09:11 12,2 °C 72 % 1015,7 hPa 0,0 mm 0,0 km/h (0 Bft) NO 49 ° 1 min 0,000 mm 2,5 UV-I 469 W/m² 7,3 °C 12,2 °C 0,0 km/h (0 Bft)
07.05.2018 09:12 12,3 °C 74 % 1015,8 hPa 0,0 mm 0,0 km/h (0 Bft) NO 49 ° 1 min 0,000 mm 2,6 UV-I 473 W/m² 7,8 °C 12,3 °C 0,0 km/h (0 Bft)
07.05.2018 09:13 12,4 °C 77 % 1015,8 hPa 0,0 mm 1,0 km/h (0 Bft) NO 49 ° 1 min 0,000 mm 2,6 UV-I 476 W/m² 8,5 °C 12,4 °C 3,2 km/h (1 Bft)
07.05.2018 09:14 12,4 °C 74 % 1015,8 hPa 0,0 mm 3,0 km/h (1 Bft) NO 49 ° 1 min 0,000 mm 2,6 UV-I 478 W/m² 7,9 °C 12,4 °C 4,8 km/h (1 Bft)
07.05.2018 09:15 12,5 °C 73 % 1015,8 hPa 0,0 mm 2,0 km/h (1 Bft) NO 49 ° 1 min 0,000 mm 2,7 UV-I 482 W/m² 7,8 °C 12,5 °C 3,2 km/h (1 Bft)
07.05.2018 09:16 12,4 °C 73 % 1015,8 hPa 0,0 mm 3,6 km/h (1 Bft) O-SO 102 ° 1 min 0,000 mm 2,7 UV-I 485 W/m² 7,7 °C 12,4 °C 6,4 km/h (2 Bft)
07.05.2018 09:17 12,5 °C 74 % 1015,8 hPa 0,0 mm 3,6 km/h (1 Bft) O-NO 74 ° 1 min 0,000 mm 2,7 UV-I 487 W/m² 8,0 °C 12,5 °C 6,4 km/h (2 Bft)
07.05.2018 09:18 12,4 °C 72 % 1015,8 hPa 0,0 mm 3,4 km/h (1 Bft) O-NO 68 ° 1 min 0,000 mm 2,7 UV-I 492 W/m² 7,5 °C 12,4 °C 6,4 km/h (2 Bft)
07.05.2018 09:19 12,5 °C 72 % 1015,8 hPa 0,0 mm 1,5 km/h (1 Bft) O-NO 68 ° 1 min 0,000 mm 2,7 UV-I 496 W/m² 7,6 °C 12,5 °C 3,2 km/h (1 Bft)
07.05.2018 09:20 12,5 °C 73 % 1015,8 hPa 0,0 mm 4,4 km/h (1 Bft) O 82 ° 1 min 0,000 mm 2,8 UV-I 496 W/m² 7,8 °C 12,5 °C 8,0 km/h (2 Bft)
07.05.2018 09:21 12,6 °C 71 % 1015,8 hPa 0,0 mm 5,7 km/h (1 Bft) O-SO 104 ° 1 min 0,000 mm 2,8 UV-I 499 W/m² 7,5 °C 12,6 °C 11,3 km/h (2 Bft)
07.05.2018 09:22 12,6 °C 73 % 1015,9 hPa 0,0 mm 3,3 km/h (1 Bft) O 96 ° 1 min 0,000 mm 2,8 UV-I 503 W/m² 7,9 °C 12,6 °C 4,8 km/h (1 Bft)
07.05.2018 09:23 12,6 °C 72 % 1015,9 hPa 0,0 mm 6,6 km/h (2 Bft) O-SO 109 ° 1 min 0,000 mm 2,8 UV-I 503 W/m² 7,7 °C 12,6 °C 11,3 km/h (2 Bft)
07.05.2018 09:24 12,6 °C 72 % 1015,9 hPa 0,0 mm 3,2 km/h (1 Bft) NO 55 ° 1 min 0,000 mm 2,8 UV-I 508 W/m² 7,7 °C 12,6 °C 6,4 km/h (2 Bft)
07.05.2018 09:25 12,6 °C 73 % 1015,8 hPa 0,0 mm 4,9 km/h (1 Bft) NO 55 ° 1 min 0,000 mm 2,9 UV-I 510 W/m² 7,9 °C 12,6 °C 6,4 km/h (2 Bft)
07.05.2018 09:26 12,6 °C 71 % 1015,9 hPa 0,0 mm 3,7 km/h (1 Bft) NO 51 ° 1 min 0,000 mm 2,9 UV-I 513 W/m² 7,5 °C 12,6 °C 4,8 km/h (1 Bft)
07.05.2018 09:27 12,6 °C 71 % 1015,9 hPa 0,0 mm 3,7 km/h (1 Bft) O-NO 59 ° 1 min 0,000 mm 2,9 UV-I 513 W/m² 7,5 °C 12,6 °C 6,4 km/h (2 Bft)
07.05.2018 09:28 12,6 °C 71 % 1015,9 hPa 0,0 mm 3,8 km/h (1 Bft) O-NO 76 ° 1 min 0,000 mm 2,9 UV-I 515 W/m² 7,5 °C 12,6 °C 6,4 km/h (2 Bft)
07.05.2018 09:29 12,6 °C 71 % 1015,9 hPa 0,0 mm 4,0 km/h (1 Bft) O-NO 74 ° 1 min 0,000 mm 2,9 UV-I 519 W/m² 7,5 °C 12,6 °C 6,4 km/h (2 Bft)
07.05.2018 09:30 12,6 °C 71 % 1015,9 hPa 0,0 mm 2,2 km/h (1 Bft) O-NO 74 ° 1 min 0,000 mm 2,9 UV-I 522 W/m² 7,5 °C 12,6 °C 4,8 km/h (1 Bft)
07.05.2018 09:31 12,6 °C 71 % 1015,9 hPa 0,0 mm 4,7 km/h (1 Bft) NO 53 ° 1 min 0,000 mm 3,0 UV-I 524 W/m² 7,5 °C 12,6 °C 8,0 km/h (2 Bft)
07.05.2018 09:32 12,7 °C 72 % 1015,9 hPa 0,0 mm 4,3 km/h (1 Bft) NO 45 ° 1 min 0,000 mm 3,0 UV-I 526 W/m² 7,8 °C 12,7 °C 8,0 km/h (2 Bft)
07.05.2018 09:33 12,8 °C 70 % 1015,9 hPa 0,0 mm 4,1 km/h (1 Bft) SO 124 ° 1 min 0,000 mm 3,0 UV-I 529 W/m² 7,5 °C 12,8 °C 6,4 km/h (2 Bft)
07.05.2018 09:34 12,7 °C 70 % 1015,9 hPa 0,0 mm 6,6 km/h (2 Bft) NO 53 ° 1 min 0,000 mm 3,0 UV-I 531 W/m² 7,4 °C 12,7 °C 9,7 km/h (2 Bft)
07.05.2018 09:35 12,8 °C 71 % 1015,9 hPa 0,0 mm 5,1 km/h (1 Bft) NO 55 ° 1 min 0,000 mm 3,0 UV-I 534 W/m² 7,7 °C 12,8 °C 8,0 km/h (2 Bft)
07.05.2018 09:36 12,8 °C 72 % 1015,9 hPa 0,0 mm 3,9 km/h (1 Bft) NO 43 ° 1 min 0,000 mm 3,1 UV-I 538 W/m² 7,9 °C 12,8 °C 6,4 km/h (2 Bft)
07.05.2018 09:37 12,9 °C 71 % 1015,9 hPa 0,0 mm 3,0 km/h (1 Bft) NO 46 ° 1 min 0,000 mm 3,1 UV-I 540 W/m² 7,8 °C 12,9 °C 4,8 km/h (1 Bft)
07.05.2018 09:38 13,1 °C 72 % 1015,9 hPa 0,0 mm 3,7 km/h (1 Bft) O-NO 71 ° 1 min 0,000 mm 3,1 UV-I 543 W/m² 8,2 °C 13,1 °C 4,8 km/h (1 Bft)
07.05.2018 09:39 13,2 °C 72 % 1015,9 hPa 0,0 mm 2,7 km/h (1 Bft) O-NO 65 ° 1 min 0,000 mm 3,1 UV-I 545 W/m² 8,3 °C 13,2 °C 4,8 km/h (1 Bft)
07.05.2018 09:40 13,1 °C 69 % 1015,9 hPa 0,0 mm 4,8 km/h (1 Bft) O-NO 78 ° 1 min 0,000 mm 3,1 UV-I 547 W/m² 7,5 °C 13,1 °C 8,0 km/h (2 Bft)
07.05.2018 09:41 13,0 °C 69 % 1015,9 hPa 0,0 mm 4,8 km/h (1 Bft) O 83 ° 1 min 0,000 mm 3,1 UV-I 550 W/m² 7,4 °C 13,0 °C 6,4 km/h (2 Bft)
07.05.2018 09:42 12,8 °C 70 % 1015,9 hPa 0,0 mm 3,6 km/h (1 Bft) O-SO 111 ° 1 min 0,000 mm 3,2 UV-I 554 W/m² 7,5 °C 12,8 °C 8,0 km/h (2 Bft)
07.05.2018 09:43 12,8 °C 71 % 1015,9 hPa 0,0 mm 2,1 km/h (1 Bft) O-SO 119 ° 1 min 0,000 mm 3,2 UV-I 557 W/m² 7,7 °C 12,8 °C 6,4 km/h (2 Bft)
07.05.2018 09:44 12,9 °C 73 % 1016,0 hPa 0,0 mm 2,3 km/h (1 Bft) SO 128 ° 1 min 0,000 mm 3,2 UV-I 559 W/m² 8,2 °C 12,9 °C 6,4 km/h (2 Bft)
07.05.2018 09:45 13,1 °C 73 % 1015,9 hPa 0,0 mm 7,1 km/h (2 Bft) NO 43 ° 1 min 0,000 mm 3,2 UV-I 561 W/m² 8,4 °C 13,1 °C 11,3 km/h (2 Bft)
07.05.2018 09:46 13,1 °C 71 % 1015,9 hPa 0,0 mm 8,0 km/h (2 Bft) O-SO 109 ° 1 min 0,000 mm 3,2 UV-I 563 W/m² 8,0 °C 13,1 °C 11,3 km/h (2 Bft)
07.05.2018 09:47 13,0 °C 70 % 1016,0 hPa 0,0 mm 6,5 km/h (2 Bft) O-NO 69 ° 1 min 0,000 mm 3,3 UV-I 568 W/m² 7,7 °C 13,0 °C 9,7 km/h (2 Bft)
07.05.2018 09:48 12,9 °C 71 % 1015,9 hPa 0,0 mm 7,0 km/h (2 Bft) O 98 ° 1 min 0,000 mm 3,3 UV-I 568 W/m² 7,8 °C 12,9 °C 9,7 km/h (2 Bft)
07.05.2018 09:49 13,0 °C 71 % 1015,9 hPa 0,0 mm 6,7 km/h (2 Bft) O 81 ° 1 min 0,000 mm 3,3 UV-I 571 W/m² 7,9 °C 13,0 °C 11,3 km/h (2 Bft)
07.05.2018 09:50 12,9 °C 70 % 1015,9 hPa 0,0 mm 4,7 km/h (1 Bft) O-NO 61 ° 1 min 0,000 mm 3,3 UV-I 573 W/m² 7,6 °C 12,9 °C 6,4 km/h (2 Bft)
07.05.2018 09:51 12,9 °C 70 % 1015,9 hPa 0,0 mm 3,4 km/h (1 Bft) O-NO 76 ° 1 min 0,000 mm 3,3 UV-I 575 W/m² 7,6 °C 12,9 °C 4,8 km/h (1 Bft)
07.05.2018 09:52 13,0 °C 71 % 1015,9 hPa 0,0 mm 4,0 km/h (1 Bft) O 90 ° 1 min 0,000 mm 3,3 UV-I 577 W/m² 7,9 °C 13,0 °C 6,4 km/h (2 Bft)
07.05.2018 09:53 12,9 °C 71 % 1016,0 hPa 0,0 mm 5,6 km/h (1 Bft) O-NO 67 ° 1 min 0,000 mm 3,4 UV-I 582 W/m² 7,8 °C 12,9 °C 11,3 km/h (2 Bft)
07.05.2018 09:54 12,9 °C 70 % 1015,9 hPa 0,0 mm 6,5 km/h (2 Bft) O 83 ° 1 min 0,000 mm 3,4 UV-I 584 W/m² 7,6 °C 12,9 °C 12,9 km/h (3 Bft)
07.05.2018 09:55 12,8 °C 70 % 1015,9 hPa 0,0 mm 6,2 km/h (2 Bft) O-NO 65 ° 1 min 0,000 mm 3,4 UV-I 584 W/m² 7,5 °C 12,8 °C 9,7 km/h (2 Bft)
07.05.2018 09:56 13,0 °C 71 % 1015,9 hPa 0,0 mm 6,6 km/h (2 Bft) SO 134 ° 1 min 0,000 mm 3,5 UV-I 587 W/m² 7,9 °C 13,0 °C 9,7 km/h (2 Bft)
07.05.2018 09:57 12,9 °C 71 % 1015,9 hPa 0,0 mm 3,7 km/h (1 Bft) O-NO 78 ° 1 min 0,000 mm 3,5 UV-I 591 W/m² 7,8 °C 12,9 °C 6,4 km/h (2 Bft)
07.05.2018 09:58 12,9 °C 71 % 1015,9 hPa 0,0 mm 3,2 km/h (1 Bft) O-NO 77 ° 1 min 0,000 mm 3,5 UV-I 592 W/m² 7,8 °C 12,9 °C 8,0 km/h (2 Bft)
07.05.2018 09:59 12,9 °C 70 % 1015,9 hPa 0,0 mm 2,7 km/h (1 Bft) O 82 ° 1 min 0,000 mm 3,5 UV-I 596 W/m² 7,6 °C 12,9 °C 4,8 km/h (1 Bft)
07.05.2018 10:00 13,1 °C 72 % 1015,9 hPa 0,0 mm 2,2 km/h (1 Bft) O-NO 58 ° 1 min 0,000 mm 3,6 UV-I 598 W/m² 8,2 °C 13,1 °C 4,8 km/h (1 Bft)
07.05.2018 10:01 13,2 °C 72 % 1015,9 hPa 0,0 mm 7,4 km/h (2 Bft) O-NO 59 ° 1 min 0,279 mm 3,6 UV-I 601 W/m² 8,3 °C 13,2 °C 9,7 km/h (2 Bft)
07.05.2018 10:02 13,2 °C 69 % 1015,9 hPa 0,0 mm 6,6 km/h (2 Bft) O-NO 68 ° 1 min 0,000 mm 3,6 UV-I 603 W/m² 7,6 °C 13,2 °C 9,7 km/h (2 Bft)
07.05.2018 10:03 13,1 °C 69 % 1015,9 hPa 0,0 mm 4,3 km/h (1 Bft) O-NO 71 ° 1 min 0,000 mm 3,6 UV-I 606 W/m² 7,5 °C 13,1 °C 6,4 km/h (2 Bft)
07.05.2018 10:04 13,1 °C 69 % 1015,9 hPa 0,0 mm 3,9 km/h (1 Bft) NO 42 ° 1 min 0,000 mm 3,6 UV-I 608 W/m² 7,5 °C 13,1 °C 6,4 km/h (2 Bft)
07.05.2018 10:05 13,1 °C 69 % 1015,9 hPa 0,0 mm 3,4 km/h (1 Bft) NO 35 ° 1 min 0,000 mm 3,7 UV-I 612 W/m² 7,5 °C 13,1 °C 6,4 km/h (2 Bft)
07.05.2018 10:06 13,2 °C 72 % 1015,9 hPa 0,0 mm 5,9 km/h (2 Bft) N 5 ° 1 min 0,000 mm 3,7 UV-I 613 W/m² 8,3 °C 13,2 °C 9,7 km/h (2 Bft)
07.05.2018 10:07 13,4 °C 73 % 1015,8 hPa 0,0 mm 2,9 km/h (1 Bft) N-NO 26 ° 1 min 0,000 mm 3,7 UV-I 615 W/m² 8,7 °C 13,4 °C 6,4 km/h (2 Bft)
07.05.2018 10:08 13,6 °C 71 % 1015,8 hPa 0,0 mm 4,2 km/h (1 Bft) N-NO 22 ° 1 min 0,000 mm 3,7 UV-I 617 W/m² 8,4 °C 13,6 °C 8,0 km/h (2 Bft)
07.05.2018 10:09 13,7 °C 70 % 1015,8 hPa 0,0 mm 3,6 km/h (1 Bft) O-NO 76 ° 1 min 0,000 mm 3,8 UV-I 619 W/m² 8,3 °C 13,7 °C 6,4 km/h (2 Bft)
07.05.2018 10:10 13,7 °C 68 % 1015,7 hPa 0,0 mm 0,9 km/h (0 Bft) N-NO 32 ° 1 min 0,000 mm 3,8 UV-I 622 W/m² 7,9 °C 13,7 °C 3,2 km/h (1 Bft)
07.05.2018 10:11 13,7 °C 71 % 1015,8 hPa 0,0 mm 4,1 km/h (1 Bft) N-NW 336 ° 1 min 0,000 mm 3,8 UV-I 626 W/m² 8,5 °C 13,7 °C 6,4 km/h (2 Bft)
07.05.2018 10:12 13,8 °C 70 % 1015,8 hPa 0,0 mm 3,8 km/h (1 Bft) N 350 ° 1 min 0,000 mm 3,8 UV-I 626 W/m² 8,4 °C 13,8 °C 8,0 km/h (2 Bft)
07.05.2018 10:13 14,0 °C 70 % 1015,8 hPa 0,0 mm 6,6 km/h (2 Bft) NO 34 ° 1 min 0,000 mm 3,8 UV-I 629 W/m² 8,6 °C 14,0 °C 11,3 km/h (2 Bft)
07.05.2018 10:14 13,9 °C 67 % 1015,8 hPa 0,0 mm 6,6 km/h (2 Bft) O-NO 72 ° 1 min 0,000 mm 3,9 UV-I 633 W/m² 7,9 °C 13,9 °C 9,7 km/h (2 Bft)
07.05.2018 10:15 13,8 °C 67 % 1015,8 hPa 0,0 mm 1,0 km/h (0 Bft) O-NO 72 ° 1 min 0,000 mm 3,9 UV-I 635 W/m² 7,8 °C 13,8 °C 3,2 km/h (1 Bft)
07.05.2018 10:16 13,8 °C 70 % 1015,8 hPa 0,0 mm 2,1 km/h (1 Bft) O-NO 65 ° 1 min 0,000 mm 3,9 UV-I 636 W/m² 8,4 °C 13,8 °C 3,2 km/h (1 Bft)
07.05.2018 10:17 13,8 °C 69 % 1015,8 hPa 0,0 mm 11,2 km/h (2 Bft) O 88 ° 1 min 0,000 mm 3,9 UV-I 642 W/m² 8,2 °C 13,8 °C 16,1 km/h (3 Bft)
07.05.2018 10:18 13,7 °C 68 % 1015,8 hPa 0,0 mm 6,0 km/h (2 Bft) N-NO 19 ° 1 min 0,000 mm 3,9 UV-I 643 W/m² 7,9 °C 13,7 °C 6,4 km/h (2 Bft)
07.05.2018 10:19 13,8 °C 68 % 1015,7 hPa 0,0 mm 5,8 km/h (2 Bft) N-NO 14 ° 1 min 0,000 mm 4,0 UV-I 643 W/m² 8,0 °C 13,8 °C 8,0 km/h (2 Bft)
07.05.2018 10:20 14,0 °C 70 % 1015,7 hPa 0,0 mm 5,8 km/h (2 Bft) N 5 ° 1 min 0,000 mm 4,0 UV-I 647 W/m² 8,6 °C 14,0 °C 11,3 km/h (2 Bft)
07.05.2018 10:21 14,2 °C 72 % 1015,7 hPa 0,0 mm 4,3 km/h (1 Bft) NO 34 ° 1 min 0,000 mm 4,0 UV-I 647 W/m² 9,2 °C 14,2 °C 9,7 km/h (2 Bft)
07.05.2018 10:22 14,2 °C 68 % 1015,7 hPa 0,0 mm 7,5 km/h (2 Bft) O 92 ° 1 min 0,000 mm 4,0 UV-I 650 W/m² 8,4 °C 14,2 °C 11,3 km/h (2 Bft)
07.05.2018 10:23 14,1 °C 68 % 1015,7 hPa 0,0 mm 5,0 km/h (1 Bft) O-NO 61 ° 1 min 0,000 mm 4,0 UV-I 654 W/m² 8,3 °C 14,1 °C 9,7 km/h (2 Bft)
07.05.2018 10:24 14,0 °C 68 % 1015,7 hPa 0,0 mm 4,2 km/h (1 Bft) O-NO 77 ° 1 min 0,000 mm 4,0 UV-I 656 W/m² 8,2 °C 14,0 °C 8,0 km/h (2 Bft)
07.05.2018 10:25 13,9 °C 69 % 1015,7 hPa 0,0 mm 3,9 km/h (1 Bft) NO 53 ° 1 min 0,000 mm 4,1 UV-I 657 W/m² 8,3 °C 13,9 °C 6,4 km/h (2 Bft)
07.05.2018 10:26 13,9 °C 69 % 1015,7 hPa 0,0 mm 3,9 km/h (1 Bft) NO 38 ° 1 min 0,000 mm 4,1 UV-I 659 W/m² 8,3 °C 13,9 °C 8,0 km/h (2 Bft)
07.05.2018 10:27 13,9 °C 71 % 1015,7 hPa 0,0 mm 6,6 km/h (2 Bft) N 355 ° 1 min 0,000 mm 4,1 UV-I 663 W/m² 8,7 °C 13,9 °C 12,9 km/h (3 Bft)
07.05.2018 10:28 14,1 °C 70 % 1015,7 hPa 0,0 mm 6,3 km/h (2 Bft) N-NW 333 ° 1 min 0,000 mm 4,1 UV-I 664 W/m² 8,7 °C 14,1 °C 9,7 km/h (2 Bft)
07.05.2018 10:29 14,1 °C 68 % 1015,7 hPa 0,0 mm 7,0 km/h (2 Bft) N 360 ° 1 min 0,000 mm 4,1 UV-I 668 W/m² 8,3 °C 14,1 °C 12,9 km/h (3 Bft)
07.05.2018 10:30 14,2 °C 70 % 1015,7 hPa 0,0 mm 10,1 km/h (2 Bft) N 9 ° 1 min 0,000 mm 4,2 UV-I 670 W/m² 8,8 °C 14,2 °C 16,1 km/h (3 Bft)
07.05.2018 10:31 14,2 °C 69 % 1015,7 hPa 0,0 mm 8,5 km/h (2 Bft) N 360 ° 1 min 0,000 mm 4,2 UV-I 671 W/m² 8,6 °C 14,2 °C 14,5 km/h (3 Bft)
07.05.2018 10:32 14,2 °C 68 % 1015,7 hPa 0,0 mm 7,9 km/h (2 Bft) N 360 ° 1 min 0,000 mm 4,2 UV-I 673 W/m² 8,4 °C 14,2 °C 11,3 km/h (2 Bft)
07.05.2018 10:33 14,3 °C 70 % 1015,6 hPa 0,0 mm 6,6 km/h (2 Bft) O-NO 62 ° 1 min 0,000 mm 4,2 UV-I 675 W/m² 8,9 °C 14,3 °C 14,5 km/h (3 Bft)
07.05.2018 10:34 14,4 °C 72 % 1015,7 hPa 0,0 mm 4,0 km/h (1 Bft) N 349 ° 1 min 0,000 mm 4,2 UV-I 679 W/m² 9,4 °C 14,4 °C 6,4 km/h (2 Bft)
07.05.2018 10:35 14,5 °C 70 % 1015,7 hPa 0,0 mm 6,1 km/h (2 Bft) O-NO 78 ° 1 min 0,000 mm 4,3 UV-I 680 W/m² 9,1 °C 14,5 °C 12,9 km/h (3 Bft)
07.05.2018 10:36 14,5 °C 69 % 1015,7 hPa 0,0 mm 8,7 km/h (2 Bft) O-NO 71 ° 1 min 0,000 mm 4,3 UV-I 684 W/m² 8,9 °C 14,5 °C 12,9 km/h (3 Bft)
07.05.2018 10:37 14,4 °C 69 % 1015,7 hPa 0,0 mm 5,5 km/h (1 Bft) O-NO 69 ° 1 min 0,000 mm 4,3 UV-I 684 W/m² 8,8 °C 14,4 °C 14,5 km/h (3 Bft)
07.05.2018 10:38 14,4 °C 68 % 1015,6 hPa 0,0 mm 6,2 km/h (2 Bft) N 360 ° 1 min 0,000 mm 4,3 UV-I 686 W/m² 8,6 °C 14,4 °C 9,7 km/h (2 Bft)
07.05.2018 10:39 14,4 °C 69 % 1015,7 hPa 0,0 mm 7,7 km/h (2 Bft) N 5 ° 1 min 0,000 mm 4,3 UV-I 687 W/m² 8,8 °C 14,4 °C 11,3 km/h (2 Bft)
07.05.2018 10:40 14,6 °C 69 % 1015,6 hPa 0,0 mm 7,9 km/h (2 Bft) N-NO 25 ° 1 min 0,000 mm 4,4 UV-I 693 W/m² 9,0 °C 14,6 °C 11,3 km/h (2 Bft)
07.05.2018 10:41 14,7 °C 68 % 1015,6 hPa 0,0 mm 6,8 km/h (2 Bft) N 5 ° 1 min 0,000 mm 4,4 UV-I 693 W/m² 8,9 °C 14,7 °C 11,3 km/h (2 Bft)
07.05.2018 10:42 14,7 °C 68 % 1015,6 hPa 0,0 mm 6,2 km/h (2 Bft) N-NO 12 ° 1 min 0,000 mm 4,4 UV-I 694 W/m² 8,9 °C 14,7 °C 8,0 km/h (2 Bft)
07.05.2018 10:43 14,8 °C 68 % 1015,6 hPa 0,0 mm 6,9 km/h (2 Bft) N 9 ° 1 min 0,000 mm 4,4 UV-I 698 W/m² 9,0 °C 14,8 °C 12,9 km/h (3 Bft)
07.05.2018 10:44 14,8 °C 67 % 1015,6 hPa 0,0 mm 6,9 km/h (2 Bft) N-NO 18 ° 1 min 0,000 mm 4,4 UV-I 700 W/m² 8,7 °C 14,8 °C 11,3 km/h (2 Bft)
07.05.2018 10:45 14,9 °C 68 % 1015,6 hPa 0,0 mm 8,8 km/h (2 Bft) NO 42 ° 1 min 0,000 mm 4,5 UV-I 700 W/m² 9,0 °C 14,9 °C 12,9 km/h (3 Bft)
07.05.2018 10:46 14,8 °C 66 % 1015,5 hPa 0,0 mm 6,0 km/h (2 Bft) NO 36 ° 1 min 0,000 mm 4,5 UV-I 705 W/m² 8,5 °C 14,8 °C 9,7 km/h (2 Bft)
07.05.2018 10:47 14,8 °C 68 % 1015,6 hPa 0,0 mm 5,9 km/h (2 Bft) O-NO 76 ° 1 min 0,000 mm 4,5 UV-I 707 W/m² 9,0 °C 14,8 °C 8,0 km/h (2 Bft)
07.05.2018 10:48 14,7 °C 67 % 1015,5 hPa 0,0 mm 6,5 km/h (2 Bft) O 94 ° 1 min 0,000 mm 4,5 UV-I 707 W/m² 8,6 °C 14,7 °C 8,0 km/h (2 Bft)
07.05.2018 10:49 14,6 °C 68 % 1015,6 hPa 0,0 mm 1,4 km/h (1 Bft) NO 35 ° 1 min 0,000 mm 4,5 UV-I 708 W/m² 8,8 °C 14,6 °C 4,8 km/h (1 Bft)
07.05.2018 10:50 14,7 °C 70 % 1015,6 hPa 0,0 mm 6,0 km/h (2 Bft) O-NO 62 ° 1 min 0,000 mm 4,5 UV-I 712 W/m² 9,3 °C 14,7 °C 8,0 km/h (2 Bft)
07.05.2018 10:51 14,7 °C 69 % 1015,5 hPa 0,0 mm 8,8 km/h (2 Bft) O 90 ° 1 min 0,000 mm 4,6 UV-I 712 W/m² 9,1 °C 14,7 °C 12,9 km/h (3 Bft)
07.05.2018 10:52 14,8 °C 69 % 1015,6 hPa 0,0 mm 8,5 km/h (2 Bft) NO 35 ° 1 min 0,000 mm 4,6 UV-I 717 W/m² 9,2 °C 14,8 °C 9,7 km/h (2 Bft)
07.05.2018 10:53 14,7 °C 67 % 1015,5 hPa 0,0 mm 6,2 km/h (2 Bft) NO 45 ° 1 min 0,000 mm 4,6 UV-I 719 W/m² 8,6 °C 14,7 °C 12,9 km/h (3 Bft)
07.05.2018 10:54 14,8 °C 67 % 1015,5 hPa 0,0 mm 3,1 km/h (1 Bft) O-NO 61 ° 1 min 0,000 mm 4,6 UV-I 721 W/m² 8,7 °C 14,8 °C 6,4 km/h (2 Bft)
07.05.2018 10:55 14,9 °C 68 % 1015,5 hPa 0,0 mm 4,4 km/h (1 Bft) O-NO 61 ° 1 min 0,000 mm 4,7 UV-I 724 W/m² 9,0 °C 14,9 °C 6,4 km/h (2 Bft)
07.05.2018 10:56 14,8 °C 67 % 1015,5 hPa 0,0 mm 7,0 km/h (2 Bft) N-NW 347 ° 1 min 0,000 mm 4,7 UV-I 724 W/m² 8,7 °C 14,8 °C 11,3 km/h (2 Bft)
07.05.2018 10:57 14,9 °C 69 % 1015,5 hPa 0,0 mm 7,3 km/h (2 Bft) N 360 ° 1 min 0,000 mm 4,7 UV-I 729 W/m² 9,3 °C 14,9 °C 11,3 km/h (2 Bft)
07.05.2018 10:58 15,0 °C 70 % 1015,5 hPa 0,0 mm 4,8 km/h (1 Bft) O 82 ° 1 min 0,000 mm 4,7 UV-I 729 W/m² 9,6 °C 15,0 °C 6,4 km/h (2 Bft)
07.05.2018 10:59 15,1 °C 67 % 1015,5 hPa 0,0 mm 7,7 km/h (2 Bft) N 5 ° 1 min 0,000 mm 4,7 UV-I 729 W/m² 9,0 °C 15,1 °C 14,5 km/h (3 Bft)
07.05.2018 11:00 15,1 °C 67 % 1015,4 hPa 0,0 mm 5,0 km/h (1 Bft) NO 49 ° 1 min 0,000 mm 4,8 UV-I 733 W/m² 9,0 °C 15,1 °C 8,0 km/h (2 Bft)
07.05.2018 11:01 15,0 °C 67 % 1015,5 hPa 0,0 mm 5,5 km/h (1 Bft) N-NO 17 ° 1 min 0,356 mm 4,8 UV-I 733 W/m² 8,9 °C 15,0 °C 8,0 km/h (2 Bft)
07.05.2018 11:02 15,1 °C 68 % 1015,4 hPa 0,0 mm 6,4 km/h (2 Bft) NO 34 ° 1 min 0,000 mm 4,8 UV-I 735 W/m² 9,2 °C 15,1 °C 12,9 km/h (3 Bft)
07.05.2018 11:03 15,2 °C 67 % 1015,4 hPa 0,0 mm 8,0 km/h (2 Bft) NO 51 ° 1 min 0,000 mm 4,8 UV-I 740 W/m² 9,1 °C 15,2 °C 11,3 km/h (2 Bft)
07.05.2018 11:04 15,2 °C 66 % 1015,5 hPa 0,0 mm 12,3 km/h (3 Bft) O-NO 75 ° 1 min 0,000 mm 4,8 UV-I 740 W/m² 8,9 °C 15,2 °C 17,7 km/h (3 Bft)
07.05.2018 11:05 15,1 °C 65 % 1015,5 hPa 0,0 mm 6,2 km/h (2 Bft) O-SO 107 ° 1 min 0,000 mm 4,8 UV-I 742 W/m² 8,6 °C 15,1 °C 12,9 km/h (3 Bft)
07.05.2018 11:06 15,0 °C 67 % 1015,5 hPa 0,0 mm 7,1 km/h (2 Bft) NO 44 ° 1 min 0,000 mm 4,9 UV-I 744 W/m² 8,9 °C 15,0 °C 11,3 km/h (2 Bft)
07.05.2018 11:07 15,1 °C 69 % 1015,5 hPa 0,0 mm 3,0 km/h (1 Bft) N 350 ° 1 min 0,000 mm 4,9 UV-I 745 W/m² 9,5 °C 15,1 °C 6,4 km/h (2 Bft)
07.05.2018 11:08 15,2 °C 67 % 1015,4 hPa 0,0 mm 8,1 km/h (2 Bft) N-NW 339 ° 1 min 0,000 mm 4,9 UV-I 747 W/m² 9,1 °C 15,2 °C 12,9 km/h (3 Bft)
07.05.2018 11:09 15,4 °C 68 % 1015,5 hPa 0,0 mm 5,9 km/h (2 Bft) N 350 ° 1 min 0,000 mm 4,9 UV-I 749 W/m² 9,5 °C 15,4 °C 11,3 km/h (2 Bft)
07.05.2018 11:10 15,6 °C 66 % 1015,4 hPa 0,0 mm 3,9 km/h (1 Bft) NO 51 ° 1 min 0,000 mm 4,9 UV-I 751 W/m² 9,3 °C 15,6 °C 9,7 km/h (2 Bft)
07.05.2018 11:11 15,6 °C 66 % 1015,4 hPa 0,0 mm 11,7 km/h (2 Bft) O 96 ° 1 min 0,000 mm 4,9 UV-I 751 W/m² 9,3 °C 15,6 °C 17,7 km/h (3 Bft)
07.05.2018 11:12 15,5 °C 66 % 1015,4 hPa 0,0 mm 11,9 km/h (2 Bft) O-NO 65 ° 1 min 0,000 mm 4,9 UV-I 752 W/m² 9,2 °C 15,5 °C 17,7 km/h (3 Bft)
07.05.2018 11:13 15,4 °C 65 % 1015,4 hPa 0,0 mm 6,2 km/h (2 Bft) O 86 ° 1 min 0,000 mm 5,0 UV-I 756 W/m² 8,9 °C 15,4 °C 12,9 km/h (3 Bft)
07.05.2018 11:14 15,3 °C 66 % 1015,4 hPa 0,0 mm 9,7 km/h (2 Bft) O-NO 69 ° 1 min 0,000 mm 5,0 UV-I 758 W/m² 9,0 °C 15,3 °C 16,1 km/h (3 Bft)
07.05.2018 11:15 15,2 °C 66 % 1015,5 hPa 0,0 mm 4,8 km/h (1 Bft) S-SO 149 ° 1 min 0,000 mm 5,0 UV-I 759 W/m² 8,9 °C 15,2 °C 12,9 km/h (3 Bft)
07.05.2018 11:16 15,2 °C 65 % 1015,4 hPa 0,0 mm 2,4 km/h (1 Bft) O-SO 117 ° 1 min 0,000 mm 5,0 UV-I 761 W/m² 8,7 °C 15,2 °C 4,8 km/h (1 Bft)
07.05.2018 11:17 15,1 °C 66 % 1015,4 hPa 0,0 mm 1,6 km/h (1 Bft) NO 48 ° 1 min 0,000 mm 5,0 UV-I 763 W/m² 8,8 °C 15,1 °C 3,2 km/h (1 Bft)
07.05.2018 11:18 15,1 °C 68 % 1015,4 hPa 0,0 mm 2,5 km/h (1 Bft) O-NO 61 ° 1 min 0,000 mm 5,1 UV-I 765 W/m² 9,2 °C 15,1 °C 4,8 km/h (1 Bft)
07.05.2018 11:19 15,2 °C 67 % 1015,4 hPa 0,0 mm 6,0 km/h (2 Bft) NO 55 ° 1 min 0,000 mm 5,1 UV-I 765 W/m² 9,1 °C 15,2 °C 12,9 km/h (3 Bft)
07.05.2018 11:20 15,3 °C 68 % 1015,4 hPa 0,0 mm 9,3 km/h (2 Bft) N-NO 33 ° 1 min 0,000 mm 5,1 UV-I 766 W/m² 9,4 °C 15,3 °C 16,1 km/h (3 Bft)
07.05.2018 11:21 15,6 °C 68 % 1015,4 hPa 0,0 mm 5,4 km/h (1 Bft) O-SO 103 ° 1 min 0,000 mm 5,1 UV-I 770 W/m² 9,7 °C 15,6 °C 11,3 km/h (2 Bft)
07.05.2018 11:22 15,6 °C 67 % 1015,4 hPa 0,0 mm 6,0 km/h (2 Bft) NO 56 ° 1 min 0,000 mm 5,1 UV-I 770 W/m² 9,5 °C 15,6 °C 12,9 km/h (3 Bft)
07.05.2018 11:23 15,5 °C 65 % 1015,4 hPa 0,0 mm 1,3 km/h (1 Bft) N-NO 30 ° 1 min 0,000 mm 5,2 UV-I 772 W/m² 8,9 °C 15,5 °C 4,8 km/h (1 Bft)
07.05.2018 11:24 15,6 °C 68 % 1015,4 hPa 0,0 mm 3,7 km/h (1 Bft) N-NO 29 ° 1 min 0,000 mm 5,2 UV-I 773 W/m² 9,7 °C 15,6 °C 9,7 km/h (2 Bft)
07.05.2018 11:25 15,8 °C 65 % 1015,4 hPa 0,0 mm 8,9 km/h (2 Bft) NO 51 ° 1 min 0,000 mm 5,2 UV-I 775 W/m² 9,2 °C 15,8 °C 14,5 km/h (3 Bft)
07.05.2018 11:26 15,8 °C 65 % 1015,4 hPa 0,0 mm 7,4 km/h (2 Bft) O-NO 57 ° 1 min 0,000 mm 5,2 UV-I 777 W/m² 9,2 °C 15,8 °C 14,5 km/h (3 Bft)
07.05.2018 11:27 15,9 °C 65 % 1015,4 hPa 0,0 mm 6,8 km/h (2 Bft) NO 46 ° 1 min 0,000 mm 5,2 UV-I 779 W/m² 9,3 °C 15,9 °C 9,7 km/h (2 Bft)
07.05.2018 11:28 16,1 °C 67 % 1015,4 hPa 0,0 mm 7,0 km/h (2 Bft) NO 48 ° 1 min 0,000 mm 5,2 UV-I 780 W/m² 10,0 °C 16,1 °C 11,3 km/h (2 Bft)
07.05.2018 11:29 16,1 °C 68 % 1015,4 hPa 0,0 mm 6,0 km/h (2 Bft) O 86 ° 1 min 0,000 mm 5,2 UV-I 782 W/m² 10,2 °C 16,1 °C 12,9 km/h (3 Bft)
07.05.2018 11:30 15,9 °C 63 % 1015,4 hPa 0,0 mm 7,2 km/h (2 Bft) NO 46 ° 1 min 0,000 mm 5,3 UV-I 784 W/m² 8,9 °C 15,9 °C 11,3 km/h (2 Bft)
07.05.2018 11:31 15,8 °C 64 % 1015,4 hPa 0,0 mm 10,5 km/h (2 Bft) N 5 ° 1 min 0,000 mm 5,3 UV-I 784 W/m² 9,0 °C 15,8 °C 16,1 km/h (3 Bft)
07.05.2018 11:32 15,8 °C 65 % 1015,4 hPa 0,0 mm 5,3 km/h (1 Bft) NO 53 ° 1 min 0,000 mm 5,3 UV-I 786 W/m² 9,2 °C 15,8 °C 8,0 km/h (2 Bft)
07.05.2018 11:33 15,8 °C 65 % 1015,4 hPa 0,0 mm 5,0 km/h (1 Bft) N-NO 32 ° 1 min 0,000 mm 5,3 UV-I 788 W/m² 9,2 °C 15,8 °C 8,0 km/h (2 Bft)
07.05.2018 11:34 15,8 °C 66 % 1015,3 hPa 0,0 mm 5,4 km/h (1 Bft) O 81 ° 1 min 0,000 mm 5,3 UV-I 789 W/m² 9,5 °C 15,8 °C 12,9 km/h (3 Bft)
07.05.2018 11:35 15,9 °C 66 % 1015,3 hPa 0,0 mm 9,8 km/h (2 Bft) O-NO 62 ° 1 min 0,000 mm 5,3 UV-I 791 W/m² 9,6 °C 15,9 °C 16,1 km/h (3 Bft)
07.05.2018 11:36 15,9 °C 65 % 1015,3 hPa 0,0 mm 7,1 km/h (2 Bft) O-NO 64 ° 1 min 0,000 mm 5,3 UV-I 791 W/m² 9,3 °C 15,9 °C 11,3 km/h (2 Bft)
07.05.2018 11:37 15,9 °C 66 % 1015,2 hPa 0,0 mm 6,7 km/h (2 Bft) N 5 ° 1 min 0,000 mm 5,3 UV-I 793 W/m² 9,6 °C 15,9 °C 12,9 km/h (3 Bft)
07.05.2018 11:38 16,1 °C 66 % 1015,2 hPa 0,0 mm 9,5 km/h (2 Bft) N-NO 28 ° 1 min 0,000 mm 5,4 UV-I 795 W/m² 9,7 °C 16,1 °C 17,7 km/h (3 Bft)
07.05.2018 11:39 16,3 °C 65 % 1015,3 hPa 0,0 mm 6,8 km/h (2 Bft) NO 36 ° 1 min 0,000 mm 5,4 UV-I 795 W/m² 9,7 °C 16,3 °C 11,3 km/h (2 Bft)
07.05.2018 11:40 16,4 °C 64 % 1015,2 hPa 0,0 mm 9,3 km/h (2 Bft) NO 56 ° 1 min 0,000 mm 5,4 UV-I 798 W/m² 9,6 °C 16,4 °C 16,1 km/h (3 Bft)
07.05.2018 11:41 16,4 °C 63 % 1015,2 hPa 0,0 mm 8,0 km/h (2 Bft) O 83 ° 1 min 0,000 mm 5,4 UV-I 798 W/m² 9,3 °C 16,4 °C 12,9 km/h (3 Bft)
07.05.2018 11:42 16,4 °C 63 % 1015,2 hPa 0,0 mm 6,7 km/h (2 Bft) N-NO 28 ° 1 min 0,000 mm 5,4 UV-I 800 W/m² 9,3 °C 16,4 °C 12,9 km/h (3 Bft)
07.05.2018 11:43 16,4 °C 64 % 1015,2 hPa 0,0 mm 3,3 km/h (1 Bft) O-NO 65 ° 1 min 0,000 mm 5,4 UV-I 800 W/m² 9,6 °C 16,4 °C 6,4 km/h (2 Bft)
07.05.2018 11:44 16,4 °C 64 % 1015,2 hPa 0,0 mm 8,8 km/h (2 Bft) O 93 ° 1 min 0,000 mm 5,4 UV-I 802 W/m² 9,6 °C 16,4 °C 16,1 km/h (3 Bft)
07.05.2018 11:45 16,5 °C 65 % 1015,2 hPa 0,0 mm 8,6 km/h (2 Bft) O-NO 66 ° 1 min 0,000 mm 5,5 UV-I 803 W/m² 9,9 °C 16,5 °C 14,5 km/h (3 Bft)
07.05.2018 11:46 16,4 °C 63 % 1015,2 hPa 0,0 mm 8,7 km/h (2 Bft) O 81 ° 1 min 0,000 mm 5,5 UV-I 805 W/m² 9,3 °C 16,4 °C 12,9 km/h (3 Bft)
07.05.2018 11:47 16,3 °C 65 % 1015,3 hPa 0,0 mm 7,9 km/h (2 Bft) NO 46 ° 1 min 0,000 mm 5,5 UV-I 805 W/m² 9,7 °C 16,3 °C 11,3 km/h (2 Bft)
07.05.2018 11:48 16,3 °C 64 % 1015,2 hPa 0,0 mm 2,4 km/h (1 Bft) NO 44 ° 1 min 0,000 mm 5,5 UV-I 807 W/m² 9,5 °C 16,3 °C 4,8 km/h (1 Bft)
07.05.2018 11:49 16,3 °C 65 % 1015,2 hPa 0,0 mm 3,2 km/h (1 Bft) NO 43 ° 1 min 0,000 mm 5,5 UV-I 807 W/m² 9,7 °C 16,3 °C 6,4 km/h (2 Bft)
07.05.2018 11:50 16,4 °C 63 % 1015,2 hPa 0,0 mm 6,0 km/h (2 Bft) N-NO 25 ° 1 min 0,000 mm 5,5 UV-I 810 W/m² 9,3 °C 16,4 °C 11,3 km/h (2 Bft)
07.05.2018 11:51 16,4 °C 63 % 1015,2 hPa 0,0 mm 9,1 km/h (2 Bft) N 355 ° 1 min 0,000 mm 5,6 UV-I 810 W/m² 9,3 °C 16,4 °C 16,1 km/h (3 Bft)
07.05.2018 11:52 16,5 °C 65 % 1015,2 hPa 0,0 mm 7,0 km/h (2 Bft) NO 43 ° 1 min 0,000 mm 5,6 UV-I 812 W/m² 9,9 °C 16,5 °C 11,3 km/h (2 Bft)
07.05.2018 11:53 16,6 °C 63 % 1015,2 hPa 0,0 mm 4,3 km/h (1 Bft) NO 45 ° 1 min 0,000 mm 5,6 UV-I 812 W/m² 9,5 °C 16,6 °C 6,4 km/h (2 Bft)
07.05.2018 11:54 16,6 °C 62 % 1015,2 hPa 0,0 mm 7,6 km/h (2 Bft) O-SO 105 ° 1 min 0,000 mm 5,6 UV-I 814 W/m² 9,3 °C 16,6 °C 11,3 km/h (2 Bft)
07.05.2018 11:55 16,6 °C 62 % 1015,2 hPa 0,0 mm 4,3 km/h (1 Bft) O 88 ° 1 min 0,000 mm 5,6 UV-I 816 W/m² 9,3 °C 16,6 °C 9,7 km/h (2 Bft)
07.05.2018 11:56 16,7 °C 63 % 1015,1 hPa 0,0 mm 11,4 km/h (2 Bft) O-NO 59 ° 1 min 0,000 mm 5,6 UV-I 817 W/m² 9,6 °C 16,7 °C 17,7 km/h (3 Bft)
07.05.2018 11:57 16,8 °C 62 % 1015,1 hPa 0,0 mm 10,1 km/h (2 Bft) O 80 ° 1 min 0,000 mm 5,6 UV-I 817 W/m² 9,5 °C 16,8 °C 19,3 km/h (3 Bft)
07.05.2018 11:58 16,7 °C 62 % 1015,1 hPa 0,0 mm 8,6 km/h (2 Bft) NO 42 ° 1 min 0,000 mm 5,6 UV-I 819 W/m² 9,4 °C 16,7 °C 14,5 km/h (3 Bft)
07.05.2018 11:59 16,8 °C 63 % 1015,1 hPa 0,0 mm 7,0 km/h (2 Bft) SO 138 ° 1 min 0,000 mm 5,6 UV-I 819 W/m² 9,7 °C 16,8 °C 12,9 km/h (3 Bft)
07.05.2018 12:00 16,7 °C 64 % 1015,1 hPa 0,0 mm 5,7 km/h (1 Bft) N-NO 22 ° 1 min 0,000 mm 5,6 UV-I 821 W/m² 9,9 °C 16,7 °C 8,0 km/h (2 Bft)
07.05.2018 12:01 16,8 °C 62 % 1015,1 hPa 0,0 mm 6,9 km/h (2 Bft) O-NO 72 ° 1 min 0,432 mm 5,6 UV-I 821 W/m² 9,5 °C 16,8 °C 9,7 km/h (2 Bft)
07.05.2018 12:02 16,8 °C 63 % 1015,0 hPa 0,0 mm 4,0 km/h (1 Bft) N 5 ° 1 min 0,000 mm 5,7 UV-I 823 W/m² 9,7 °C 16,8 °C 6,4 km/h (2 Bft)
07.05.2018 12:03 16,9 °C 63 % 1015,0 hPa 0,0 mm 6,8 km/h (2 Bft) N-NO 32 ° 1 min 0,000 mm 5,7 UV-I 823 W/m² 9,8 °C 16,9 °C 12,9 km/h (3 Bft)
07.05.2018 12:04 16,9 °C 61 % 1015,0 hPa 0,0 mm 7,9 km/h (2 Bft) N-NO 23 ° 1 min 0,000 mm 5,7 UV-I 824 W/m² 9,3 °C 16,9 °C 14,5 km/h (3 Bft)
07.05.2018 12:05 16,9 °C 61 % 1015,0 hPa 0,0 mm 4,2 km/h (1 Bft) NO 39 ° 1 min 0,000 mm 5,7 UV-I 824 W/m² 9,3 °C 16,9 °C 6,4 km/h (2 Bft)
07.05.2018 12:06 16,9 °C 62 % 1015,0 hPa 0,0 mm 5,7 km/h (1 Bft) NO 42 ° 1 min 0,000 mm 5,7 UV-I 826 W/m² 9,6 °C 16,9 °C 11,3 km/h (2 Bft)
07.05.2018 12:07 17,1 °C 62 % 1015,0 hPa 0,0 mm 8,6 km/h (2 Bft) O-NO 69 ° 1 min 0,000 mm 5,7 UV-I 830 W/m² 9,8 °C 17,1 °C 17,7 km/h (3 Bft)
07.05.2018 12:08 17,1 °C 61 % 1015,1 hPa 0,0 mm 8,6 km/h (2 Bft) O-NO 63 ° 1 min 0,000 mm 5,7 UV-I 830 W/m² 9,5 °C 17,1 °C 12,9 km/h (3 Bft)
07.05.2018 12:09 16,9 °C 61 % 1015,0 hPa 0,0 mm 8,6 km/h (2 Bft) O-NO 60 ° 1 min 0,000 mm 5,7 UV-I 830 W/m² 9,3 °C 16,9 °C 11,3 km/h (2 Bft)
07.05.2018 12:10 16,9 °C 61 % 1015,0 hPa 0,0 mm 9,8 km/h (2 Bft) O-NO 61 ° 1 min 0,000 mm 5,7 UV-I 830 W/m² 9,3 °C 16,9 °C 16,1 km/h (3 Bft)
07.05.2018 12:11 16,9 °C 62 % 1015,0 hPa 0,0 mm 5,8 km/h (2 Bft) NO 51 ° 1 min 0,000 mm 5,7 UV-I 831 W/m² 9,6 °C 16,9 °C 9,7 km/h (2 Bft)
07.05.2018 12:12 17,0 °C 63 % 1014,9 hPa 0,0 mm 9,1 km/h (2 Bft) O 88 ° 1 min 0,000 mm 5,8 UV-I 830 W/m² 9,9 °C 17,0 °C 16,1 km/h (3 Bft)
07.05.2018 12:13 17,1 °C 62 % 1015,0 hPa 0,0 mm 5,5 km/h (1 Bft) N 9 ° 1 min 0,000 mm 5,8 UV-I 831 W/m² 9,8 °C 17,1 °C 11,3 km/h (2 Bft)
07.05.2018 12:14 17,2 °C 62 % 1015,0 hPa 0,0 mm 10,0 km/h (2 Bft) N-NO 12 ° 1 min 0,000 mm 5,8 UV-I 833 W/m² 9,9 °C 17,2 °C 14,5 km/h (3 Bft)
07.05.2018 12:15 17,2 °C 61 % 1015,0 hPa 0,0 mm 6,7 km/h (2 Bft) O-NO 70 ° 1 min 0,000 mm 5,8 UV-I 835 W/m² 9,6 °C 17,2 °C 8,0 km/h (2 Bft)
07.05.2018 12:16 17,2 °C 61 % 1015,0 hPa 0,0 mm 5,7 km/h (1 Bft) O-SO 112 ° 1 min 0,000 mm 5,8 UV-I 835 W/m² 9,6 °C 17,2 °C 6,4 km/h (2 Bft)
07.05.2018 12:17 17,3 °C 65 % 1015,0 hPa 0,0 mm 3,8 km/h (1 Bft) N 355 ° 1 min 0,000 mm 5,8 UV-I 837 W/m² 10,7 °C 17,3 °C 9,7 km/h (2 Bft)
07.05.2018 12:18 17,3 °C 61 % 1014,9 hPa 0,0 mm 7,6 km/h (2 Bft) NO 55 ° 1 min 0,000 mm 5,8 UV-I 837 W/m² 9,7 °C 17,3 °C 11,3 km/h (2 Bft)
07.05.2018 12:19 17,4 °C 62 % 1015,0 hPa 0,0 mm 5,5 km/h (1 Bft) O 84 ° 1 min 0,000 mm 5,8 UV-I 837 W/m² 10,0 °C 17,4 °C 12,9 km/h (3 Bft)
07.05.2018 12:20 17,4 °C 61 % 1015,0 hPa 0,0 mm 8,6 km/h (2 Bft) O-SO 102 ° 1 min 0,000 mm 5,8 UV-I 840 W/m² 9,8 °C 17,4 °C 16,1 km/h (3 Bft)
07.05.2018 12:21 17,3 °C 62 % 1015,0 hPa 0,0 mm 3,1 km/h (1 Bft) S-SO 166 ° 1 min 0,000 mm 5,8 UV-I 840 W/m² 9,9 °C 17,3 °C 6,4 km/h (2 Bft)
07.05.2018 12:22 17,3 °C 63 % 1015,0 hPa 0,0 mm 7,1 km/h (2 Bft) O-SO 113 ° 1 min 0,000 mm 5,8 UV-I 840 W/m² 10,2 °C 17,3 °C 12,9 km/h (3 Bft)
07.05.2018 12:23 17,4 °C 62 % 1015,0 hPa 0,0 mm 6,2 km/h (2 Bft) O-SO 119 ° 1 min 0,000 mm 5,8 UV-I 840 W/m² 10,0 °C 17,4 °C 9,7 km/h (2 Bft)
07.05.2018 12:24 17,6 °C 64 % 1015,0 hPa 0,0 mm 9,1 km/h (2 Bft) O-NO 69 ° 1 min 0,000 mm 5,8 UV-I 840 W/m² 10,7 °C 17,6 °C 16,1 km/h (3 Bft)
07.05.2018 12:25 17,6 °C 61 % 1014,9 hPa 0,0 mm 8,5 km/h (2 Bft) O-NO 66 ° 1 min 0,000 mm 5,9 UV-I 842 W/m² 10,0 °C 17,6 °C 12,9 km/h (3 Bft)
07.05.2018 12:26 17,6 °C 62 % 1015,0 hPa 0,0 mm 8,9 km/h (2 Bft) O 90 ° 1 min 0,000 mm 5,9 UV-I 842 W/m² 10,2 °C 17,6 °C 14,5 km/h (3 Bft)
07.05.2018 12:27 17,6 °C 61 % 1015,0 hPa 0,0 mm 8,6 km/h (2 Bft) NO 40 ° 1 min 0,000 mm 5,9 UV-I 844 W/m² 10,0 °C 17,6 °C 16,1 km/h (3 Bft)
07.05.2018 12:28 17,6 °C 61 % 1015,0 hPa 0,0 mm 6,1 km/h (2 Bft) O 90 ° 1 min 0,000 mm 5,9 UV-I 842 W/m² 10,0 °C 17,6 °C 11,3 km/h (2 Bft)
07.05.2018 12:29 17,6 °C 62 % 1015,0 hPa 0,0 mm 6,4 km/h (2 Bft) O-NO 65 ° 1 min 0,000 mm 5,9 UV-I 846 W/m² 10,2 °C 17,6 °C 9,7 km/h (2 Bft)
07.05.2018 12:30 17,6 °C 59 % 1014,9 hPa 0,0 mm 6,3 km/h (2 Bft) N-NO 33 ° 1 min 0,000 mm 5,9 UV-I 846 W/m² 9,5 °C 17,6 °C 12,9 km/h (3 Bft)
07.05.2018 12:31 17,7 °C 61 % 1014,9 hPa 0,0 mm 4,6 km/h (1 Bft) N-NO 13 ° 1 min 0,000 mm 5,9 UV-I 844 W/m² 10,1 °C 17,7 °C 6,4 km/h (2 Bft)
07.05.2018 12:32 17,7 °C 61 % 1015,0 hPa 0,0 mm 4,4 km/h (1 Bft) NO 52 ° 1 min 0,000 mm 5,9 UV-I 846 W/m² 10,1 °C 17,7 °C 6,4 km/h (2 Bft)
07.05.2018 12:33 17,8 °C 63 % 1014,9 hPa 0,0 mm 2,7 km/h (1 Bft) O 84 ° 1 min 0,000 mm 5,9 UV-I 847 W/m² 10,7 °C 17,8 °C 8,0 km/h (2 Bft)
07.05.2018 12:34 17,8 °C 61 % 1014,9 hPa 0,0 mm 7,1 km/h (2 Bft) O-NO 73 ° 1 min 0,000 mm 5,9 UV-I 847 W/m² 10,2 °C 17,8 °C 16,1 km/h (3 Bft)
07.05.2018 12:35 17,9 °C 60 % 1014,9 hPa 0,0 mm 9,7 km/h (2 Bft) O-NO 61 ° 1 min 0,000 mm 5,9 UV-I 847 W/m² 10,0 °C 17,9 °C 14,5 km/h (3 Bft)
07.05.2018 12:36 18,1 °C 63 % 1014,9 hPa 0,0 mm 5,3 km/h (1 Bft) O-NO 71 ° 1 min 0,000 mm 5,9 UV-I 847 W/m² 10,9 °C 18,1 °C 9,7 km/h (2 Bft)
07.05.2018 12:37 18,0 °C 61 % 1014,9 hPa 0,0 mm 4,8 km/h (1 Bft) O-NO 69 ° 1 min 0,000 mm 6,0 UV-I 849 W/m² 10,4 °C 18,0 °C 6,4 km/h (2 Bft)
07.05.2018 12:38 17,8 °C 61 % 1014,9 hPa 0,0 mm 4,9 km/h (1 Bft) O 91 ° 1 min 0,000 mm 6,0 UV-I 851 W/m² 10,2 °C 17,8 °C 9,7 km/h (2 Bft)
07.05.2018 12:39 17,8 °C 60 % 1014,9 hPa 0,0 mm 4,4 km/h (1 Bft) O-SO 105 ° 1 min 0,000 mm 5,9 UV-I 849 W/m² 9,9 °C 17,8 °C 9,7 km/h (2 Bft)
07.05.2018 12:40 17,7 °C 61 % 1014,9 hPa 0,0 mm 3,7 km/h (1 Bft) NO 51 ° 1 min 0,000 mm 5,9 UV-I 849 W/m² 10,1 °C 17,7 °C 8,0 km/h (2 Bft)
07.05.2018 12:41 17,8 °C 62 % 1014,8 hPa 0,0 mm 4,5 km/h (1 Bft) NO 48 ° 1 min 0,000 mm 5,9 UV-I 851 W/m² 10,4 °C 17,8 °C 11,3 km/h (2 Bft)
07.05.2018 12:42 17,8 °C 61 % 1014,8 hPa 0,0 mm 6,6 km/h (2 Bft) O 90 ° 1 min 0,000 mm 5,9 UV-I 851 W/m² 10,2 °C 17,8 °C 14,5 km/h (3 Bft)
07.05.2018 12:43 17,8 °C 61 % 1014,7 hPa 0,0 mm 2,8 km/h (1 Bft) N-NO 22 ° 1 min 0,000 mm 6,0 UV-I 854 W/m² 10,2 °C 17,8 °C 4,8 km/h (1 Bft)
07.05.2018 12:44 17,8 °C 61 % 1014,8 hPa 0,0 mm 4,3 km/h (1 Bft) SO 126 ° 1 min 0,000 mm 6,0 UV-I 854 W/m² 10,2 °C 17,8 °C 8,0 km/h (2 Bft)
07.05.2018 12:45 17,8 °C 60 % 1014,8 hPa 0,0 mm 6,2 km/h (2 Bft) O-SO 105 ° 1 min 0,000 mm 6,0 UV-I 853 W/m² 9,9 °C 17,8 °C 12,9 km/h (3 Bft)
07.05.2018 12:46 17,9 °C 60 % 1014,7 hPa 0,0 mm 5,9 km/h (2 Bft) NO 51 ° 1 min 0,000 mm 6,0 UV-I 854 W/m² 10,0 °C 17,9 °C 11,3 km/h (2 Bft)
07.05.2018 12:47 18,0 °C 65 % 1014,7 hPa 0,0 mm 7,5 km/h (2 Bft) N-NO 26 ° 1 min 0,000 mm 6,0 UV-I 854 W/m² 11,3 °C 18,0 °C 11,3 km/h (2 Bft)
07.05.2018 12:48 18,2 °C 62 % 1014,7 hPa 0,0 mm 7,1 km/h (2 Bft) N 360 ° 1 min 0,000 mm 6,0 UV-I 853 W/m² 10,8 °C 18,2 °C 12,9 km/h (3 Bft)
07.05.2018 12:49 18,3 °C 62 % 1014,7 hPa 0,0 mm 9,6 km/h (2 Bft) O-NO 58 ° 1 min 0,000 mm 6,0 UV-I 854 W/m² 10,9 °C 18,3 °C 14,5 km/h (3 Bft)
07.05.2018 12:50 18,3 °C 58 % 1014,7 hPa 0,0 mm 5,6 km/h (1 Bft) N-NO 29 ° 1 min 0,000 mm 6,0 UV-I 854 W/m² 9,9 °C 18,3 °C 12,9 km/h (3 Bft)
07.05.2018 12:51 18,3 °C 61 % 1014,7 hPa 0,0 mm 7,5 km/h (2 Bft) N-NO 21 ° 1 min 0,000 mm 6,0 UV-I 854 W/m² 10,6 °C 18,3 °C 12,9 km/h (3 Bft)
07.05.2018 12:52 18,4 °C 60 % 1014,7 hPa 0,0 mm 6,1 km/h (2 Bft) NO 56 ° 1 min 0,000 mm 6,0 UV-I 854 W/m² 10,5 °C 18,4 °C 12,9 km/h (3 Bft)
07.05.2018 12:53 18,4 °C 63 % 1014,7 hPa 0,0 mm 6,7 km/h (2 Bft) NO 41 ° 1 min 0,000 mm 6,0 UV-I 858 W/m² 11,2 °C 18,4 °C 11,3 km/h (2 Bft)
07.05.2018 12:54 18,5 °C 58 % 1014,6 hPa 0,0 mm 7,8 km/h (2 Bft) O 86 ° 1 min 0,000 mm 6,0 UV-I 856 W/m² 10,1 °C 18,5 °C 11,3 km/h (2 Bft)
07.05.2018 12:55 18,3 °C 58 % 1014,7 hPa 0,0 mm 6,3 km/h (2 Bft) N 5 ° 1 min 0,000 mm 6,1 UV-I 858 W/m² 9,9 °C 18,3 °C 11,3 km/h (2 Bft)
07.05.2018 12:56 18,4 °C 59 % 1014,7 hPa 0,0 mm 9,9 km/h (2 Bft) N 355 ° 1 min 0,000 mm 6,0 UV-I 856 W/m² 10,2 °C 18,4 °C 14,5 km/h (3 Bft)
07.05.2018 12:57 18,4 °C 58 % 1014,7 hPa 0,0 mm 7,7 km/h (2 Bft) N 350 ° 1 min 0,000 mm 6,0 UV-I 856 W/m² 10,0 °C 18,4 °C 14,5 km/h (3 Bft)
07.05.2018 12:58 18,5 °C 61 % 1014,6 hPa 0,0 mm 4,5 km/h (1 Bft) O-NO 78 ° 1 min 0,000 mm 6,0 UV-I 858 W/m² 10,8 °C 18,5 °C 8,0 km/h (2 Bft)
07.05.2018 12:59 18,5 °C 58 % 1014,6 hPa 0,0 mm 5,2 km/h (1 Bft) NO 56 ° 1 min 0,000 mm 6,0 UV-I 858 W/m² 10,1 °C 18,5 °C 11,3 km/h (2 Bft)
07.05.2018 13:00 18,5 °C 58 % 1014,7 hPa 0,0 mm 11,5 km/h (2 Bft) N-NO 26 ° 1 min 0,000 mm 6,1 UV-I 856 W/m² 10,1 °C 18,5 °C 17,7 km/h (3 Bft)
07.05.2018 13:01 18,4 °C 60 % 1014,7 hPa 0,0 mm 5,5 km/h (1 Bft) NO 42 ° 1 min 0,508 mm 6,1 UV-I 860 W/m² 10,5 °C 18,4 °C 9,7 km/h (2 Bft)
07.05.2018 13:02 18,4 °C 59 % 1014,6 hPa 0,0 mm 9,0 km/h (2 Bft) O-NO 61 ° 1 min 0,000 mm 6,1 UV-I 858 W/m² 10,2 °C 18,4 °C 14,5 km/h (3 Bft)
07.05.2018 13:03 18,4 °C 58 % 1014,7 hPa 0,0 mm 5,9 km/h (2 Bft) O-NO 67 ° 1 min 0,000 mm 6,1 UV-I 860 W/m² 10,0 °C 18,4 °C 8,0 km/h (2 Bft)
07.05.2018 13:04 18,4 °C 58 % 1014,7 hPa 0,0 mm 6,9 km/h (2 Bft) O 80 ° 1 min 0,000 mm 6,1 UV-I 860 W/m² 10,0 °C 18,4 °C 9,7 km/h (2 Bft)
07.05.2018 13:05 18,4 °C 58 % 1014,7 hPa 0,0 mm 4,6 km/h (1 Bft) O-NO 70 ° 1 min 0,000 mm 6,0 UV-I 860 W/m² 10,0 °C 18,4 °C 11,3 km/h (2 Bft)
07.05.2018 13:06 18,3 °C 58 % 1014,7 hPa 0,0 mm 1,5 km/h (1 Bft) O-NO 57 ° 1 min 0,000 mm 6,0 UV-I 860 W/m² 9,9 °C 18,3 °C 3,2 km/h (1 Bft)
07.05.2018 13:07 18,3 °C 60 % 1014,7 hPa 0,0 mm 6,0 km/h (2 Bft) NO 34 ° 1 min 0,000 mm 6,1 UV-I 860 W/m² 10,4 °C 18,3 °C 9,7 km/h (2 Bft)
07.05.2018 13:08 18,3 °C 58 % 1014,7 hPa 0,0 mm 5,1 km/h (1 Bft) O 98 ° 1 min 0,000 mm 6,0 UV-I 860 W/m² 9,9 °C 18,3 °C 9,7 km/h (2 Bft)
07.05.2018 13:09 18,3 °C 59 % 1014,7 hPa 0,0 mm 4,4 km/h (1 Bft) O-NO 73 ° 1 min 0,000 mm 6,1 UV-I 860 W/m² 10,1 °C 18,3 °C 8,0 km/h (2 Bft)
07.05.2018 13:10 18,3 °C 58 % 1014,6 hPa 0,0 mm 6,9 km/h (2 Bft) N-NO 17 ° 1 min 0,000 mm 6,1 UV-I 861 W/m² 9,9 °C 18,3 °C 12,9 km/h (3 Bft)
07.05.2018 13:11 18,4 °C 59 % 1014,6 hPa 0,0 mm 7,0 km/h (2 Bft) NO 43 ° 1 min 0,000 mm 6,1 UV-I 861 W/m² 10,2 °C 18,4 °C 9,7 km/h (2 Bft)
07.05.2018 13:12 18,5 °C 59 % 1014,6 hPa 0,0 mm 5,6 km/h (1 Bft) N-NO 24 ° 1 min 0,000 mm 6,0 UV-I 860 W/m² 10,3 °C 18,5 °C 11,3 km/h (2 Bft)
07.05.2018 13:13 18,6 °C 58 % 1014,6 hPa 0,0 mm 4,3 km/h (1 Bft) O 94 ° 1 min 0,000 mm 6,0 UV-I 860 W/m² 10,2 °C 18,6 °C 9,7 km/h (2 Bft)
07.05.2018 13:14 18,7 °C 59 % 1014,6 hPa 0,0 mm 3,9 km/h (1 Bft) O-SO 117 ° 1 min 0,000 mm 6,1 UV-I 860 W/m² 10,5 °C 18,7 °C 9,7 km/h (2 Bft)
07.05.2018 13:15 18,7 °C 58 % 1014,6 hPa 0,0 mm 3,0 km/h (1 Bft) O 82 ° 1 min 0,000 mm 6,1 UV-I 860 W/m² 10,3 °C 18,7 °C 4,8 km/h (1 Bft)
07.05.2018 13:16 18,7 °C 61 % 1014,6 hPa 0,0 mm 8,4 km/h (2 Bft) O-NO 65 ° 1 min 0,000 mm 6,0 UV-I 860 W/m² 11,0 °C 18,7 °C 20,9 km/h (4 Bft)
07.05.2018 13:17 18,9 °C 60 % 1014,5 hPa 0,0 mm 9,7 km/h (2 Bft) NO 42 ° 1 min 0,000 mm 6,1 UV-I 860 W/m² 11,0 °C 18,9 °C 17,7 km/h (3 Bft)
07.05.2018 13:18 19,0 °C 60 % 1014,5 hPa 0,0 mm 6,0 km/h (2 Bft) O 92 ° 1 min 0,000 mm 6,1 UV-I 860 W/m² 11,1 °C 19,0 °C 11,3 km/h (2 Bft)
07.05.2018 13:19 19,1 °C 60 % 1014,5 hPa 0,0 mm 5,4 km/h (1 Bft) O-NO 67 ° 1 min 0,000 mm 6,1 UV-I 860 W/m² 11,1 °C 19,1 °C 9,7 km/h (2 Bft)
07.05.2018 13:20 19,1 °C 59 % 1014,5 hPa 0,0 mm 7,6 km/h (2 Bft) NO 53 ° 1 min 0,000 mm 6,1 UV-I 860 W/m² 10,9 °C 19,1 °C 9,7 km/h (2 Bft)
07.05.2018 13:21 19,2 °C 58 % 1014,4 hPa 0,0 mm 5,6 km/h (1 Bft) O-NO 60 ° 1 min 0,000 mm 6,0 UV-I 858 W/m² 10,7 °C 19,2 °C 9,7 km/h (2 Bft)
07.05.2018 13:22 19,3 °C 58 % 1014,4 hPa 0,0 mm 4,5 km/h (1 Bft) NO 49 ° 1 min 0,000 mm 6,1 UV-I 860 W/m² 10,8 °C 19,3 °C 6,4 km/h (2 Bft)
07.05.2018 13:23 19,4 °C 59 % 1014,4 hPa 0,0 mm 7,9 km/h (2 Bft) O-NO 63 ° 1 min 0,000 mm 6,1 UV-I 861 W/m² 11,2 °C 19,4 °C 12,9 km/h (3 Bft)
07.05.2018 13:24 19,6 °C 61 % 1014,5 hPa 0,0 mm 8,0 km/h (2 Bft) O 101 ° 1 min 0,000 mm 6,1 UV-I 860 W/m² 11,9 °C 19,6 °C 14,5 km/h (3 Bft)
07.05.2018 13:25 19,5 °C 55 % 1014,4 hPa 0,0 mm 9,0 km/h (2 Bft) SO 142 ° 1 min 0,000 mm 6,0 UV-I 858 W/m² 10,2 °C 19,5 °C 14,5 km/h (3 Bft)
07.05.2018 13:26 19,3 °C 56 % 1014,4 hPa 0,0 mm 5,1 km/h (1 Bft) O 92 ° 1 min 0,000 mm 6,1 UV-I 861 W/m² 10,3 °C 19,3 °C 11,3 km/h (2 Bft)
07.05.2018 13:27 19,2 °C 59 % 1014,4 hPa 0,0 mm 3,1 km/h (1 Bft) SO 137 ° 1 min 0,000 mm 6,1 UV-I 861 W/m² 11,0 °C 19,2 °C 6,4 km/h (2 Bft)
07.05.2018 13:28 18,9 °C 55 % 1014,4 hPa 0,0 mm 2,9 km/h (1 Bft) O 92 ° 1 min 0,000 mm 6,1 UV-I 861 W/m² 9,7 °C 18,9 °C 6,4 km/h (2 Bft)
07.05.2018 13:29 18,9 °C 61 % 1014,3 hPa 0,0 mm 2,7 km/h (1 Bft) N-NO 18 ° 1 min 0,000 mm 6,1 UV-I 861 W/m² 11,2 °C 18,9 °C 6,4 km/h (2 Bft)
07.05.2018 13:30 18,9 °C 60 % 1014,3 hPa 0,0 mm 8,7 km/h (2 Bft) NO 34 ° 1 min 0,000 mm 6,1 UV-I 858 W/m² 11,0 °C 18,9 °C 12,9 km/h (3 Bft)
07.05.2018 13:31 19,1 °C 56 % 1014,3 hPa 0,0 mm 6,6 km/h (2 Bft) O 92 ° 1 min 0,000 mm 6,0 UV-I 858 W/m² 10,1 °C 19,1 °C 12,9 km/h (3 Bft)
07.05.2018 13:32 19,1 °C 56 % 1014,2 hPa 0,0 mm 7,2 km/h (2 Bft) O-NO 60 ° 1 min 0,000 mm 6,0 UV-I 858 W/m² 10,1 °C 19,1 °C 12,9 km/h (3 Bft)
07.05.2018 13:33 19,2 °C 57 % 1014,3 hPa 0,0 mm 9,1 km/h (2 Bft) NO 40 ° 1 min 0,000 mm 6,0 UV-I 858 W/m² 10,5 °C 19,2 °C 16,1 km/h (3 Bft)
07.05.2018 13:34 19,2 °C 56 % 1014,3 hPa 0,0 mm 10,9 km/h (2 Bft) O-NO 63 ° 1 min 0,000 mm 6,0 UV-I 860 W/m² 10,2 °C 19,2 °C 14,5 km/h (3 Bft)
07.05.2018 13:35 19,3 °C 56 % 1014,2 hPa 0,0 mm 9,5 km/h (2 Bft) O-NO 61 ° 1 min 0,000 mm 6,0 UV-I 860 W/m² 10,3 °C 19,3 °C 12,9 km/h (3 Bft)
07.05.2018 13:36 19,2 °C 56 % 1014,2 hPa 0,0 mm 5,9 km/h (2 Bft) O-NO 60 ° 1 min 0,000 mm 6,0 UV-I 856 W/m² 10,2 °C 19,2 °C 8,0 km/h (2 Bft)
07.05.2018 13:37 19,3 °C 58 % 1014,2 hPa 0,0 mm 4,0 km/h (1 Bft) O 80 ° 1 min 0,000 mm 6,0 UV-I 858 W/m² 10,8 °C 19,3 °C 6,4 km/h (2 Bft)
07.05.2018 13:38 19,4 °C 59 % 1014,2 hPa 0,0 mm 3,5 km/h (1 Bft) O-SO 117 ° 1 min 0,000 mm 6,0 UV-I 856 W/m² 11,2 °C 19,4 °C 6,4 km/h (2 Bft)
07.05.2018 13:39 19,6 °C 57 % 1014,2 hPa 0,0 mm 8,2 km/h (2 Bft) O-NO 63 ° 1 min 0,000 mm 6,0 UV-I 856 W/m² 10,8 °C 19,6 °C 14,5 km/h (3 Bft)
07.05.2018 13:40 19,7 °C 56 % 1014,2 hPa 0,0 mm 9,5 km/h (2 Bft) O 83 ° 1 min 0,000 mm 6,0 UV-I 856 W/m² 10,7 °C 19,7 °C 14,5 km/h (3 Bft)
07.05.2018 13:41 19,7 °C 56 % 1014,3 hPa 0,0 mm 12,9 km/h (3 Bft) O-NO 67 ° 1 min 0,000 mm 6,0 UV-I 856 W/m² 10,7 °C 19,7 °C 19,3 km/h (3 Bft)
07.05.2018 13:42 19,5 °C 55 % 1014,2 hPa 0,0 mm 8,1 km/h (2 Bft) N-NO 13 ° 1 min 0,000 mm 6,0 UV-I 854 W/m² 10,2 °C 19,5 °C 12,9 km/h (3 Bft)
07.05.2018 13:43 19,4 °C 55 % 1014,1 hPa 0,0 mm 7,3 km/h (2 Bft) N 355 ° 1 min 0,000 mm 6,0 UV-I 854 W/m² 10,1 °C 19,4 °C 17,7 km/h (3 Bft)
07.05.2018 13:44 19,3 °C 55 % 1014,2 hPa 0,0 mm 6,5 km/h (2 Bft) O-NO 59 ° 1 min 0,000 mm 6,0 UV-I 854 W/m² 10,0 °C 19,3 °C 11,3 km/h (2 Bft)
07.05.2018 13:45 19,3 °C 55 % 1014,1 hPa 0,0 mm 6,8 km/h (2 Bft) O 92 ° 1 min 0,000 mm 5,9 UV-I 854 W/m² 10,0 °C 19,3 °C 9,7 km/h (2 Bft)
07.05.2018 13:46 19,3 °C 57 % 1014,2 hPa 0,0 mm 4,4 km/h (1 Bft) O 84 ° 1 min 0,000 mm 6,0 UV-I 854 W/m² 10,6 °C 19,3 °C 9,7 km/h (2 Bft)
07.05.2018 13:47 19,4 °C 57 % 1014,1 hPa 0,0 mm 6,7 km/h (2 Bft) O-SO 122 ° 1 min 0,000 mm 6,0 UV-I 853 W/m² 10,7 °C 19,4 °C 11,3 km/h (2 Bft)
07.05.2018 13:48 19,5 °C 57 % 1014,2 hPa 0,0 mm 5,7 km/h (1 Bft) N 360 ° 1 min 0,000 mm 5,9 UV-I 853 W/m² 10,8 °C 19,5 °C 9,7 km/h (2 Bft)
07.05.2018 13:49 19,6 °C 57 % 1014,2 hPa 0,0 mm 10,4 km/h (2 Bft) N 355 ° 1 min 0,000 mm 5,9 UV-I 853 W/m² 10,8 °C 19,6 °C 19,3 km/h (3 Bft)
07.05.2018 13:50 19,6 °C 55 % 1014,2 hPa 0,0 mm 3,8 km/h (1 Bft) N 5 ° 1 min 0,000 mm 5,9 UV-I 853 W/m² 10,3 °C 19,6 °C 8,0 km/h (2 Bft)
07.05.2018 13:51 19,6 °C 55 % 1014,2 hPa 0,0 mm 10,4 km/h (2 Bft) NO 54 ° 1 min 0,000 mm 5,9 UV-I 853 W/m² 10,3 °C 19,6 °C 14,5 km/h (3 Bft)
07.05.2018 13:52 19,5 °C 54 % 1014,2 hPa 0,0 mm 6,9 km/h (2 Bft) N-NO 33 ° 1 min 0,000 mm 5,9 UV-I 853 W/m² 9,9 °C 19,5 °C 14,5 km/h (3 Bft)
07.05.2018 13:53 19,4 °C 55 % 1014,2 hPa 0,0 mm 10,9 km/h (2 Bft) O-NO 59 ° 1 min 0,000 mm 5,9 UV-I 851 W/m² 10,1 °C 19,4 °C 17,7 km/h (3 Bft)
07.05.2018 13:54 19,4 °C 57 % 1014,2 hPa 0,0 mm 10,3 km/h (2 Bft) SO 146 ° 1 min 0,000 mm 5,9 UV-I 851 W/m² 10,7 °C 19,4 °C 16,1 km/h (3 Bft)
07.05.2018 13:55 19,3 °C 55 % 1014,2 hPa 0,0 mm 5,6 km/h (1 Bft) O 96 ° 1 min 0,000 mm 5,9 UV-I 849 W/m² 10,0 °C 19,3 °C 11,3 km/h (2 Bft)
07.05.2018 13:56 19,3 °C 58 % 1014,1 hPa 0,0 mm 8,6 km/h (2 Bft) O 97 ° 1 min 0,000 mm 5,9 UV-I 849 W/m² 10,8 °C 19,3 °C 11,3 km/h (2 Bft)
07.05.2018 13:57 19,3 °C 57 % 1014,1 hPa 0,0 mm 7,5 km/h (2 Bft) O 84 ° 1 min 0,000 mm 5,9 UV-I 849 W/m² 10,6 °C 19,3 °C 11,3 km/h (2 Bft)
07.05.2018 13:58 19,4 °C 57 % 1014,1 hPa 0,0 mm 6,0 km/h (2 Bft) NO 38 ° 1 min 0,000 mm 5,9 UV-I 847 W/m² 10,7 °C 19,4 °C 11,3 km/h (2 Bft)
07.05.2018 13:59 19,5 °C 55 % 1014,1 hPa 0,0 mm 10,2 km/h (2 Bft) NO 51 ° 1 min 0,000 mm 5,9 UV-I 847 W/m² 10,2 °C 19,5 °C 16,1 km/h (3 Bft)
07.05.2018 14:00 19,5 °C 54 % 1014,1 hPa 0,0 mm 4,9 km/h (1 Bft) O 82 ° 1 min 0,000 mm 5,8 UV-I 846 W/m² 9,9 °C 19,5 °C 8,0 km/h (2 Bft)
07.05.2018 14:01 19,4 °C 54 % 1014,0 hPa 0,0 mm 5,6 km/h (1 Bft) NO 36 ° 1 min 0,533 mm 5,8 UV-I 846 W/m² 9,8 °C 19,4 °C 9,7 km/h (2 Bft)
07.05.2018 14:02 19,6 °C 55 % 1014,0 hPa 0,0 mm 9,9 km/h (2 Bft) NO 40 ° 1 min 0,000 mm 5,8 UV-I 844 W/m² 10,3 °C 19,6 °C 16,1 km/h (3 Bft)
07.05.2018 14:03 19,6 °C 54 % 1014,1 hPa 0,0 mm 10,3 km/h (2 Bft) O-NO 75 ° 1 min 0,000 mm 5,8 UV-I 844 W/m² 10,0 °C 19,6 °C 19,3 km/h (3 Bft)
07.05.2018 14:04 19,5 °C 55 % 1014,1 hPa 0,0 mm 5,6 km/h (1 Bft) NO 36 ° 1 min 0,000 mm 5,8 UV-I 844 W/m² 10,2 °C 19,5 °C 12,9 km/h (3 Bft)
07.05.2018 14:05 19,5 °C 57 % 1014,0 hPa 0,0 mm 5,2 km/h (1 Bft) NO 34 ° 1 min 0,000 mm 5,8 UV-I 840 W/m² 10,8 °C 19,5 °C 9,7 km/h (2 Bft)
07.05.2018 14:06 19,6 °C 56 % 1014,0 hPa 0,0 mm 6,8 km/h (2 Bft) NO 45 ° 1 min 0,000 mm 5,8 UV-I 840 W/m² 10,6 °C 19,6 °C 9,7 km/h (2 Bft)
07.05.2018 14:07 19,6 °C 55 % 1014,1 hPa 0,0 mm 2,8 km/h (1 Bft) N-NO 28 ° 1 min 0,000 mm 5,8 UV-I 846 W/m² 10,3 °C 19,6 °C 6,4 km/h (2 Bft)
07.05.2018 14:08 19,6 °C 56 % 1014,0 hPa 0,0 mm 7,2 km/h (2 Bft) O-NO 75 ° 1 min 0,000 mm 5,8 UV-I 844 W/m² 10,6 °C 19,6 °C 17,7 km/h (3 Bft)
07.05.2018 14:09 19,6 °C 53 % 1014,1 hPa 0,0 mm 9,9 km/h (2 Bft) O-NO 64 ° 1 min 0,000 mm 5,7 UV-I 840 W/m² 9,8 °C 19,6 °C 16,1 km/h (3 Bft)
07.05.2018 14:10 19,6 °C 56 % 1014,0 hPa 0,0 mm 10,6 km/h (2 Bft) O-NO 74 ° 1 min 0,000 mm 5,7 UV-I 837 W/m² 10,6 °C 19,6 °C 17,7 km/h (3 Bft)
07.05.2018 14:11 19,6 °C 54 % 1014,1 hPa 0,0 mm 10,9 km/h (2 Bft) O-NO 75 ° 1 min 0,000 mm 5,7 UV-I 837 W/m² 10,0 °C 19,6 °C 19,3 km/h (3 Bft)
07.05.2018 14:12 19,6 °C 56 % 1014,1 hPa 0,0 mm 11,2 km/h (2 Bft) O-NO 70 ° 1 min 0,000 mm 5,7 UV-I 837 W/m² 10,6 °C 19,6 °C 19,3 km/h (3 Bft)
07.05.2018 14:13 19,4 °C 54 % 1014,1 hPa 0,0 mm 9,0 km/h (2 Bft) O 85 ° 1 min 0,000 mm 5,7 UV-I 835 W/m² 9,8 °C 19,4 °C 16,1 km/h (3 Bft)
07.05.2018 14:14 19,4 °C 54 % 1014,0 hPa 0,0 mm 8,2 km/h (2 Bft) NO 54 ° 1 min 0,000 mm 5,7 UV-I 837 W/m² 9,8 °C 19,4 °C 16,1 km/h (3 Bft)
07.05.2018 14:15 19,2 °C 53 % 1014,0 hPa 0,0 mm 6,4 km/h (2 Bft) NO 55 ° 1 min 0,000 mm 5,7 UV-I 835 W/m² 9,4 °C 19,2 °C 11,3 km/h (2 Bft)
07.05.2018 14:16 19,3 °C 56 % 1014,0 hPa 0,0 mm 5,2 km/h (1 Bft) O 80 ° 1 min 0,000 mm 5,7 UV-I 835 W/m² 10,3 °C 19,3 °C 9,7 km/h (2 Bft)
07.05.2018 14:17 19,3 °C 56 % 1013,9 hPa 0,0 mm 6,8 km/h (2 Bft) O-NO 73 ° 1 min 0,000 mm 5,7 UV-I 833 W/m² 10,3 °C 19,3 °C 12,9 km/h (3 Bft)
07.05.2018 14:18 19,5 °C 58 % 1013,9 hPa 0,0 mm 7,4 km/h (2 Bft) NO 45 ° 1 min 0,000 mm 5,6 UV-I 831 W/m² 11,0 °C 19,5 °C 16,1 km/h (3 Bft)
07.05.2018 14:19 19,6 °C 56 % 1013,9 hPa 0,0 mm 12,7 km/h (3 Bft) NO 42 ° 1 min 0,000 mm 5,6 UV-I 831 W/m² 10,6 °C 19,6 °C 17,7 km/h (3 Bft)
07.05.2018 14:20 19,7 °C 53 % 1013,9 hPa 0,0 mm 8,7 km/h (2 Bft) O 83 ° 1 min 0,000 mm 5,6 UV-I 831 W/m² 9,8 °C 19,7 °C 12,9 km/h (3 Bft)
07.05.2018 14:21 19,7 °C 53 % 1013,9 hPa 0,0 mm 14,1 km/h (3 Bft) O 88 ° 1 min 0,000 mm 5,6 UV-I 830 W/m² 9,8 °C 19,7 °C 17,7 km/h (3 Bft)
07.05.2018 14:22 19,6 °C 54 % 1013,9 hPa 0,0 mm 6,6 km/h (2 Bft) NO 47 ° 1 min 0,000 mm 5,6 UV-I 828 W/m² 10,0 °C 19,6 °C 16,1 km/h (3 Bft)
07.05.2018 14:23 19,7 °C 55 % 1013,9 hPa 0,0 mm 8,2 km/h (2 Bft) O-NO 71 ° 1 min 0,000 mm 5,6 UV-I 828 W/m² 10,4 °C 19,7 °C 12,9 km/h (3 Bft)
07.05.2018 14:24 19,9 °C 57 % 1013,9 hPa 0,0 mm 5,4 km/h (1 Bft) N-NO 32 ° 1 min 0,000 mm 5,6 UV-I 828 W/m² 11,1 °C 19,9 °C 9,7 km/h (2 Bft)
07.05.2018 14:25 20,0 °C 54 % 1013,9 hPa 0,0 mm 9,5 km/h (2 Bft) O-NO 58 ° 1 min 0,000 mm 5,6 UV-I 824 W/m² 10,4 °C 20,0 °C 14,5 km/h (3 Bft)
07.05.2018 14:26 20,1 °C 54 % 1013,9 hPa 0,0 mm 9,6 km/h (2 Bft) NO 34 ° 1 min 0,000 mm 5,5 UV-I 824 W/m² 10,5 °C 20,1 °C 14,5 km/h (3 Bft)
07.05.2018 14:27 20,1 °C 54 % 1013,9 hPa 0,0 mm 4,8 km/h (1 Bft) N-NO 13 ° 1 min 0,000 mm 5,6 UV-I 826 W/m² 10,5 °C 20,1 °C 8,0 km/h (2 Bft)
07.05.2018 14:28 20,1 °C 57 % 1013,8 hPa 0,0 mm 3,2 km/h (1 Bft) NO 53 ° 1 min 0,000 mm 5,6 UV-I 823 W/m² 11,3 °C 20,1 °C 6,4 km/h (2 Bft)
07.05.2018 14:29 20,3 °C 54 % 1013,9 hPa 0,0 mm 6,2 km/h (2 Bft) N-NO 24 ° 1 min 0,000 mm 5,5 UV-I 817 W/m² 10,7 °C 20,3 °C 8,0 km/h (2 Bft)
07.05.2018 14:30 20,3 °C 52 % 1013,9 hPa 0,0 mm 9,0 km/h (2 Bft) N 11 ° 1 min 0,000 mm 5,5 UV-I 819 W/m² 10,1 °C 20,3 °C 12,9 km/h (3 Bft)
07.05.2018 14:31 20,3 °C 53 % 1013,9 hPa 0,0 mm 6,0 km/h (2 Bft) N-NO 28 ° 1 min 0,000 mm 5,5 UV-I 817 W/m² 10,4 °C 20,3 °C 9,7 km/h (2 Bft)
07.05.2018 14:32 20,3 °C 51 % 1013,9 hPa 0,0 mm 6,1 km/h (2 Bft) O-NO 57 ° 1 min 0,000 mm 5,5 UV-I 819 W/m² 9,8 °C 20,3 °C 8,0 km/h (2 Bft)
07.05.2018 14:33 20,2 °C 55 % 1013,9 hPa 0,0 mm 12,2 km/h (2 Bft) O 100 ° 1 min 0,000 mm 5,5 UV-I 816 W/m² 10,9 °C 20,2 °C 19,3 km/h (3 Bft)
07.05.2018 14:34 20,3 °C 55 % 1013,8 hPa 0,0 mm 5,0 km/h (1 Bft) O-NO 69 ° 1 min 0,000 mm 5,5 UV-I 812 W/m² 11,0 °C 20,3 °C 12,9 km/h (3 Bft)
07.05.2018 14:35 20,2 °C 53 % 1013,9 hPa 0,0 mm 7,0 km/h (2 Bft) O 93 ° 1 min 0,000 mm 5,4 UV-I 810 W/m² 10,3 °C 20,2 °C 19,3 km/h (3 Bft)
07.05.2018 14:36 20,2 °C 53 % 1013,9 hPa 0,0 mm 13,6 km/h (3 Bft) O 82 ° 1 min 0,000 mm 5,4 UV-I 812 W/m² 10,3 °C 20,2 °C 20,9 km/h (4 Bft)
07.05.2018 14:37 20,1 °C 53 % 1013,9 hPa 0,0 mm 7,8 km/h (2 Bft) NO 55 ° 1 min 0,000 mm 5,4 UV-I 810 W/m² 10,2 °C 20,1 °C 14,5 km/h (3 Bft)
07.05.2018 14:38 19,9 °C 53 % 1013,8 hPa 0,0 mm 5,8 km/h (2 Bft) N 5 ° 1 min 0,000 mm 5,4 UV-I 809 W/m² 10,0 °C 19,9 °C 12,9 km/h (3 Bft)
07.05.2018 14:39 20,1 °C 52 % 1013,8 hPa 0,0 mm 8,7 km/h (2 Bft) N-NO 28 ° 1 min 0,000 mm 5,4 UV-I 809 W/m² 9,9 °C 20,1 °C 12,9 km/h (3 Bft)
07.05.2018 14:40 20,1 °C 53 % 1013,7 hPa 0,0 mm 11,5 km/h (2 Bft) N-NW 346 ° 1 min 0,000 mm 5,4 UV-I 807 W/m² 10,2 °C 20,1 °C 17,7 km/h (3 Bft)
07.05.2018 14:41 20,1 °C 53 % 1013,6 hPa 0,0 mm 10,2 km/h (2 Bft) O-SO 111 ° 1 min 0,000 mm 5,4 UV-I 807 W/m² 10,2 °C 20,1 °C 17,7 km/h (3 Bft)
07.05.2018 14:42 20,2 °C 56 % 1013,7 hPa 0,0 mm 8,3 km/h (2 Bft) O-NO 61 ° 1 min 0,000 mm 5,3 UV-I 803 W/m² 11,1 °C 20,2 °C 12,9 km/h (3 Bft)
07.05.2018 14:43 20,3 °C 53 % 1013,7 hPa 0,0 mm 9,2 km/h (2 Bft) O-NO 71 ° 1 min 0,000 mm 5,3 UV-I 805 W/m² 10,4 °C 20,3 °C 14,5 km/h (3 Bft)
07.05.2018 14:44 20,2 °C 54 % 1013,7 hPa 0,0 mm 8,3 km/h (2 Bft) NO 40 ° 1 min 0,000 mm 5,3 UV-I 803 W/m² 10,6 °C 20,2 °C 14,5 km/h (3 Bft)
07.05.2018 14:45 20,2 °C 54 % 1013,7 hPa 0,0 mm 4,7 km/h (1 Bft) O 86 ° 1 min 0,000 mm 5,3 UV-I 805 W/m² 10,6 °C 20,2 °C 8,0 km/h (2 Bft)
07.05.2018 14:46 20,2 °C 53 % 1013,7 hPa 0,0 mm 2,7 km/h (1 Bft) NO 55 ° 1 min 0,000 mm 5,3 UV-I 802 W/m² 10,3 °C 20,2 °C 4,8 km/h (1 Bft)
07.05.2018 14:47 20,2 °C 54 % 1013,7 hPa 0,0 mm 5,4 km/h (1 Bft) N-NO 31 ° 1 min 0,000 mm 5,3 UV-I 800 W/m² 10,6 °C 20,2 °C 11,3 km/h (2 Bft)
07.05.2018 14:48 20,3 °C 53 % 1013,7 hPa 0,0 mm 10,0 km/h (2 Bft) O 89 ° 1 min 0,000 mm 5,3 UV-I 800 W/m² 10,4 °C 20,3 °C 19,3 km/h (3 Bft)
07.05.2018 14:49 20,3 °C 53 % 1013,7 hPa 0,0 mm 8,4 km/h (2 Bft) O-NO 59 ° 1 min 0,000 mm 5,3 UV-I 796 W/m² 10,4 °C 20,3 °C 16,1 km/h (3 Bft)
07.05.2018 14:50 20,3 °C 52 % 1013,7 hPa 0,0 mm 8,8 km/h (2 Bft) O-NO 69 ° 1 min 0,000 mm 5,2 UV-I 795 W/m² 10,1 °C 20,3 °C 14,5 km/h (3 Bft)
07.05.2018 14:51 20,2 °C 52 % 1013,6 hPa 0,0 mm 10,1 km/h (2 Bft) O 92 ° 1 min 0,000 mm 5,2 UV-I 793 W/m² 10,0 °C 20,2 °C 12,9 km/h (3 Bft)
07.05.2018 14:52 20,2 °C 54 % 1013,6 hPa 0,0 mm 11,8 km/h (2 Bft) NO 51 ° 1 min 0,000 mm 5,2 UV-I 791 W/m² 10,6 °C 20,2 °C 20,9 km/h (4 Bft)
07.05.2018 14:53 20,1 °C 53 % 1013,6 hPa 0,0 mm 9,4 km/h (2 Bft) N-NW 334 ° 1 min 0,000 mm 5,2 UV-I 789 W/m² 10,2 °C 20,1 °C 16,1 km/h (3 Bft)
07.05.2018 14:54 20,2 °C 52 % 1013,5 hPa 0,0 mm 10,9 km/h (2 Bft) O-SO 109 ° 1 min 0,000 mm 5,2 UV-I 788 W/m² 10,0 °C 20,2 °C 14,5 km/h (3 Bft)
07.05.2018 14:55 20,1 °C 52 % 1013,6 hPa 0,0 mm 7,5 km/h (2 Bft) O-NO 68 ° 1 min 0,000 mm 5,1 UV-I 788 W/m² 9,9 °C 20,1 °C 12,9 km/h (3 Bft)
07.05.2018 14:56 20,2 °C 53 % 1013,5 hPa 0,0 mm 7,0 km/h (2 Bft) O 81 ° 1 min 0,000 mm 5,1 UV-I 786 W/m² 10,3 °C 20,2 °C 12,9 km/h (3 Bft)
07.05.2018 14:57 20,2 °C 52 % 1013,5 hPa 0,0 mm 6,4 km/h (2 Bft) O 88 ° 1 min 0,000 mm 5,1 UV-I 786 W/m² 10,0 °C 20,2 °C 11,3 km/h (2 Bft)
07.05.2018 14:58 20,1 °C 52 % 1013,5 hPa 0,0 mm 6,2 km/h (2 Bft) O 94 ° 1 min 0,000 mm 5,1 UV-I 780 W/m² 9,9 °C 20,1 °C 11,3 km/h (2 Bft)
07.05.2018 14:59 20,1 °C 52 % 1013,5 hPa 0,0 mm 2,5 km/h (1 Bft) NO 34 ° 1 min 0,000 mm 5,1 UV-I 779 W/m² 9,9 °C 20,1 °C 3,2 km/h (1 Bft)
07.05.2018 15:00 20,2 °C 52 % 1013,4 hPa 0,0 mm 5,5 km/h (1 Bft) O-SO 116 ° 1 min 0,000 mm 5,0 UV-I 777 W/m² 10,0 °C 20,2 °C 16,1 km/h (3 Bft)
07.05.2018 15:01 20,2 °C 53 % 1013,4 hPa 0,0 mm 5,1 km/h (1 Bft) O-NO 75 ° 1 min 0,508 mm 5,0 UV-I 779 W/m² 10,3 °C 20,2 °C 14,5 km/h (3 Bft)
07.05.2018 15:02 20,3 °C 55 % 1013,4 hPa 0,0 mm 5,7 km/h (1 Bft) N-NO 26 ° 1 min 0,000 mm 5,1 UV-I 777 W/m² 11,0 °C 20,3 °C 8,0 km/h (2 Bft)
07.05.2018 15:03 20,4 °C 53 % 1013,3 hPa 0,0 mm 5,6 km/h (1 Bft) NO 37 ° 1 min 0,000 mm 5,0 UV-I 775 W/m² 10,5 °C 20,4 °C 9,7 km/h (2 Bft)
07.05.2018 15:04 20,5 °C 52 % 1013,3 hPa 0,0 mm 7,8 km/h (2 Bft) O-NO 59 ° 1 min 0,000 mm 5,0 UV-I 775 W/m² 10,3 °C 20,5 °C 9,7 km/h (2 Bft)
07.05.2018 15:05 20,4 °C 53 % 1013,4 hPa 0,0 mm 11,4 km/h (2 Bft) NO 44 ° 1 min 0,000 mm 5,0 UV-I 773 W/m² 10,5 °C 20,4 °C 16,1 km/h (3 Bft)
07.05.2018 15:06 20,4 °C 51 % 1013,4 hPa 0,0 mm 8,0 km/h (2 Bft) W-NW 292 ° 1 min 0,000 mm 4,9 UV-I 770 W/m² 9,9 °C 20,4 °C 12,9 km/h (3 Bft)
07.05.2018 15:07 20,4 °C 53 % 1013,4 hPa 0,0 mm 10,5 km/h (2 Bft) NO 50 ° 1 min 0,000 mm 4,9 UV-I 768 W/m² 10,5 °C 20,4 °C 17,7 km/h (3 Bft)
07.05.2018 15:08 20,5 °C 54 % 1013,4 hPa 0,0 mm 6,7 km/h (2 Bft) NO 52 ° 1 min 0,000 mm 4,9 UV-I 766 W/m² 10,9 °C 20,5 °C 17,7 km/h (3 Bft)
07.05.2018 15:09 20,5 °C 52 % 1013,3 hPa 0,0 mm 12,7 km/h (3 Bft) O 84 ° 1 min 0,000 mm 4,9 UV-I 761 W/m² 10,3 °C 20,5 °C 17,7 km/h (3 Bft)
07.05.2018 15:10 20,4 °C 51 % 1013,4 hPa 0,0 mm 9,2 km/h (2 Bft) NO 51 ° 1 min 0,000 mm 4,8 UV-I 763 W/m² 9,9 °C 20,4 °C 12,9 km/h (3 Bft)
07.05.2018 15:11 20,3 °C 50 % 1013,3 hPa 0,0 mm 12,3 km/h (3 Bft) N-NO 30 ° 1 min 0,000 mm 4,9 UV-I 766 W/m² 9,5 °C 20,3 °C 19,3 km/h (3 Bft)
07.05.2018 15:12 20,3 °C 51 % 1013,4 hPa 0,0 mm 9,9 km/h (2 Bft) NO 44 ° 1 min 0,000 mm 4,9 UV-I 765 W/m² 9,8 °C 20,3 °C 16,1 km/h (3 Bft)
07.05.2018 15:13 20,3 °C 51 % 1013,3 hPa 0,0 mm 9,4 km/h (2 Bft) O-NO 64 ° 1 min 0,000 mm 4,9 UV-I 765 W/m² 9,8 °C 20,3 °C 14,5 km/h (3 Bft)
07.05.2018 15:14 20,2 °C 50 % 1013,4 hPa 0,0 mm 6,0 km/h (2 Bft) O 87 ° 1 min 0,000 mm 4,9 UV-I 765 W/m² 9,4 °C 20,2 °C 11,3 km/h (2 Bft)
07.05.2018 15:15 20,2 °C 52 % 1013,3 hPa 0,0 mm 2,9 km/h (1 Bft) O 101 ° 1 min 0,000 mm 4,9 UV-I 759 W/m² 10,0 °C 20,2 °C 6,4 km/h (2 Bft)
07.05.2018 15:16 20,2 °C 54 % 1013,3 hPa 0,0 mm 1,2 km/h (1 Bft) O-NO 62 ° 1 min 0,000 mm 4,8 UV-I 759 W/m² 10,6 °C 20,2 °C 3,2 km/h (1 Bft)
07.05.2018 15:17 20,3 °C 53 % 1013,2 hPa 0,0 mm 7,6 km/h (2 Bft) NO 54 ° 1 min 0,000 mm 4,8 UV-I 759 W/m² 10,4 °C 20,3 °C 16,1 km/h (3 Bft)
07.05.2018 15:18 20,4 °C 53 % 1013,2 hPa 0,0 mm 7,0 km/h (2 Bft) NO 47 ° 1 min 0,000 mm 4,8 UV-I 759 W/m² 10,5 °C 20,4 °C 11,3 km/h (2 Bft)
07.05.2018 15:19 20,4 °C 51 % 1013,2 hPa 0,0 mm 7,8 km/h (2 Bft) NO 46 ° 1 min 0,000 mm 4,8 UV-I 759 W/m² 9,9 °C 20,4 °C 11,3 km/h (2 Bft)
07.05.2018 15:20 20,5 °C 52 % 1013,2 hPa 0,0 mm 7,0 km/h (2 Bft) O-NO 75 ° 1 min 0,000 mm 4,8 UV-I 761 W/m² 10,3 °C 20,5 °C 12,9 km/h (3 Bft)
07.05.2018 15:21 20,6 °C 53 % 1013,2 hPa 0,0 mm 5,6 km/h (1 Bft) O-NO 70 ° 1 min 0,000 mm 4,8 UV-I 765 W/m² 10,7 °C 20,6 °C 11,3 km/h (2 Bft)
07.05.2018 15:22 20,6 °C 52 % 1013,2 hPa 0,0 mm 5,4 km/h (1 Bft) NO 44 ° 1 min 0,000 mm 4,8 UV-I 765 W/m² 10,4 °C 20,6 °C 9,7 km/h (2 Bft)
07.05.2018 15:23 20,6 °C 49 % 1013,2 hPa 0,0 mm 6,0 km/h (2 Bft) O 92 ° 1 min 0,000 mm 4,7 UV-I 758 W/m² 9,5 °C 20,6 °C 11,3 km/h (2 Bft)
07.05.2018 15:24 20,5 °C 50 % 1013,2 hPa 0,0 mm 7,5 km/h (2 Bft) O-NO 65 ° 1 min 0,000 mm 4,4 UV-I 661 W/m² 9,7 °C 20,5 °C 12,9 km/h (3 Bft)
07.05.2018 15:25 20,4 °C 51 % 1013,1 hPa 0,0 mm 4,5 km/h (1 Bft) N-NW 342 ° 1 min 0,000 mm 3,8 UV-I 661 W/m² 9,9 °C 20,4 °C 6,4 km/h (2 Bft)
07.05.2018 15:26 20,3 °C 50 % 1013,1 hPa 0,0 mm 3,5 km/h (1 Bft) N-NW 346 ° 1 min 0,000 mm 4,6 UV-I 661 W/m² 9,5 °C 20,3 °C 6,4 km/h (2 Bft)
07.05.2018 15:27 20,3 °C 53 % 1013,1 hPa 0,0 mm 7,4 km/h (2 Bft) N-NO 13 ° 1 min 0,000 mm 4,2 UV-I 664 W/m² 10,4 °C 20,3 °C 12,9 km/h (3 Bft)
07.05.2018 15:28 20,4 °C 52 % 1013,1 hPa 0,0 mm 15,7 km/h (3 Bft) N-NO 25 ° 1 min 0,000 mm 4,2 UV-I 664 W/m² 10,2 °C 20,4 °C 20,9 km/h (4 Bft)
07.05.2018 15:29 20,4 °C 51 % 1013,1 hPa 0,0 mm 7,5 km/h (2 Bft) N-NO 30 ° 1 min 0,000 mm 4,7 UV-I 729 W/m² 9,9 °C 20,4 °C 14,5 km/h (3 Bft)
07.05.2018 15:30 20,6 °C 51 % 1013,0 hPa 0,0 mm 8,1 km/h (2 Bft) S-SO 156 ° 1 min 0,000 mm 4,2 UV-I 640 W/m² 10,1 °C 20,6 °C 14,5 km/h (3 Bft)
07.05.2018 15:31 20,6 °C 53 % 1013,1 hPa 0,0 mm 6,7 km/h (2 Bft) NO 38 ° 1 min 0,000 mm 4,1 UV-I 606 W/m² 10,7 °C 20,6 °C 14,5 km/h (3 Bft)
07.05.2018 15:32 20,5 °C 51 % 1013,0 hPa 0,0 mm 6,1 km/h (2 Bft) O-NO 78 ° 1 min 0,000 mm 4,0 UV-I 561 W/m² 10,0 °C 20,5 °C 8,0 km/h (2 Bft)
07.05.2018 15:33 20,6 °C 52 % 1013,1 hPa 0,0 mm 6,7 km/h (2 Bft) NO 55 ° 1 min 0,000 mm 4,0 UV-I 728 W/m² 10,4 °C 20,6 °C 11,3 km/h (2 Bft)
07.05.2018 15:34 20,6 °C 50 % 1013,0 hPa 0,0 mm 12,8 km/h (3 Bft) O-NO 76 ° 1 min 0,000 mm 4,6 UV-I 761 W/m² 9,8 °C 20,6 °C 19,3 km/h (3 Bft)
07.05.2018 15:35 20,5 °C 50 % 1013,0 hPa 0,0 mm 9,7 km/h (2 Bft) NO 42 ° 1 min 0,000 mm 4,6 UV-I 749 W/m² 9,7 °C 20,5 °C 19,3 km/h (3 Bft)
07.05.2018 15:36 20,6 °C 50 % 1013,0 hPa 0,0 mm 12,6 km/h (3 Bft) NO 35 ° 1 min 0,000 mm 4,6 UV-I 761 W/m² 9,8 °C 20,6 °C 17,7 km/h (3 Bft)
07.05.2018 15:37 20,6 °C 50 % 1013,0 hPa 0,0 mm 9,7 km/h (2 Bft) N-NO 25 ° 1 min 0,000 mm 4,6 UV-I 759 W/m² 9,8 °C 20,6 °C 17,7 km/h (3 Bft)
07.05.2018 15:38 20,7 °C 51 % 1013,0 hPa 0,0 mm 9,1 km/h (2 Bft) N-NO 26 ° 1 min 0,000 mm 4,6 UV-I 763 W/m² 10,2 °C 20,7 °C 14,5 km/h (3 Bft)
07.05.2018 15:39 20,7 °C 51 % 1013,0 hPa 0,0 mm 8,3 km/h (2 Bft) N-NO 19 ° 1 min 0,000 mm 4,6 UV-I 758 W/m² 10,2 °C 20,7 °C 14,5 km/h (3 Bft)
07.05.2018 15:40 20,8 °C 52 % 1012,9 hPa 0,0 mm 9,7 km/h (2 Bft) O-NO 61 ° 1 min 0,000 mm 4,6 UV-I 759 W/m² 10,6 °C 20,8 °C 16,1 km/h (3 Bft)
07.05.2018 15:41 20,8 °C 51 % 1012,9 hPa 0,0 mm 7,4 km/h (2 Bft) O-NO 63 ° 1 min 0,000 mm 4,3 UV-I 687 W/m² 10,3 °C 20,8 °C 11,3 km/h (2 Bft)
07.05.2018 15:42 20,9 °C 50 % 1012,9 hPa 0,0 mm 9,5 km/h (2 Bft) O-NO 69 ° 1 min 0,000 mm 3,8 UV-I 687 W/m² 10,1 °C 20,9 °C 12,9 km/h (3 Bft)
07.05.2018 15:43 20,8 °C 52 % 1012,9 hPa 0,0 mm 7,1 km/h (2 Bft) O 86 ° 1 min 0,000 mm 4,0 UV-I 598 W/m² 10,6 °C 20,8 °C 12,9 km/h (3 Bft)
07.05.2018 15:44 20,7 °C 51 % 1012,9 hPa 0,0 mm 8,5 km/h (2 Bft) NO 52 ° 1 min 0,000 mm 4,3 UV-I 705 W/m² 10,2 °C 20,7 °C 12,9 km/h (3 Bft)
07.05.2018 15:45 20,6 °C 53 % 1012,9 hPa 0,0 mm 7,2 km/h (2 Bft) O-NO 78 ° 1 min 0,000 mm 4,1 UV-I 617 W/m² 10,7 °C 20,6 °C 12,9 km/h (3 Bft)
07.05.2018 15:46 20,6 °C 52 % 1012,9 hPa 0,0 mm 7,0 km/h (2 Bft) NO 40 ° 1 min 0,000 mm 3,9 UV-I 577 W/m² 10,4 °C 20,6 °C 11,3 km/h (2 Bft)
07.05.2018 15:47 20,7 °C 52 % 1012,9 hPa 0,0 mm 7,7 km/h (2 Bft) O 82 ° 1 min 0,000 mm 3,9 UV-I 615 W/m² 10,5 °C 20,7 °C 9,7 km/h (2 Bft)
07.05.2018 15:48 20,6 °C 54 % 1012,8 hPa 0,0 mm 9,2 km/h (2 Bft) O 94 ° 1 min 0,000 mm 3,8 UV-I 606 W/m² 11,0 °C 20,6 °C 14,5 km/h (3 Bft)
07.05.2018 15:49 20,7 °C 51 % 1012,9 hPa 0,0 mm 12,4 km/h (3 Bft) O 90 ° 1 min 0,000 mm 4,0 UV-I 657 W/m² 10,2 °C 20,7 °C 20,9 km/h (4 Bft)
07.05.2018 15:50 20,6 °C 51 % 1012,9 hPa 0,0 mm 8,1 km/h (2 Bft) O-NO 65 ° 1 min 0,000 mm 4,1 UV-I 650 W/m² 10,1 °C 20,6 °C 16,1 km/h (3 Bft)
07.05.2018 15:51 20,4 °C 50 % 1012,9 hPa 0,0 mm 11,0 km/h (2 Bft) O-SO 109 ° 1 min 0,000 mm 4,0 UV-I 596 W/m² 9,6 °C 20,4 °C 20,9 km/h (4 Bft)
07.05.2018 15:52 20,3 °C 51 % 1013,0 hPa 0,0 mm 12,0 km/h (2 Bft) NO 38 ° 1 min 0,000 mm 3,8 UV-I 629 W/m² 9,8 °C 20,3 °C 20,9 km/h (4 Bft)
07.05.2018 15:53 20,3 °C 52 % 1012,9 hPa 0,0 mm 7,4 km/h (2 Bft) NO 54 ° 1 min 0,000 mm 3,7 UV-I 589 W/m² 10,1 °C 20,3 °C 11,3 km/h (2 Bft)
07.05.2018 15:54 20,3 °C 52 % 1012,9 hPa 0,0 mm 11,9 km/h (2 Bft) N-NO 13 ° 1 min 0,000 mm 3,1 UV-I 489 W/m² 10,1 °C 20,3 °C 17,7 km/h (3 Bft)
07.05.2018 15:55 20,3 °C 51 % 1012,9 hPa 0,0 mm 7,5 km/h (2 Bft) N-NO 16 ° 1 min 0,000 mm 2,9 UV-I 489 W/m² 9,8 °C 20,3 °C 16,1 km/h (3 Bft)
07.05.2018 15:56 20,3 °C 52 % 1012,9 hPa 0,0 mm 9,1 km/h (2 Bft) NO 35 ° 1 min 0,000 mm 3,0 UV-I 410 W/m² 10,1 °C 20,3 °C 14,5 km/h (3 Bft)
07.05.2018 15:57 20,4 °C 53 % 1012,9 hPa 0,0 mm 9,3 km/h (2 Bft) N-NW 347 ° 1 min 0,000 mm 3,1 UV-I 485 W/m² 10,5 °C 20,4 °C 17,7 km/h (3 Bft)
07.05.2018 15:58 20,4 °C 52 % 1012,9 hPa 0,0 mm 6,8 km/h (2 Bft) NO 49 ° 1 min 0,000 mm 3,1 UV-I 485 W/m² 10,2 °C 20,4 °C 11,3 km/h (2 Bft)
07.05.2018 15:59 20,4 °C 52 % 1012,9 hPa 0,0 mm 10,2 km/h (2 Bft) N-NO 20 ° 1 min 0,000 mm 3,1 UV-I 508 W/m² 10,2 °C 20,4 °C 17,7 km/h (3 Bft)
07.05.2018 16:00 20,4 °C 52 % 1012,8 hPa 0,0 mm 8,0 km/h (2 Bft) N-NO 23 ° 1 min 0,000 mm 3,0 UV-I 418 W/m² 10,2 °C 20,4 °C 16,1 km/h (3 Bft)
07.05.2018 16:01 20,3 °C 52 % 1012,9 hPa 0,0 mm 7,5 km/h (2 Bft) N 5 ° 1 min 0,457 mm 2,8 UV-I 397 W/m² 10,1 °C 20,3 °C 14,5 km/h (3 Bft)
07.05.2018 16:02 20,3 °C 52 % 1012,8 hPa 0,0 mm 11,7 km/h (2 Bft) NO 50 ° 0 min 0,000 mm 2,6 UV-I 271 W/m² 10,1 °C 20,3 °C 19,3 km/h (3 Bft)
07.05.2018 16:03 20,2 °C 51 % 1012,8 hPa 0,0 mm 5,0 km/h (1 Bft) N-NO 33 ° 0 min 0,000 mm 2,2 UV-I 237 W/m² 9,7 °C 20,2 °C 14,5 km/h (3 Bft)
07.05.2018 16:04 20,1 °C 51 % 1012,8 hPa 0,0 mm 4,9 km/h (1 Bft) N-NO 28 ° 0 min 0,000 mm 2,2 UV-I 209 W/m² 9,6 °C 20,1 °C 9,7 km/h (2 Bft)
07.05.2018 16:05 19,9 °C 52 % 1012,8 hPa 0,0 mm 3,6 km/h (1 Bft) O-NO 70 ° 0 min 0,000 mm 2,2 UV-I 214 W/m² 9,7 °C 19,9 °C 6,4 km/h (2 Bft)
07.05.2018 16:06 19,9 °C 53 % 1012,8 hPa 0,0 mm 11,3 km/h (2 Bft) NO 48 ° 0 min 0,000 mm 2,2 UV-I 216 W/m² 10,0 °C 19,9 °C 17,7 km/h (3 Bft)
07.05.2018 16:07 19,9 °C 53 % 1012,8 hPa 0,0 mm 8,0 km/h (2 Bft) NO 49 ° 0 min 0,000 mm 2,2 UV-I 209 W/m² 10,0 °C 19,9 °C 19,3 km/h (3 Bft)
07.05.2018 16:08 20,0 °C 53 % 1012,8 hPa 0,0 mm 4,8 km/h (1 Bft) NO 48 ° 0 min 0,000 mm 2,1 UV-I 197 W/m² 10,1 °C 20,0 °C 6,4 km/h (2 Bft)
07.05.2018 16:09 20,1 °C 55 % 1012,8 hPa 0,0 mm 4,6 km/h (1 Bft) O-NO 57 ° 0 min 0,000 mm 2,1 UV-I 193 W/m² 10,8 °C 20,1 °C 11,3 km/h (2 Bft)
07.05.2018 16:10 20,0 °C 53 % 1012,8 hPa 0,0 mm 11,3 km/h (2 Bft) O-NO 61 ° 0 min 0,000 mm 2,1 UV-I 190 W/m² 10,1 °C 20,0 °C 17,7 km/h (3 Bft)
07.05.2018 16:11 20,1 °C 52 % 1012,8 hPa 0,0 mm 8,5 km/h (2 Bft) N-NO 32 ° 0 min 0,000 mm 2,1 UV-I 186 W/m² 9,9 °C 20,1 °C 17,7 km/h (3 Bft)
07.05.2018 16:12 20,0 °C 53 % 1012,8 hPa 0,0 mm 9,9 km/h (2 Bft) O-NO 58 ° 0 min 0,000 mm 2,1 UV-I 185 W/m² 10,1 °C 20,0 °C 14,5 km/h (3 Bft)
07.05.2018 16:13 20,0 °C 52 % 1012,8 hPa 0,0 mm 7,4 km/h (2 Bft) NO 50 ° 0 min 0,000 mm 2,1 UV-I 179 W/m² 9,8 °C 20,0 °C 11,3 km/h (2 Bft)
07.05.2018 16:14 20,1 °C 53 % 1012,8 hPa 0,0 mm 2,6 km/h (1 Bft) NO 55 ° 0 min 0,000 mm 2,1 UV-I 169 W/m² 10,2 °C 20,1 °C 6,4 km/h (2 Bft)
07.05.2018 16:15 20,1 °C 54 % 1012,8 hPa 0,0 mm 6,1 km/h (2 Bft) N-NO 12 ° 0 min 0,000 mm 2,1 UV-I 162 W/m² 10,5 °C 20,1 °C 11,3 km/h (2 Bft)
07.05.2018 16:16 20,1 °C 52 % 1012,8 hPa 0,0 mm 6,2 km/h (2 Bft) NO 34 ° 0 min 0,000 mm 2,1 UV-I 155 W/m² 9,9 °C 20,1 °C 11,3 km/h (2 Bft)
07.05.2018 16:17 20,1 °C 54 % 1012,8 hPa 0,0 mm 4,8 km/h (1 Bft) NO 50 ° 0 min 0,000 mm 2,1 UV-I 149 W/m² 10,5 °C 20,1 °C 11,3 km/h (2 Bft)
07.05.2018 16:18 20,2 °C 52 % 1012,8 hPa 0,0 mm 14,8 km/h (3 Bft) O 80 ° 0 min 0,000 mm 2,1 UV-I 144 W/m² 10,0 °C 20,2 °C 20,9 km/h (4 Bft)
07.05.2018 16:19 20,2 °C 52 % 1012,8 hPa 0,0 mm 11,1 km/h (2 Bft) O 80 ° 0 min 0,000 mm 2,1 UV-I 141 W/m² 10,0 °C 20,2 °C 19,3 km/h (3 Bft)
07.05.2018 16:20 20,1 °C 54 % 1012,7 hPa 0,0 mm 7,6 km/h (2 Bft) O 94 ° 0 min 0,000 mm 2,1 UV-I 132 W/m² 10,5 °C 20,1 °C 12,9 km/h (3 Bft)
07.05.2018 16:21 20,2 °C 54 % 1012,8 hPa 0,0 mm 3,3 km/h (1 Bft) O-NO 70 ° 0 min 0,000 mm 2,1 UV-I 130 W/m² 10,6 °C 20,2 °C 6,4 km/h (2 Bft)
07.05.2018 16:22 20,2 °C 55 % 1012,7 hPa 0,0 mm 1,0 km/h (0 Bft) NO 46 ° 0 min 0,000 mm 2,0 UV-I 123 W/m² 10,9 °C 20,2 °C 3,2 km/h (1 Bft)
07.05.2018 16:23 20,2 °C 55 % 1012,7 hPa 0,0 mm 6,7 km/h (2 Bft) NO 40 ° 0 min 0,000 mm 2,0 UV-I 127 W/m² 10,9 °C 20,2 °C 16,1 km/h (3 Bft)
07.05.2018 16:24 20,3 °C 55 % 1012,7 hPa 0,0 mm 5,1 km/h (1 Bft) O 97 ° 0 min 0,000 mm 2,0 UV-I 125 W/m² 11,0 °C 20,3 °C 11,3 km/h (2 Bft)
07.05.2018 16:25 20,4 °C 53 % 1012,7 hPa 0,0 mm 10,9 km/h (2 Bft) O 80 ° 0 min 0,000 mm 2,0 UV-I 127 W/m² 10,5 °C 20,4 °C 19,3 km/h (3 Bft)
07.05.2018 16:26 20,3 °C 53 % 1012,6 hPa 0,0 mm 4,1 km/h (1 Bft) NO 49 ° 0 min 0,000 mm 2,0 UV-I 121 W/m² 10,4 °C 20,3 °C 8,0 km/h (2 Bft)
07.05.2018 16:27 20,4 °C 53 % 1012,7 hPa 0,0 mm 9,6 km/h (2 Bft) O 98 ° 0 min 0,000 mm 2,0 UV-I 127 W/m² 10,5 °C 20,4 °C 14,5 km/h (3 Bft)
07.05.2018 16:28 20,4 °C 53 % 1012,6 hPa 0,0 mm 10,2 km/h (2 Bft) O 96 ° 0 min 0,000 mm 2,0 UV-I 130 W/m² 10,5 °C 20,4 °C 16,1 km/h (3 Bft)
07.05.2018 16:29 20,4 °C 52 % 1012,6 hPa 0,0 mm 6,6 km/h (2 Bft) N-NO 22 ° 0 min 0,000 mm 2,0 UV-I 132 W/m² 10,2 °C 20,4 °C 12,9 km/h (3 Bft)
07.05.2018 16:30 20,3 °C 53 % 1012,6 hPa 0,0 mm 13,6 km/h (3 Bft) O 80 ° 0 min 0,000 mm 2,0 UV-I 134 W/m² 10,4 °C 20,3 °C 22,5 km/h (4 Bft)
07.05.2018 16:31 20,3 °C 54 % 1012,6 hPa 0,0 mm 12,9 km/h (3 Bft) O 96 ° 0 min 0,000 mm 2,0 UV-I 139 W/m² 10,7 °C 20,3 °C 20,9 km/h (4 Bft)
07.05.2018 16:32 20,3 °C 52 % 1012,6 hPa 0,0 mm 11,4 km/h (2 Bft) O 93 ° 0 min 0,000 mm 2,0 UV-I 141 W/m² 10,1 °C 20,3 °C 19,3 km/h (3 Bft)
07.05.2018 16:33 20,2 °C 52 % 1012,7 hPa 0,0 mm 11,7 km/h (2 Bft) N-NO 31 ° 0 min 0,000 mm 2,0 UV-I 144 W/m² 10,0 °C 20,2 °C 14,5 km/h (3 Bft)
07.05.2018 16:34 20,2 °C 51 % 1012,6 hPa 0,0 mm 7,4 km/h (2 Bft) N-NO 24 ° 0 min 0,000 mm 2,0 UV-I 148 W/m² 9,7 °C 20,2 °C 11,3 km/h (2 Bft)
07.05.2018 16:35 20,2 °C 52 % 1012,6 hPa 0,0 mm 8,3 km/h (2 Bft) O 90 ° 0 min 0,000 mm 2,0 UV-I 153 W/m² 10,0 °C 20,2 °C 16,1 km/h (3 Bft)
07.05.2018 16:36 20,2 °C 53 % 1012,6 hPa 0,0 mm 7,4 km/h (2 Bft) O 79 ° 0 min 0,000 mm 2,0 UV-I 155 W/m² 10,3 °C 20,2 °C 11,3 km/h (2 Bft)
07.05.2018 16:37 20,2 °C 53 % 1012,6 hPa 0,0 mm 8,3 km/h (2 Bft) NO 35 ° 0 min 0,000 mm 2,0 UV-I 158 W/m² 10,3 °C 20,2 °C 19,3 km/h (3 Bft)
07.05.2018 16:38 20,3 °C 55 % 1012,6 hPa 0,0 mm 11,2 km/h (2 Bft) O 84 ° 0 min 0,000 mm 2,0 UV-I 160 W/m² 11,0 °C 20,3 °C 14,5 km/h (3 Bft)
07.05.2018 16:39 20,3 °C 53 % 1012,7 hPa 0,0 mm 11,7 km/h (2 Bft) O-NO 65 ° 0 min 0,000 mm 1,9 UV-I 160 W/m² 10,4 °C 20,3 °C 17,7 km/h (3 Bft)
07.05.2018 16:40 20,2 °C 52 % 1012,6 hPa 0,0 mm 8,7 km/h (2 Bft) O-NO 57 ° 0 min 0,000 mm 1,9 UV-I 156 W/m² 10,0 °C 20,2 °C 12,9 km/h (3 Bft)
07.05.2018 16:41 20,2 °C 51 % 1012,6 hPa 0,0 mm 8,4 km/h (2 Bft) S-SO 159 ° 0 min 0,000 mm 1,9 UV-I 156 W/m² 9,7 °C 20,2 °C 16,1 km/h (3 Bft)
07.05.2018 16:42 20,1 °C 52 % 1012,5 hPa 0,0 mm 10,4 km/h (2 Bft) O-NO 69 ° 0 min 0,000 mm 1,9 UV-I 158 W/m² 9,9 °C 20,1 °C 16,1 km/h (3 Bft)
07.05.2018 16:43 20,1 °C 52 % 1012,6 hPa 0,0 mm 9,4 km/h (2 Bft) O-NO 57 ° 0 min 0,000 mm 1,8 UV-I 153 W/m² 9,9 °C 20,1 °C 19,3 km/h (3 Bft)
07.05.2018 16:44 20,0 °C 53 % 1012,6 hPa 0,0 mm 6,2 km/h (2 Bft) O-SO 103 ° 0 min 0,000 mm 1,8 UV-I 155 W/m² 10,1 °C 20,0 °C 11,3 km/h (2 Bft)
07.05.2018 16:45 19,9 °C 51 % 1012,6 hPa 0,0 mm 4,6 km/h (1 Bft) N-NO 22 ° 0 min 0,000 mm 1,7 UV-I 153 W/m² 9,5 °C 19,9 °C 6,4 km/h (2 Bft)
07.05.2018 16:46 19,9 °C 51 % 1012,5 hPa 0,0 mm 5,3 km/h (1 Bft) NO 49 ° 0 min 0,000 mm 1,7 UV-I 153 W/m² 9,5 °C 19,9 °C 9,7 km/h (2 Bft)
07.05.2018 16:47 19,8 °C 53 % 1012,6 hPa 0,0 mm 10,1 km/h (2 Bft) N-NO 25 ° 0 min 0,000 mm 1,7 UV-I 151 W/m² 9,9 °C 19,8 °C 16,1 km/h (3 Bft)
07.05.2018 16:48 19,8 °C 52 % 1012,6 hPa 0,0 mm 6,9 km/h (2 Bft) NO 49 ° 0 min 0,000 mm 1,6 UV-I 151 W/m² 9,7 °C 19,8 °C 16,1 km/h (3 Bft)
07.05.2018 16:49 19,8 °C 52 % 1012,6 hPa 0,0 mm 6,9 km/h (2 Bft) NO 53 ° 0 min 0,000 mm 1,6 UV-I 151 W/m² 9,7 °C 19,8 °C 12,9 km/h (3 Bft)
07.05.2018 16:50 19,8 °C 52 % 1012,6 hPa 0,0 mm 7,4 km/h (2 Bft) O-NO 69 ° 0 min 0,000 mm 1,6 UV-I 151 W/m² 9,7 °C 19,8 °C 16,1 km/h (3 Bft)
07.05.2018 16:51 19,8 °C 52 % 1012,6 hPa 0,0 mm 12,1 km/h (2 Bft) O 92 ° 0 min 0,000 mm 1,6 UV-I 155 W/m² 9,7 °C 19,8 °C 19,3 km/h (3 Bft)
07.05.2018 16:52 19,7 °C 52 % 1012,6 hPa 0,0 mm 5,1 km/h (1 Bft) N-NO 27 ° 0 min 0,000 mm 1,6 UV-I 155 W/m² 9,6 °C 19,7 °C 12,9 km/h (3 Bft)
07.05.2018 16:53 19,7 °C 53 % 1012,6 hPa 0,0 mm 8,2 km/h (2 Bft) O 81 ° 0 min 0,000 mm 1,6 UV-I 155 W/m² 9,8 °C 19,7 °C 11,3 km/h (2 Bft)
07.05.2018 16:54 19,7 °C 53 % 1012,6 hPa 0,0 mm 5,6 km/h (1 Bft) O 82 ° 0 min 0,000 mm 1,6 UV-I 156 W/m² 9,8 °C 19,7 °C 9,7 km/h (2 Bft)
07.05.2018 16:55 19,5 °C 53 % 1012,6 hPa 0,0 mm 3,8 km/h (1 Bft) O-NO 63 ° 0 min 0,000 mm 1,5 UV-I 158 W/m² 9,7 °C 19,5 °C 8,0 km/h (2 Bft)
07.05.2018 16:56 19,5 °C 53 % 1012,6 hPa 0,0 mm 7,1 km/h (2 Bft) NO 40 ° 0 min 0,000 mm 1,5 UV-I 158 W/m² 9,7 °C 19,5 °C 12,9 km/h (3 Bft)
07.05.2018 16:57 19,4 °C 53 % 1012,5 hPa 0,0 mm 3,3 km/h (1 Bft) O 95 ° 0 min 0,000 mm 1,5 UV-I 158 W/m² 9,6 °C 19,4 °C 6,4 km/h (2 Bft)
07.05.2018 16:58 19,4 °C 54 % 1012,5 hPa 0,0 mm 6,0 km/h (2 Bft) N-NO 33 ° 0 min 0,000 mm 1,5 UV-I 160 W/m² 9,8 °C 19,4 °C 9,7 km/h (2 Bft)
07.05.2018 16:59 19,4 °C 53 % 1012,5 hPa 0,0 mm 5,4 km/h (1 Bft) O 80 ° 0 min 0,000 mm 1,5 UV-I 160 W/m² 9,6 °C 19,4 °C 9,7 km/h (2 Bft)
07.05.2018 17:00 19,4 °C 53 % 1012,5 hPa 0,0 mm 6,2 km/h (2 Bft) O 80 ° 0 min 0,000 mm 1,5 UV-I 160 W/m² 9,6 °C 19,4 °C 11,3 km/h (2 Bft)
07.05.2018 17:01 19,3 °C 53 % 1012,5 hPa 0,0 mm 6,5 km/h (2 Bft) N 355 ° 0 min 0,153 mm 1,5 UV-I 158 W/m² 9,5 °C 19,3 °C 11,3 km/h (2 Bft)
07.05.2018 17:02 19,3 °C 54 % 1012,5 hPa 0,0 mm 5,0 km/h (1 Bft) O-NO 61 ° 0 min 0,000 mm 1,5 UV-I 156 W/m² 9,8 °C 19,3 °C 9,7 km/h (2 Bft)
07.05.2018 17:03 19,3 °C 54 % 1012,4 hPa 0,0 mm 5,5 km/h (1 Bft) O 87 ° 0 min 0,000 mm 1,5 UV-I 156 W/m² 9,8 °C 19,3 °C 11,3 km/h (2 Bft)
07.05.2018 17:04 19,3 °C 55 % 1012,5 hPa 0,0 mm 8,5 km/h (2 Bft) N-NO 21 ° 0 min 0,000 mm 1,5 UV-I 155 W/m² 10,0 °C 19,3 °C 12,9 km/h (3 Bft)
07.05.2018 17:05 19,3 °C 55 % 1012,5 hPa 0,0 mm 4,8 km/h (1 Bft) N-NO 27 ° 0 min 0,000 mm 1,4 UV-I 153 W/m² 10,0 °C 19,3 °C 9,7 km/h (2 Bft)
07.05.2018 17:06 19,4 °C 55 % 1012,5 hPa 0,0 mm 7,7 km/h (2 Bft) O-NO 63 ° 0 min 0,000 mm 1,4 UV-I 149 W/m² 10,1 °C 19,4 °C 16,1 km/h (3 Bft)
07.05.2018 17:07 19,3 °C 55 % 1012,5 hPa 0,0 mm 7,0 km/h (2 Bft) O-NO 65 ° 0 min 0,000 mm 1,4 UV-I 146 W/m² 10,0 °C 19,3 °C 12,9 km/h (3 Bft)
07.05.2018 17:08 19,3 °C 55 % 1012,5 hPa 0,0 mm 5,4 km/h (1 Bft) O 80 ° 0 min 0,000 mm 1,4 UV-I 144 W/m² 10,0 °C 19,3 °C 9,7 km/h (2 Bft)
07.05.2018 17:09 19,3 °C 56 % 1012,5 hPa 0,0 mm 4,8 km/h (1 Bft) SO 146 ° 0 min 0,000 mm 1,4 UV-I 142 W/m² 10,3 °C 19,3 °C 8,0 km/h (2 Bft)
07.05.2018 17:10 19,2 °C 56 % 1012,5 hPa 0,0 mm 4,3 km/h (1 Bft) O-NO 74 ° 0 min 0,000 mm 1,4 UV-I 141 W/m² 10,2 °C 19,2 °C 14,5 km/h (3 Bft)
07.05.2018 17:11 19,2 °C 58 % 1012,5 hPa 0,0 mm 3,9 km/h (1 Bft) O 82 ° 0 min 0,000 mm 1,4 UV-I 139 W/m² 10,7 °C 19,2 °C 11,3 km/h (2 Bft)
07.05.2018 17:12 19,1 °C 57 % 1012,5 hPa 0,0 mm 2,7 km/h (1 Bft) O-NO 59 ° 0 min 0,000 mm 1,3 UV-I 134 W/m² 10,4 °C 19,1 °C 4,8 km/h (1 Bft)
07.05.2018 17:13 19,0 °C 57 % 1012,4 hPa 0,0 mm 1,3 km/h (1 Bft) O-NO 59 ° 0 min 0,000 mm 1,3 UV-I 132 W/m² 10,3 °C 19,0 °C 3,2 km/h (1 Bft)
07.05.2018 17:14 19,0 °C 57 % 1012,5 hPa 0,0 mm 1,8 km/h (1 Bft) O-NO 59 ° 0 min 0,000 mm 1,3 UV-I 130 W/m² 10,3 °C 19,0 °C 4,8 km/h (1 Bft)
07.05.2018 17:15 19,0 °C 56 % 1012,5 hPa 0,0 mm 2,6 km/h (1 Bft) O-SO 113 ° 0 min 0,000 mm 1,3 UV-I 128 W/m² 10,0 °C 19,0 °C 4,8 km/h (1 Bft)
07.05.2018 17:16 18,9 °C 56 % 1012,4 hPa 0,0 mm 5,3 km/h (1 Bft) O 96 ° 0 min 0,000 mm 1,3 UV-I 128 W/m² 9,9 °C 18,9 °C 12,9 km/h (3 Bft)
07.05.2018 17:17 18,9 °C 56 % 1012,4 hPa 0,0 mm 9,4 km/h (2 Bft) O-NO 60 ° 0 min 0,000 mm 1,3 UV-I 125 W/m² 9,9 °C 18,9 °C 12,9 km/h (3 Bft)
07.05.2018 17:18 19,0 °C 56 % 1012,4 hPa 0,0 mm 6,4 km/h (2 Bft) N-NO 24 ° 0 min 0,000 mm 1,3 UV-I 123 W/m² 10,0 °C 19,0 °C 9,7 km/h (2 Bft)
07.05.2018 17:19 19,1 °C 56 % 1012,4 hPa 0,0 mm 6,2 km/h (2 Bft) N 9 ° 0 min 0,000 mm 1,3 UV-I 121 W/m² 10,1 °C 19,1 °C 11,3 km/h (2 Bft)
07.05.2018 17:20 19,1 °C 58 % 1012,5 hPa 0,0 mm 6,4 km/h (2 Bft) NO 53 ° 0 min 0,000 mm 1,3 UV-I 120 W/m² 10,6 °C 19,1 °C 9,7 km/h (2 Bft)
07.05.2018 17:21 19,1 °C 56 % 1012,5 hPa 0,0 mm 6,5 km/h (2 Bft) O-NO 65 ° 0 min 0,000 mm 1,3 UV-I 118 W/m² 10,1 °C 19,1 °C 11,3 km/h (2 Bft)
07.05.2018 17:22 19,1 °C 57 % 1012,5 hPa 0,0 mm 2,9 km/h (1 Bft) O-NO 75 ° 0 min 0,000 mm 1,3 UV-I 116 W/m² 10,4 °C 19,1 °C 4,8 km/h (1 Bft)
07.05.2018 17:23 19,1 °C 57 % 1012,5 hPa 0,0 mm 1,7 km/h (1 Bft) O-NO 57 ° 0 min 0,000 mm 1,3 UV-I 114 W/m² 10,4 °C 19,1 °C 4,8 km/h (1 Bft)
07.05.2018 17:24 19,1 °C 57 % 1012,5 hPa 0,0 mm 2,5 km/h (1 Bft) O-NO 74 ° 0 min 0,000 mm 1,3 UV-I 113 W/m² 10,4 °C 19,1 °C 4,8 km/h (1 Bft)
07.05.2018 17:25 19,0 °C 57 % 1012,5 hPa 0,0 mm 4,8 km/h (1 Bft) O 86 ° 0 min 0,000 mm 1,3 UV-I 111 W/m² 10,3 °C 19,0 °C 12,9 km/h (3 Bft)
07.05.2018 17:26 19,1 °C 56 % 1012,5 hPa 0,0 mm 4,4 km/h (1 Bft) O-NO 73 ° 0 min 0,000 mm 1,3 UV-I 111 W/m² 10,1 °C 19,1 °C 8,0 km/h (2 Bft)
07.05.2018 17:27 19,1 °C 56 % 1012,5 hPa 0,0 mm 4,5 km/h (1 Bft) NO 42 ° 0 min 0,000 mm 1,3 UV-I 109 W/m² 10,1 °C 19,1 °C 8,0 km/h (2 Bft)
07.05.2018 17:28 19,2 °C 56 % 1012,4 hPa 0,0 mm 3,0 km/h (1 Bft) O-NO 74 ° 0 min 0,000 mm 1,3 UV-I 109 W/m² 10,2 °C 19,2 °C 6,4 km/h (2 Bft)
07.05.2018 17:29 19,2 °C 56 % 1012,5 hPa 0,0 mm 5,8 km/h (2 Bft) O 81 ° 0 min 0,000 mm 1,3 UV-I 107 W/m² 10,2 °C 19,2 °C 9,7 km/h (2 Bft)
07.05.2018 17:30 19,2 °C 59 % 1012,4 hPa 0,0 mm 1,3 km/h (1 Bft) O 81 ° 0 min 0,000 mm 1,3 UV-I 105 W/m² 11,0 °C 19,2 °C 4,8 km/h (1 Bft)
07.05.2018 17:31 19,2 °C 56 % 1012,4 hPa 0,0 mm 1,9 km/h (1 Bft) O-SO 105 ° 0 min 0,000 mm 1,3 UV-I 105 W/m² 10,2 °C 19,2 °C 6,4 km/h (2 Bft)
07.05.2018 17:32 19,2 °C 57 % 1012,4 hPa 0,0 mm 5,0 km/h (1 Bft) O-NO 57 ° 0 min 0,000 mm 1,3 UV-I 104 W/m² 10,5 °C 19,2 °C 9,7 km/h (2 Bft)
07.05.2018 17:33 19,1 °C 57 % 1012,5 hPa 0,0 mm 2,3 km/h (1 Bft) NO 52 ° 0 min 0,000 mm 1,2 UV-I 102 W/m² 10,4 °C 19,1 °C 4,8 km/h (1 Bft)
07.05.2018 17:34 19,1 °C 59 % 1012,5 hPa 0,0 mm 1,6 km/h (1 Bft) NO 52 ° 0 min 0,000 mm 1,2 UV-I 100 W/m² 10,9 °C 19,1 °C 3,2 km/h (1 Bft)
07.05.2018 17:35 19,1 °C 58 % 1012,4 hPa 0,0 mm 2,7 km/h (1 Bft) NO 53 ° 0 min 0,000 mm 1,2 UV-I 98 W/m² 10,6 °C 19,1 °C 4,8 km/h (1 Bft)
07.05.2018 17:36 19,2 °C 57 % 1012,4 hPa 0,0 mm 5,5 km/h (1 Bft) O-SO 107 ° 0 min 0,000 mm 1,2 UV-I 95 W/m² 10,5 °C 19,2 °C 11,3 km/h (2 Bft)
07.05.2018 17:37 19,2 °C 58 % 1012,4 hPa 0,0 mm 1,3 km/h (1 Bft) O 90 ° 0 min 0,000 mm 1,2 UV-I 93 W/m² 10,7 °C 19,2 °C 3,2 km/h (1 Bft)
07.05.2018 17:38 19,2 °C 57 % 1012,3 hPa 0,0 mm 1,7 km/h (1 Bft) O 83 ° 0 min 0,000 mm 1,2 UV-I 91 W/m² 10,5 °C 19,2 °C 3,2 km/h (1 Bft)
07.05.2018 17:39 19,3 °C 56 % 1012,3 hPa 0,0 mm 2,3 km/h (1 Bft) O 84 ° 0 min 0,000 mm 1,2 UV-I 90 W/m² 10,3 °C 19,3 °C 4,8 km/h (1 Bft)
07.05.2018 17:40 19,3 °C 55 % 1012,3 hPa 0,0 mm 2,5 km/h (1 Bft) O-NO 58 ° 0 min 0,000 mm 1,2 UV-I 90 W/m² 10,0 °C 19,3 °C 6,4 km/h (2 Bft)
07.05.2018 17:41 19,3 °C 55 % 1012,3 hPa 0,0 mm 4,7 km/h (1 Bft) O-NO 57 ° 0 min 0,000 mm 1,2 UV-I 88 W/m² 10,0 °C 19,3 °C 8,0 km/h (2 Bft)
07.05.2018 17:42 19,4 °C 55 % 1012,3 hPa 0,0 mm 4,5 km/h (1 Bft) O-SO 102 ° 0 min 0,000 mm 1,2 UV-I 84 W/m² 10,1 °C 19,4 °C 6,4 km/h (2 Bft)
07.05.2018 17:43 19,4 °C 55 % 1012,3 hPa 0,0 mm 3,4 km/h (1 Bft) O 80 ° 0 min 0,000 mm 1,2 UV-I 84 W/m² 10,1 °C 19,4 °C 8,0 km/h (2 Bft)
07.05.2018 17:44 19,4 °C 55 % 1012,3 hPa 0,0 mm 4,4 km/h (1 Bft) O 101 ° 0 min 0,000 mm 1,2 UV-I 84 W/m² 10,1 °C 19,4 °C 6,4 km/h (2 Bft)
07.05.2018 17:45 19,4 °C 55 % 1012,3 hPa 0,0 mm 2,5 km/h (1 Bft) O 88 ° 0 min 0,000 mm 1,2 UV-I 83 W/m² 10,1 °C 19,4 °C 4,8 km/h (1 Bft)
07.05.2018 17:46 19,4 °C 56 % 1012,2 hPa 0,0 mm 5,3 km/h (1 Bft) NO 47 ° 0 min 0,000 mm 1,2 UV-I 83 W/m² 10,4 °C 19,4 °C 8,0 km/h (2 Bft)
07.05.2018 17:47 19,4 °C 55 % 1012,3 hPa 0,0 mm 5,7 km/h (1 Bft) NO 55 ° 0 min 0,000 mm 1,2 UV-I 81 W/m² 10,1 °C 19,4 °C 9,7 km/h (2 Bft)
07.05.2018 17:48 19,5 °C 54 % 1012,3 hPa 0,0 mm 7,4 km/h (2 Bft) O-NO 71 ° 0 min 0,000 mm 1,2 UV-I 77 W/m² 9,9 °C 19,5 °C 11,3 km/h (2 Bft)
07.05.2018 17:49 19,5 °C 54 % 1012,3 hPa 0,0 mm 5,4 km/h (1 Bft) NO 44 ° 0 min 0,000 mm 1,1 UV-I 76 W/m² 9,9 °C 19,5 °C 11,3 km/h (2 Bft)
07.05.2018 17:50 19,6 °C 55 % 1012,3 hPa 0,0 mm 4,4 km/h (1 Bft) O 81 ° 0 min 0,000 mm 1,1 UV-I 74 W/m² 10,3 °C 19,6 °C 6,4 km/h (2 Bft)
07.05.2018 17:51 19,6 °C 54 % 1012,3 hPa 0,0 mm 5,7 km/h (1 Bft) O-NO 78 ° 0 min 0,000 mm 1,1 UV-I 72 W/m² 10,0 °C 19,6 °C 9,7 km/h (2 Bft)
07.05.2018 17:52 19,6 °C 54 % 1012,3 hPa 0,0 mm 7,2 km/h (2 Bft) O-NO 70 ° 0 min 0,000 mm 1,1 UV-I 69 W/m² 10,0 °C 19,6 °C 16,1 km/h (3 Bft)
07.05.2018 17:53 19,4 °C 53 % 1012,2 hPa 0,0 mm 9,7 km/h (2 Bft) O-NO 66 ° 0 min 0,000 mm 1,1 UV-I 67 W/m² 9,6 °C 19,4 °C 14,5 km/h (3 Bft)
07.05.2018 17:54 19,4 °C 54 % 1012,3 hPa 0,0 mm 7,5 km/h (2 Bft) N-NO 24 ° 0 min 0,000 mm 1,1 UV-I 62 W/m² 9,8 °C 19,4 °C 17,7 km/h (3 Bft)
07.05.2018 17:55 19,4 °C 54 % 1012,2 hPa 0,0 mm 5,2 km/h (1 Bft) N-NO 28 ° 0 min 0,000 mm 1,0 UV-I 58 W/m² 9,8 °C 19,4 °C 9,7 km/h (2 Bft)
07.05.2018 17:56 19,4 °C 53 % 1012,2 hPa 0,0 mm 5,5 km/h (1 Bft) NO 53 ° 0 min 0,000 mm 1,0 UV-I 56 W/m² 9,6 °C 19,4 °C 9,7 km/h (2 Bft)
07.05.2018 17:57 19,4 °C 54 % 1012,2 hPa 0,0 mm 7,1 km/h (2 Bft) O-NO 62 ° 0 min 0,000 mm 0,0 UV-I 54 W/m² 9,8 °C 19,4 °C 12,9 km/h (3 Bft)
07.05.2018 17:58 19,4 °C 54 % 1012,2 hPa 0,0 mm 8,2 km/h (2 Bft) O-NO 62 ° 0 min 0,000 mm 0,0 UV-I 51 W/m² 9,8 °C 19,4 °C 14,5 km/h (3 Bft)
07.05.2018 17:59 19,4 °C 54 % 1012,2 hPa 0,0 mm 10,0 km/h (2 Bft) NO 36 ° 0 min 0,000 mm 0,0 UV-I 47 W/m² 9,8 °C 19,4 °C 19,3 km/h (3 Bft)
07.05.2018 18:00 19,3 °C 53 % 1012,2 hPa 0,0 mm 13,8 km/h (3 Bft) O-NO 61 ° 0 min 0,000 mm 0,0 UV-I 47 W/m² 9,5 °C 19,3 °C 20,9 km/h (4 Bft)
07.05.2018 18:01 19,3 °C 53 % 1012,3 hPa 0,0 mm 15,3 km/h (3 Bft) NO 49 ° 0 min 0,101 mm 0,0 UV-I 47 W/m² 9,5 °C 19,3 °C 20,9 km/h (4 Bft)
07.05.2018 18:02 19,3 °C 53 % 1012,3 hPa 0,0 mm 6,5 km/h (2 Bft) NO 55 ° 0 min 0,000 mm 0,0 UV-I 49 W/m² 9,5 °C 19,3 °C 11,3 km/h (2 Bft)
07.05.2018 18:03 19,3 °C 54 % 1012,2 hPa 0,0 mm 9,3 km/h (2 Bft) O-NO 75 ° 0 min 0,000 mm 0,0 UV-I 51 W/m² 9,8 °C 19,3 °C 14,5 km/h (3 Bft)
07.05.2018 18:04 19,3 °C 53 % 1012,2 hPa 0,0 mm 5,7 km/h (1 Bft) N-NO 33 ° 0 min 0,000 mm 0,0 UV-I 53 W/m² 9,5 °C 19,3 °C 11,3 km/h (2 Bft)
07.05.2018 18:05 19,3 °C 53 % 1012,2 hPa 0,0 mm 5,0 km/h (1 Bft) NO 55 ° 0 min 0,000 mm 0,0 UV-I 54 W/m² 9,5 °C 19,3 °C 6,4 km/h (2 Bft)
07.05.2018 18:06 19,3 °C 54 % 1012,2 hPa 0,0 mm 4,8 km/h (1 Bft) O-NO 64 ° 0 min 0,000 mm 0,0 UV-I 49 W/m² 9,8 °C 19,3 °C 12,9 km/h (3 Bft)
07.05.2018 18:07 19,2 °C 54 % 1012,2 hPa 0,0 mm 14,8 km/h (3 Bft) O 82 ° 0 min 0,000 mm 0,0 UV-I 49 W/m² 9,7 °C 19,2 °C 20,9 km/h (4 Bft)
07.05.2018 18:08 19,2 °C 53 % 1012,2 hPa 0,0 mm 9,4 km/h (2 Bft) O-NO 73 ° 0 min 0,000 mm 0,0 UV-I 47 W/m² 9,4 °C 19,2 °C 16,1 km/h (3 Bft)
07.05.2018 18:09 19,2 °C 53 % 1012,2 hPa 0,0 mm 6,3 km/h (2 Bft) N-NO 31 ° 0 min 0,000 mm 0,0 UV-I 46 W/m² 9,4 °C 19,2 °C 9,7 km/h (2 Bft)
07.05.2018 18:10 19,2 °C 53 % 1012,2 hPa 0,0 mm 5,5 km/h (1 Bft) N-NO 25 ° 0 min 0,000 mm 0,0 UV-I 44 W/m² 9,4 °C 19,2 °C 8,0 km/h (2 Bft)
07.05.2018 18:11 19,2 °C 53 % 1012,2 hPa 0,0 mm 11,5 km/h (2 Bft) O-NO 78 ° 0 min 0,000 mm 0,0 UV-I 42 W/m² 9,4 °C 19,2 °C 20,9 km/h (4 Bft)
07.05.2018 18:12 19,2 °C 53 % 1012,2 hPa 0,0 mm 6,5 km/h (2 Bft) O-NO 61 ° 0 min 0,000 mm 0,0 UV-I 42 W/m² 9,4 °C 19,2 °C 12,9 km/h (3 Bft)
07.05.2018 18:13 19,2 °C 54 % 1012,2 hPa 0,0 mm 5,8 km/h (2 Bft) O 88 ° 0 min 0,000 mm 0,0 UV-I 40 W/m² 9,7 °C 19,2 °C 9,7 km/h (2 Bft)
07.05.2018 18:14 19,1 °C 54 % 1012,2 hPa 0,0 mm 3,2 km/h (1 Bft) O-SO 112 ° 0 min 0,000 mm 0,0 UV-I 40 W/m² 9,6 °C 19,1 °C 6,4 km/h (2 Bft)
07.05.2018 18:15 18,9 °C 54 % 1012,2 hPa 0,0 mm 5,0 km/h (1 Bft) S 182 ° 0 min 0,000 mm 0,0 UV-I 42 W/m² 9,4 °C 18,9 °C 12,9 km/h (3 Bft)
07.05.2018 18:16 18,9 °C 54 % 1012,2 hPa 0,0 mm 4,1 km/h (1 Bft) O-NO 72 ° 0 min 0,000 mm 0,0 UV-I 44 W/m² 9,4 °C 18,9 °C 9,7 km/h (2 Bft)
07.05.2018 18:17 18,8 °C 55 % 1012,2 hPa 0,0 mm 2,7 km/h (1 Bft) O-NO 58 ° 0 min 0,000 mm 0,0 UV-I 47 W/m² 9,6 °C 18,8 °C 4,8 km/h (1 Bft)
07.05.2018 18:18 18,8 °C 55 % 1012,2 hPa 0,0 mm 2,0 km/h (1 Bft) O 97 ° 0 min 0,000 mm 0,0 UV-I 49 W/m² 9,6 °C 18,8 °C 6,4 km/h (2 Bft)
07.05.2018 18:19 18,7 °C 54 % 1012,2 hPa 0,0 mm 1,9 km/h (1 Bft) O 99 ° 0 min 0,000 mm 0,0 UV-I 51 W/m² 9,2 °C 18,7 °C 3,2 km/h (1 Bft)
07.05.2018 18:20 18,7 °C 55 % 1012,2 hPa 0,0 mm 1,9 km/h (1 Bft) O-NO 68 ° 0 min 0,000 mm 0,0 UV-I 53 W/m² 9,5 °C 18,7 °C 6,4 km/h (2 Bft)
07.05.2018 18:21 18,7 °C 54 % 1012,2 hPa 0,0 mm 7,3 km/h (2 Bft) O-NO 77 ° 0 min 0,000 mm 0,0 UV-I 53 W/m² 9,2 °C 18,7 °C 12,9 km/h (3 Bft)
07.05.2018 18:22 18,8 °C 54 % 1012,2 hPa 0,0 mm 4,5 km/h (1 Bft) NO 44 ° 0 min 0,000 mm 0,0 UV-I 53 W/m² 9,3 °C 18,8 °C 8,0 km/h (2 Bft)
07.05.2018 18:23 18,8 °C 54 % 1012,2 hPa 0,0 mm 3,1 km/h (1 Bft) NO 41 ° 0 min 0,000 mm 0,0 UV-I 53 W/m² 9,3 °C 18,8 °C 8,0 km/h (2 Bft)
07.05.2018 18:24 18,8 °C 55 % 1012,2 hPa 0,0 mm 2,8 km/h (1 Bft) NO 46 ° 0 min 0,000 mm 0,0 UV-I 53 W/m² 9,6 °C 18,8 °C 4,8 km/h (1 Bft)
07.05.2018 18:25 18,8 °C 54 % 1012,2 hPa 0,0 mm 4,6 km/h (1 Bft) O 84 ° 0 min 0,000 mm 0,0 UV-I 54 W/m² 9,3 °C 18,8 °C 8,0 km/h (2 Bft)
07.05.2018 18:26 18,9 °C 54 % 1012,2 hPa 0,0 mm 6,7 km/h (2 Bft) N-NO 31 ° 0 min 0,000 mm 0,0 UV-I 54 W/m² 9,4 °C 18,9 °C 9,7 km/h (2 Bft)
07.05.2018 18:27 18,9 °C 55 % 1012,2 hPa 0,0 mm 5,2 km/h (1 Bft) O-SO 106 ° 0 min 0,000 mm 0,0 UV-I 54 W/m² 9,7 °C 18,9 °C 14,5 km/h (3 Bft)
07.05.2018 18:28 19,0 °C 55 % 1012,2 hPa 0,0 mm 5,2 km/h (1 Bft) O-NO 78 ° 0 min 0,000 mm 0,8 UV-I 56 W/m² 9,8 °C 19,0 °C 14,5 km/h (3 Bft)
07.05.2018 18:29 19,0 °C 55 % 1012,2 hPa 0,0 mm 4,5 km/h (1 Bft) NO 48 ° 0 min 0,000 mm 0,8 UV-I 56 W/m² 9,8 °C 19,0 °C 9,7 km/h (2 Bft)
07.05.2018 18:30 19,1 °C 53 % 1012,2 hPa 0,0 mm 11,0 km/h (2 Bft) NO 50 ° 0 min 0,000 mm 0,8 UV-I 56 W/m² 9,3 °C 19,1 °C 16,1 km/h (3 Bft)
07.05.2018 18:31 19,1 °C 54 % 1012,2 hPa 0,0 mm 8,6 km/h (2 Bft) O-NO 57 ° 0 min 0,000 mm 0,8 UV-I 65 W/m² 9,6 °C 19,1 °C 17,7 km/h (3 Bft)
07.05.2018 18:32 19,1 °C 52 % 1012,2 hPa 0,0 mm 6,9 km/h (2 Bft) O-NO 70 ° 0 min 0,000 mm 0,8 UV-I 58 W/m² 9,0 °C 19,1 °C 11,3 km/h (2 Bft)
07.05.2018 18:33 19,2 °C 53 % 1012,1 hPa 0,0 mm 6,6 km/h (2 Bft) NO 49 ° 0 min 0,000 mm 0,8 UV-I 58 W/m² 9,4 °C 19,2 °C 9,7 km/h (2 Bft)
07.05.2018 18:34 19,2 °C 53 % 1012,2 hPa 0,0 mm 7,8 km/h (2 Bft) O 91 ° 0 min 0,000 mm 0,8 UV-I 56 W/m² 9,4 °C 19,2 °C 14,5 km/h (3 Bft)
07.05.2018 18:35 19,3 °C 54 % 1012,2 hPa 0,0 mm 5,6 km/h (1 Bft) O-NO 68 ° 0 min 0,000 mm 0,8 UV-I 54 W/m² 9,8 °C 19,3 °C 14,5 km/h (3 Bft)
07.05.2018 18:36 19,2 °C 53 % 1012,2 hPa 0,0 mm 6,9 km/h (2 Bft) O-NO 78 ° 0 min 0,000 mm 0,8 UV-I 56 W/m² 9,4 °C 19,2 °C 11,3 km/h (2 Bft)
07.05.2018 18:37 19,2 °C 52 % 1012,2 hPa 0,0 mm 9,3 km/h (2 Bft) O-NO 57 ° 0 min 0,000 mm 0,8 UV-I 56 W/m² 9,1 °C 19,2 °C 16,1 km/h (3 Bft)
07.05.2018 18:38 19,2 °C 53 % 1012,2 hPa 0,0 mm 6,9 km/h (2 Bft) O 89 ° 0 min 0,000 mm 0,8 UV-I 56 W/m² 9,4 °C 19,2 °C 9,7 km/h (2 Bft)
07.05.2018 18:39 19,3 °C 54 % 1012,2 hPa 0,0 mm 5,1 km/h (1 Bft) O 96 ° 0 min 0,000 mm 0,8 UV-I 62 W/m² 9,8 °C 19,3 °C 11,3 km/h (2 Bft)
07.05.2018 18:40 19,3 °C 53 % 1012,2 hPa 0,0 mm 8,2 km/h (2 Bft) NO 34 ° 0 min 0,000 mm 0,8 UV-I 65 W/m² 9,5 °C 19,3 °C 16,1 km/h (3 Bft)
07.05.2018 18:41 19,2 °C 52 % 1012,2 hPa 0,0 mm 12,3 km/h (3 Bft) O-NO 58 ° 0 min 0,000 mm 0,7 UV-I 67 W/m² 9,1 °C 19,2 °C 16,1 km/h (3 Bft)
07.05.2018 18:42 19,2 °C 52 % 1012,2 hPa 0,0 mm 5,6 km/h (1 Bft) NO 51 ° 0 min 0,000 mm 0,7 UV-I 62 W/m² 9,1 °C 19,2 °C 9,7 km/h (2 Bft)
07.05.2018 18:43 19,2 °C 52 % 1012,2 hPa 0,0 mm 8,0 km/h (2 Bft) O 81 ° 0 min 0,000 mm 0,7 UV-I 62 W/m² 9,1 °C 19,2 °C 16,1 km/h (3 Bft)
07.05.2018 18:44 19,2 °C 52 % 1012,2 hPa 0,0 mm 6,2 km/h (2 Bft) N-NO 32 ° 0 min 0,000 mm 0,7 UV-I 62 W/m² 9,1 °C 19,2 °C 11,3 km/h (2 Bft)
07.05.2018 18:45 19,2 °C 52 % 1012,2 hPa 0,0 mm 2,8 km/h (1 Bft) NO 39 ° 0 min 0,000 mm 0,7 UV-I 63 W/m² 9,1 °C 19,2 °C 4,8 km/h (1 Bft)
07.05.2018 18:46 19,2 °C 52 % 1012,2 hPa 0,0 mm 7,8 km/h (2 Bft) O-NO 65 ° 0 min 0,000 mm 0,7 UV-I 67 W/m² 9,1 °C 19,2 °C 9,7 km/h (2 Bft)
07.05.2018 18:47 19,2 °C 52 % 1012,2 hPa 0,0 mm 10,6 km/h (2 Bft) O-NO 58 ° 0 min 0,000 mm 0,7 UV-I 69 W/m² 9,1 °C 19,2 °C 16,1 km/h (3 Bft)
07.05.2018 18:48 19,2 °C 52 % 1012,2 hPa 0,0 mm 4,0 km/h (1 Bft) O-NO 63 ° 0 min 0,000 mm 0,7 UV-I 72 W/m² 9,1 °C 19,2 °C 8,0 km/h (2 Bft)
07.05.2018 18:49 19,3 °C 53 % 1012,2 hPa 0,0 mm 4,2 km/h (1 Bft) O-NO 78 ° 0 min 0,000 mm 0,7 UV-I 77 W/m² 9,5 °C 19,3 °C 6,4 km/h (2 Bft)
07.05.2018 18:50 19,3 °C 54 % 1012,2 hPa 0,0 mm 5,5 km/h (1 Bft) N-NO 30 ° 0 min 0,000 mm 0,7 UV-I 86 W/m² 9,8 °C 19,3 °C 11,3 km/h (2 Bft)
07.05.2018 18:51 19,3 °C 53 % 1012,3 hPa 0,0 mm 6,6 km/h (2 Bft) NO 55 ° 0 min 0,000 mm 0,7 UV-I 105 W/m² 9,5 °C 19,3 °C 14,5 km/h (3 Bft)
07.05.2018 18:52 19,3 °C 52 % 1012,3 hPa 0,0 mm 7,4 km/h (2 Bft) O 80 ° 0 min 0,000 mm 0,7 UV-I 120 W/m² 9,2 °C 19,3 °C 11,3 km/h (2 Bft)
07.05.2018 18:53 19,3 °C 53 % 1012,3 hPa 0,0 mm 4,2 km/h (1 Bft) NO 51 ° 0 min 0,000 mm 0,7 UV-I 134 W/m² 9,5 °C 19,3 °C 6,4 km/h (2 Bft)
07.05.2018 18:54 19,3 °C 53 % 1012,3 hPa 0,0 mm 4,4 km/h (1 Bft) O-NO 75 ° 0 min 0,000 mm 0,7 UV-I 146 W/m² 9,5 °C 19,3 °C 6,4 km/h (2 Bft)
07.05.2018 18:55 19,3 °C 53 % 1012,3 hPa 0,0 mm 4,4 km/h (1 Bft) NO 49 ° 0 min 0,000 mm 0,7 UV-I 139 W/m² 9,5 °C 19,3 °C 6,4 km/h (2 Bft)
07.05.2018 18:56 19,3 °C 54 % 1012,3 hPa 0,0 mm 3,8 km/h (1 Bft) N-NO 27 ° 0 min 0,000 mm 0,6 UV-I 125 W/m² 9,8 °C 19,3 °C 4,8 km/h (1 Bft)
07.05.2018 18:57 19,4 °C 53 % 1012,4 hPa 0,0 mm 8,1 km/h (2 Bft) O-NO 64 ° 0 min 0,000 mm 0,6 UV-I 114 W/m² 9,6 °C 19,4 °C 14,5 km/h (3 Bft)
07.05.2018 18:58 19,4 °C 52 % 1012,4 hPa 0,0 mm 10,8 km/h (2 Bft) O 86 ° 0 min 0,000 mm 0,6 UV-I 127 W/m² 9,3 °C 19,4 °C 14,5 km/h (3 Bft)
07.05.2018 18:59 19,4 °C 52 % 1012,3 hPa 0,0 mm 4,3 km/h (1 Bft) O-NO 73 ° 0 min 0,000 mm 0,6 UV-I 116 W/m² 9,3 °C 19,4 °C 8,0 km/h (2 Bft)
07.05.2018 19:00 19,4 °C 52 % 1012,3 hPa 0,0 mm 6,0 km/h (2 Bft) O 87 ° 0 min 0,000 mm 0,6 UV-I 132 W/m² 9,3 °C 19,4 °C 14,5 km/h (3 Bft)
07.05.2018 19:01 19,4 °C 52 % 1012,3 hPa 0,0 mm 3,6 km/h (1 Bft) N 5 ° 0 min 0,077 mm 0,6 UV-I 121 W/m² 9,3 °C 19,4 °C 12,9 km/h (3 Bft)
07.05.2018 19:02 19,4 °C 52 % 1012,3 hPa 0,0 mm 8,5 km/h (2 Bft) NO 53 ° 0 min 0,000 mm 0,6 UV-I 102 W/m² 9,3 °C 19,4 °C 16,1 km/h (3 Bft)
07.05.2018 19:03 19,4 °C 52 % 1012,4 hPa 0,0 mm 10,0 km/h (2 Bft) O-NO 64 ° 0 min 0,000 mm 0,6 UV-I 167 W/m² 9,3 °C 19,4 °C 14,5 km/h (3 Bft)
07.05.2018 19:04 19,4 °C 51 % 1012,3 hPa 0,0 mm 11,7 km/h (2 Bft) O 94 ° 0 min 0,000 mm 0,6 UV-I 116 W/m² 9,0 °C 19,4 °C 16,1 km/h (3 Bft)
07.05.2018 19:05 19,4 °C 52 % 1012,4 hPa 0,0 mm 5,8 km/h (2 Bft) NO 46 ° 0 min 0,000 mm 0,6 UV-I 95 W/m² 9,3 °C 19,4 °C 9,7 km/h (2 Bft)
07.05.2018 19:06 19,4 °C 51 % 1012,3 hPa 0,0 mm 7,7 km/h (2 Bft) NO 47 ° 0 min 0,000 mm 0,6 UV-I 95 W/m² 9,0 °C 19,4 °C 16,1 km/h (3 Bft)
07.05.2018 19:07 19,4 °C 51 % 1012,4 hPa 0,0 mm 6,7 km/h (2 Bft) O 80 ° 0 min 0,000 mm 0,5 UV-I 83 W/m² 9,0 °C 19,4 °C 9,7 km/h (2 Bft)
07.05.2018 19:08 19,3 °C 51 % 1012,3 hPa 0,0 mm 5,8 km/h (2 Bft) NO 51 ° 0 min 0,000 mm 0,5 UV-I 77 W/m² 8,9 °C 19,3 °C 11,3 km/h (2 Bft)
07.05.2018 19:09 19,3 °C 51 % 1012,3 hPa 0,0 mm 6,7 km/h (2 Bft) N-NO 22 ° 0 min 0,000 mm 0,5 UV-I 76 W/m² 8,9 °C 19,3 °C 11,3 km/h (2 Bft)
07.05.2018 19:10 19,3 °C 51 % 1012,3 hPa 0,0 mm 5,2 km/h (1 Bft) NO 44 ° 0 min 0,000 mm 0,5 UV-I 69 W/m² 8,9 °C 19,3 °C 9,7 km/h (2 Bft)
07.05.2018 19:11 19,2 °C 51 % 1012,3 hPa 0,0 mm 7,2 km/h (2 Bft) NO 37 ° 0 min 0,000 mm 0,5 UV-I 67 W/m² 8,8 °C 19,2 °C 12,9 km/h (3 Bft)
07.05.2018 19:12 19,2 °C 51 % 1012,3 hPa 0,0 mm 6,4 km/h (2 Bft) N-NO 22 ° 0 min 0,000 mm 0,5 UV-I 65 W/m² 8,8 °C 19,2 °C 12,9 km/h (3 Bft)
07.05.2018 19:13 19,2 °C 51 % 1012,3 hPa 0,0 mm 6,3 km/h (2 Bft) NO 36 ° 0 min 0,000 mm 0,5 UV-I 67 W/m² 8,8 °C 19,2 °C 12,9 km/h (3 Bft)
07.05.2018 19:14 19,2 °C 52 % 1012,3 hPa 0,0 mm 8,0 km/h (2 Bft) O-NO 67 ° 0 min 0,000 mm 0,5 UV-I 72 W/m² 9,1 °C 19,2 °C 12,9 km/h (3 Bft)
07.05.2018 19:15 19,2 °C 52 % 1012,3 hPa 0,0 mm 7,0 km/h (2 Bft) NO 43 ° 0 min 0,000 mm 0,5 UV-I 76 W/m² 9,1 °C 19,2 °C 12,9 km/h (3 Bft)
07.05.2018 19:16 19,2 °C 52 % 1012,3 hPa 0,0 mm 4,7 km/h (1 Bft) N-NO 12 ° 0 min 0,000 mm 0,5 UV-I 69 W/m² 9,1 °C 19,2 °C 6,4 km/h (2 Bft)
07.05.2018 19:17 19,2 °C 52 % 1012,3 hPa 0,0 mm 8,3 km/h (2 Bft) O-NO 78 ° 0 min 0,000 mm 0,0 UV-I 77 W/m² 9,1 °C 19,2 °C 14,5 km/h (3 Bft)
07.05.2018 19:18 19,1 °C 52 % 1012,3 hPa 0,0 mm 7,4 km/h (2 Bft) NO 53 ° 0 min 0,000 mm 0,0 UV-I 62 W/m² 9,0 °C 19,1 °C 16,1 km/h (3 Bft)
07.05.2018 19:19 19,1 °C 53 % 1012,3 hPa 0,0 mm 4,6 km/h (1 Bft) O-NO 57 ° 0 min 0,000 mm 0,0 UV-I 58 W/m² 9,3 °C 19,1 °C 6,4 km/h (2 Bft)
07.05.2018 19:20 19,1 °C 53 % 1012,3 hPa 0,0 mm 3,5 km/h (1 Bft) NO 34 ° 0 min 0,000 mm 0,0 UV-I 62 W/m² 9,3 °C 19,1 °C 6,4 km/h (2 Bft)
07.05.2018 19:21 19,1 °C 52 % 1012,3 hPa 0,0 mm 5,8 km/h (2 Bft) O-NO 70 ° 0 min 0,000 mm 0,0 UV-I 54 W/m² 9,0 °C 19,1 °C 9,7 km/h (2 Bft)
07.05.2018 19:22 19,0 °C 53 % 1012,4 hPa 0,0 mm 3,2 km/h (1 Bft) NO 45 ° 0 min 0,000 mm 0,0 UV-I 60 W/m² 9,2 °C 19,0 °C 4,8 km/h (1 Bft)
07.05.2018 19:23 19,0 °C 53 % 1012,4 hPa 0,0 mm 5,2 km/h (1 Bft) NO 49 ° 0 min 0,000 mm 0,0 UV-I 51 W/m² 9,2 °C 19,0 °C 9,7 km/h (2 Bft)
07.05.2018 19:24 19,0 °C 53 % 1012,4 hPa 0,0 mm 4,1 km/h (1 Bft) O-NO 67 ° 0 min 0,000 mm 0,0 UV-I 44 W/m² 9,2 °C 19,0 °C 8,0 km/h (2 Bft)
07.05.2018 19:25 18,9 °C 53 % 1012,4 hPa 0,0 mm 1,8 km/h (1 Bft) NO 42 ° 0 min 0,000 mm 0,0 UV-I 40 W/m² 9,1 °C 18,9 °C 6,4 km/h (2 Bft)
07.05.2018 19:26 18,9 °C 54 % 1012,4 hPa 0,0 mm 2,3 km/h (1 Bft) O-NO 66 ° 0 min 0,000 mm 0,0 UV-I 37 W/m² 9,4 °C 18,9 °C 6,4 km/h (2 Bft)
07.05.2018 19:27 18,8 °C 54 % 1012,4 hPa 0,0 mm 4,4 km/h (1 Bft) NO 48 ° 0 min 0,000 mm 0,0 UV-I 33 W/m² 9,3 °C 18,8 °C 8,0 km/h (2 Bft)
07.05.2018 19:28 18,8 °C 54 % 1012,4 hPa 0,0 mm 2,0 km/h (1 Bft) NO 51 ° 0 min 0,000 mm 0,0 UV-I 32 W/m² 9,3 °C 18,8 °C 4,8 km/h (1 Bft)
07.05.2018 19:29 18,8 °C 54 % 1012,3 hPa 0,0 mm 1,7 km/h (1 Bft) NO 53 ° 0 min 0,000 mm 0,0 UV-I 32 W/m² 9,3 °C 18,8 °C 4,8 km/h (1 Bft)
07.05.2018 19:30 18,7 °C 57 % 1012,4 hPa 0,0 mm 1,2 km/h (1 Bft) NO 53 ° 0 min 0,000 mm 0,0 UV-I 32 W/m² 10,0 °C 18,7 °C 4,8 km/h (1 Bft)
07.05.2018 19:31 18,5 °C 57 % 1012,4 hPa 0,0 mm 3,1 km/h (1 Bft) O-NO 57 ° 0 min 0,000 mm 0,0 UV-I 30 W/m² 9,8 °C 18,5 °C 8,0 km/h (2 Bft)
07.05.2018 19:32 18,3 °C 58 % 1012,3 hPa 0,0 mm 0,0 km/h (0 Bft) O-NO 57 ° 0 min 0,000 mm 0,0 UV-I 28 W/m² 9,9 °C 18,3 °C 0,0 km/h (0 Bft)
07.05.2018 19:33 18,2 °C 55 % 1012,4 hPa 0,0 mm 0,0 km/h (0 Bft) O-NO 57 ° 0 min 0,000 mm 0,0 UV-I 26 W/m² 9,0 °C 18,2 °C 0,0 km/h (0 Bft)
07.05.2018 19:34 18,1 °C 56 % 1012,4 hPa 0,0 mm 0,0 km/h (0 Bft) O-NO 57 ° 0 min 0,000 mm 0,0 UV-I 25 W/m² 9,2 °C 18,1 °C 0,0 km/h (0 Bft)
07.05.2018 19:35 18,1 °C 57 % 1012,4 hPa 0,0 mm 0,0 km/h (0 Bft) O-NO 57 ° 0 min 0,000 mm 0,0 UV-I 25 W/m² 9,4 °C 18,1 °C 0,0 km/h (0 Bft)
07.05.2018 19:36 18,0 °C 58 % 1012,4 hPa 0,0 mm 1,1 km/h (1 Bft) O-NO 65 ° 0 min 0,000 mm 0,0 UV-I 25 W/m² 9,6 °C 18,0 °C 3,2 km/h (1 Bft)
07.05.2018 19:37 17,8 °C 59 % 1012,3 hPa 0,0 mm 0,9 km/h (0 Bft) O-NO 65 ° 0 min 0,000 mm 0,0 UV-I 25 W/m² 9,7 °C 17,8 °C 3,2 km/h (1 Bft)
07.05.2018 19:38 17,7 °C 58 % 1012,4 hPa 0,0 mm 1,0 km/h (0 Bft) O-NO 64 ° 0 min 0,000 mm 0,0 UV-I 23 W/m² 9,3 °C 17,7 °C 3,2 km/h (1 Bft)
07.05.2018 19:39 17,7 °C 58 % 1012,3 hPa 0,0 mm 0,1 km/h (0 Bft) O-NO 64 ° 0 min 0,000 mm 0,0 UV-I 23 W/m² 9,3 °C 17,7 °C 1,6 km/h (1 Bft)
07.05.2018 19:40 17,6 °C 58 % 1012,3 hPa 0,0 mm 0,0 km/h (0 Bft) O-NO 64 ° 0 min 0,000 mm 0,0 UV-I 23 W/m² 9,2 °C 17,6 °C 0,0 km/h (0 Bft)
07.05.2018 19:41 17,6 °C 58 % 1012,4 hPa 0,0 mm 0,0 km/h (0 Bft) O-NO 64 ° 0 min 0,000 mm 0,0 UV-I 21 W/m² 9,2 °C 17,6 °C 0,0 km/h (0 Bft)
07.05.2018 19:42 17,5 °C 61 % 1012,3 hPa 0,0 mm 0,0 km/h (0 Bft) O-NO 64 ° 0 min 0,000 mm 0,0 UV-I 21 W/m² 9,9 °C 17,5 °C 0,0 km/h (0 Bft)
07.05.2018 19:43 17,3 °C 61 % 1012,3 hPa 0,0 mm 0,0 km/h (0 Bft) O-NO 64 ° 0 min 0,000 mm 0,0 UV-I 21 W/m² 9,7 °C 17,3 °C 0,0 km/h (0 Bft)
07.05.2018 19:44 17,1 °C 60 % 1012,3 hPa 0,0 mm 1,1 km/h (1 Bft) O-NO 64 ° 0 min 0,000 mm 0,0 UV-I 21 W/m² 9,3 °C 17,1 °C 4,8 km/h (1 Bft)
07.05.2018 19:45 17,1 °C 61 % 1012,3 hPa 0,0 mm 2,9 km/h (1 Bft) O-NO 65 ° 0 min 0,000 mm 0,0 UV-I 19 W/m² 9,5 °C 17,1 °C 4,8 km/h (1 Bft)
07.05.2018 19:46 16,9 °C 62 % 1012,3 hPa 0,0 mm 1,5 km/h (1 Bft) O-NO 65 ° 0 min 0,000 mm 0,0 UV-I 19 W/m² 9,6 °C 16,9 °C 3,2 km/h (1 Bft)
07.05.2018 19:47 16,9 °C 60 % 1012,3 hPa 0,0 mm 0,0 km/h (0 Bft) O-NO 65 ° 0 min 0,000 mm 0,0 UV-I 21 W/m² 9,1 °C 16,9 °C 0,0 km/h (0 Bft)
07.05.2018 19:48 17,0 °C 60 % 1012,3 hPa 0,0 mm 0,0 km/h (0 Bft) O-NO 65 ° 0 min 0,000 mm 0,0 UV-I 19 W/m² 9,2 °C 17,0 °C 0,0 km/h (0 Bft)
07.05.2018 19:49 16,9 °C 60 % 1012,3 hPa 0,0 mm 0,1 km/h (0 Bft) O-NO 65 ° 0 min 0,000 mm 0,0 UV-I 19 W/m² 9,1 °C 16,9 °C 1,6 km/h (1 Bft)
07.05.2018 19:50 16,9 °C 62 % 1012,3 hPa 0,0 mm 0,0 km/h (0 Bft) O-NO 65 ° 0 min 0,000 mm 0,0 UV-I 19 W/m² 9,6 °C 16,9 °C 0,0 km/h (0 Bft)
07.05.2018 19:51 16,8 °C 61 % 1012,3 hPa 0,0 mm 0,2 km/h (0 Bft) O-NO 65 ° 0 min 0,000 mm 0,0 UV-I 19 W/m² 9,2 °C 16,8 °C 1,6 km/h (1 Bft)
07.05.2018 19:52 16,8 °C 61 % 1012,3 hPa 0,0 mm 1,1 km/h (1 Bft) O-NO 65 ° 0 min 0,000 mm 0,0 UV-I 19 W/m² 9,2 °C 16,8 °C 1,6 km/h (1 Bft)
07.05.2018 19:53 16,9 °C 60 % 1012,3 hPa 0,0 mm 0,9 km/h (0 Bft) O-NO 65 ° 0 min 0,000 mm 0,0 UV-I 19 W/m² 9,1 °C 16,9 °C 3,2 km/h (1 Bft)
07.05.2018 19:54 16,9 °C 60 % 1012,4 hPa 0,0 mm 1,8 km/h (1 Bft) O-NO 65 ° 0 min 0,000 mm 0,0 UV-I 19 W/m² 9,1 °C 16,9 °C 3,2 km/h (1 Bft)
07.05.2018 19:55 16,9 °C 60 % 1012,4 hPa 0,0 mm 0,6 km/h (0 Bft) O-NO 65 ° 0 min 0,000 mm 0,0 UV-I 18 W/m² 9,1 °C 16,9 °C 3,2 km/h (1 Bft)
07.05.2018 19:56 16,9 °C 60 % 1012,4 hPa 0,0 mm 1,6 km/h (1 Bft) O-NO 65 ° 0 min 0,000 mm 0,0 UV-I 18 W/m² 9,1 °C 16,9 °C 3,2 km/h (1 Bft)
07.05.2018 19:57 16,8 °C 61 % 1012,4 hPa 0,0 mm 0,5 km/h (0 Bft) O-NO 65 ° 0 min 0,000 mm 0,0 UV-I 16 W/m² 9,2 °C 16,8 °C 1,6 km/h (1 Bft)
07.05.2018 19:58 16,7 °C 61 % 1012,4 hPa 0,0 mm 1,0 km/h (0 Bft) O-NO 65 ° 0 min 0,000 mm 0,0 UV-I 16 W/m² 9,1 °C 16,7 °C 1,6 km/h (1 Bft)
07.05.2018 19:59 16,6 °C 62 % 1012,4 hPa 0,0 mm 0,0 km/h (0 Bft) O-NO 65 ° 0 min 0,000 mm 0,0 UV-I 14 W/m² 9,3 °C 16,6 °C 0,0 km/h (0 Bft)
07.05.2018 20:00 16,6 °C 62 % 1012,4 hPa 0,0 mm 0,1 km/h (0 Bft) O-NO 65 ° 0 min 0,000 mm 0,0 UV-I 14 W/m² 9,3 °C 16,6 °C 1,6 km/h (1 Bft)
07.05.2018 20:01 16,5 °C 63 % 1012,4 hPa 0,0 mm 2,1 km/h (1 Bft) O-NO 65 ° 0 min 0,050 mm 0,0 UV-I 14 W/m² 9,4 °C 16,5 °C 3,2 km/h (1 Bft)
07.05.2018 20:02 16,4 °C 62 % 1012,5 hPa 0,0 mm 0,7 km/h (0 Bft) O-NO 65 ° 0 min 0,000 mm 0,0 UV-I 12 W/m² 9,1 °C 16,4 °C 1,6 km/h (1 Bft)
07.05.2018 20:03 16,4 °C 62 % 1012,4 hPa 0,0 mm 0,0 km/h (0 Bft) O-NO 65 ° 0 min 0,000 mm 0,0 UV-I 12 W/m² 9,1 °C 16,4 °C 0,0 km/h (0 Bft)
07.05.2018 20:04 16,4 °C 62 % 1012,4 hPa 0,0 mm 0,2 km/h (0 Bft) O-NO 65 ° 0 min 0,000 mm 0,0 UV-I 12 W/m² 9,1 °C 16,4 °C 1,6 km/h (1 Bft)
07.05.2018 20:05 16,4 °C 61 % 1012,4 hPa 0,0 mm 0,1 km/h (0 Bft) O-NO 65 ° 0 min 0,000 mm 0,0 UV-I 12 W/m² 8,9 °C 16,4 °C 1,6 km/h (1 Bft)
07.05.2018 20:06 16,5 °C 62 % 1012,4 hPa 0,0 mm 0,1 km/h (0 Bft) O-NO 65 ° 0 min 0,000 mm 0,0 UV-I 12 W/m² 9,2 °C 16,5 °C 1,6 km/h (1 Bft)
07.05.2018 20:07 16,4 °C 62 % 1012,4 hPa 0,0 mm 0,0 km/h (0 Bft) O-NO 65 ° 0 min 0,000 mm 0,0 UV-I 12 W/m² 9,1 °C 16,4 °C 0,0 km/h (0 Bft)
07.05.2018 20:08 16,3 °C 62 % 1012,4 hPa 0,0 mm 0,5 km/h (0 Bft) O-NO 65 ° 0 min 0,000 mm 0,0 UV-I 11 W/m² 9,0 °C 16,3 °C 1,6 km/h (1 Bft)
07.05.2018 20:09 16,3 °C 62 % 1012,4 hPa 0,0 mm 1,5 km/h (1 Bft) O-NO 65 ° 0 min 0,000 mm 0,0 UV-I 11 W/m² 9,0 °C 16,3 °C 3,2 km/h (1 Bft)
07.05.2018 20:10 16,2 °C 62 % 1012,4 hPa 0,0 mm 0,1 km/h (0 Bft) O-NO 65 ° 0 min 0,000 mm 0,0 UV-I 11 W/m² 8,9 °C 16,2 °C 1,6 km/h (1 Bft)
07.05.2018 20:11 16,2 °C 63 % 1012,4 hPa 0,0 mm 0,1 km/h (0 Bft) O-NO 65 ° 0 min 0,000 mm 0,0 UV-I 11 W/m² 9,1 °C 16,2 °C 1,6 km/h (1 Bft)
07.05.2018 20:12 16,2 °C 63 % 1012,4 hPa 0,0 mm 0,0 km/h (0 Bft) O-NO 65 ° 0 min 0,000 mm 0,0 UV-I 11 W/m² 9,1 °C 16,2 °C 0,0 km/h (0 Bft)
07.05.2018 20:13 16,0 °C 64 % 1012,4 hPa 0,0 mm 2,4 km/h (1 Bft) O-NO 65 ° 0 min 0,000 mm 0,0 UV-I 11 W/m² 9,2 °C 16,0 °C 3,2 km/h (1 Bft)
07.05.2018 20:14 15,9 °C 64 % 1012,4 hPa 0,0 mm 1,9 km/h (1 Bft) O-NO 65 ° 0 min 0,000 mm 0,0 UV-I 9 W/m² 9,1 °C 15,9 °C 3,2 km/h (1 Bft)
07.05.2018 20:15 15,9 °C 63 % 1012,4 hPa 0,0 mm 3,1 km/h (1 Bft) O-NO 65 ° 0 min 0,000 mm 0,0 UV-I 9 W/m² 8,9 °C 15,9 °C 3,2 km/h (1 Bft)
07.05.2018 20:16 15,9 °C 63 % 1012,4 hPa 0,0 mm 2,5 km/h (1 Bft) O-NO 65 ° 0 min 0,000 mm 0,0 UV-I 9 W/m² 8,9 °C 15,9 °C 3,2 km/h (1 Bft)
07.05.2018 20:17 15,9 °C 63 % 1012,5 hPa 0,0 mm 2,7 km/h (1 Bft) O-NO 65 ° 0 min 0,000 mm 0,0 UV-I 9 W/m² 8,9 °C 15,9 °C 4,8 km/h (1 Bft)
07.05.2018 20:18 15,9 °C 64 % 1012,4 hPa 0,0 mm 2,5 km/h (1 Bft) O-NO 65 ° 0 min 0,000 mm 0,0 UV-I 7 W/m² 9,1 °C 15,9 °C 3,2 km/h (1 Bft)
07.05.2018 20:19 15,9 °C 63 % 1012,5 hPa 0,0 mm 2,7 km/h (1 Bft) O-NO 65 ° 0 min 0,000 mm 0,0 UV-I 7 W/m² 8,9 °C 15,9 °C 4,8 km/h (1 Bft)
07.05.2018 20:20 15,9 °C 63 % 1012,5 hPa 0,0 mm 3,4 km/h (1 Bft) O-NO 65 ° 0 min 0,000 mm 0,0 UV-I 7 W/m² 8,9 °C 15,9 °C 4,8 km/h (1 Bft)
07.05.2018 20:21 15,9 °C 63 % 1012,5 hPa 0,0 mm 2,8 km/h (1 Bft) O-NO 65 ° 0 min 0,000 mm 0,0 UV-I 7 W/m² 8,9 °C 15,9 °C 3,2 km/h (1 Bft)
07.05.2018 20:22 15,9 °C 63 % 1012,5 hPa 0,0 mm 2,2 km/h (1 Bft) O-NO 65 ° 0 min 0,000 mm 0,0 UV-I 7 W/m² 8,9 °C 15,9 °C 3,2 km/h (1 Bft)
07.05.2018 20:23 15,9 °C 64 % 1012,5 hPa 0,0 mm 2,3 km/h (1 Bft) O-NO 65 ° 0 min 0,000 mm 0,0 UV-I 5 W/m² 9,1 °C 15,9 °C 3,2 km/h (1 Bft)
07.05.2018 20:24 15,8 °C 64 % 1012,5 hPa 0,0 mm 2,2 km/h (1 Bft) O-NO 65 ° 0 min 0,000 mm 0,0 UV-I 5 W/m² 9,0 °C 15,8 °C 3,2 km/h (1 Bft)
07.05.2018 20:25 15,8 °C 64 % 1012,4 hPa 0,0 mm 1,8 km/h (1 Bft) O-NO 65 ° 0 min 0,000 mm 0,0 UV-I 5 W/m² 9,0 °C 15,8 °C 3,2 km/h (1 Bft)
07.05.2018 20:26 15,7 °C 64 % 1012,4 hPa 0,0 mm 1,2 km/h (1 Bft) O-NO 65 ° 0 min 0,000 mm 0,0 UV-I 5 W/m² 8,9 °C 15,7 °C 1,6 km/h (1 Bft)
07.05.2018 20:27 15,6 °C 64 % 1012,5 hPa 0,0 mm 0,8 km/h (0 Bft) O-NO 65 ° 0 min 0,000 mm 0,0 UV-I 5 W/m² 8,8 °C 15,6 °C 3,2 km/h (1 Bft)
07.05.2018 20:28 15,4 °C 66 % 1012,4 hPa 0,0 mm 1,6 km/h (1 Bft) O-NO 65 ° 0 min 0,000 mm 0,0 UV-I 5 W/m² 9,1 °C 15,4 °C 3,2 km/h (1 Bft)
07.05.2018 20:29 15,3 °C 66 % 1012,4 hPa 0,0 mm 1,1 km/h (1 Bft) O-NO 65 ° 0 min 0,000 mm 0,0 UV-I 5 W/m² 9,0 °C 15,3 °C 1,6 km/h (1 Bft)
07.05.2018 20:30 15,1 °C 67 % 1012,4 hPa 0,0 mm 1,8 km/h (1 Bft) O-NO 65 ° 0 min 0,000 mm 0,0 UV-I 5 W/m² 9,0 °C 15,1 °C 3,2 km/h (1 Bft)
07.05.2018 20:31 14,9 °C 67 % 1012,4 hPa 0,0 mm 2,3 km/h (1 Bft) O-NO 65 ° 0 min 0,000 mm 0,0 UV-I 5 W/m² 8,8 °C 14,9 °C 3,2 km/h (1 Bft)
07.05.2018 20:32 14,9 °C 67 % 1012,4 hPa 0,0 mm 0,2 km/h (0 Bft) O-NO 65 ° 0 min 0,000 mm 0,0 UV-I 0 W/m² 8,8 °C 14,9 °C 1,6 km/h (1 Bft)
07.05.2018 20:33 14,9 °C 67 % 1012,4 hPa 0,0 mm 0,0 km/h (0 Bft) O-NO 65 ° 0 min 0,000 mm 0,0 UV-I 0 W/m² 8,8 °C 14,9 °C 0,0 km/h (0 Bft)
07.05.2018 20:34 14,8 °C 68 % 1012,4 hPa 0,0 mm 1,9 km/h (1 Bft) O-NO 65 ° 0 min 0,000 mm 0,0 UV-I 0 W/m² 9,0 °C 14,8 °C 3,2 km/h (1 Bft)
07.05.2018 20:35 14,7 °C 68 % 1012,4 hPa 0,0 mm 1,1 km/h (1 Bft) O-NO 65 ° 0 min 0,000 mm 0,0 UV-I 0 W/m² 8,9 °C 14,7 °C 1,6 km/h (1 Bft)
07.05.2018 20:36 14,6 °C 68 % 1012,4 hPa 0,0 mm 0,0 km/h (0 Bft) O-NO 65 ° 0 min 0,000 mm 0,0 UV-I 0 W/m² 8,8 °C 14,6 °C 0,0 km/h (0 Bft)
07.05.2018 20:37 14,4 °C 69 % 1012,4 hPa 0,0 mm 0,0 km/h (0 Bft) O-NO 65 ° 0 min 0,000 mm 0,0 UV-I 0 W/m² 8,8 °C 14,4 °C 0,0 km/h (0 Bft)
07.05.2018 20:38 14,3 °C 69 % 1012,4 hPa 0,0 mm 0,0 km/h (0 Bft) O-NO 65 ° 0 min 0,000 mm 0,0 UV-I 0 W/m² 8,7 °C 14,3 °C 0,0 km/h (0 Bft)
07.05.2018 20:39 14,2 °C 70 % 1012,5 hPa 0,0 mm 0,0 km/h (0 Bft) O-NO 65 ° 0 min 0,000 mm 0,0 UV-I 0 W/m² 8,8 °C 14,2 °C 0,0 km/h (0 Bft)
07.05.2018 20:40 14,2 °C 70 % 1012,5 hPa 0,0 mm 0,0 km/h (0 Bft) O-NO 65 ° 0 min 0,000 mm 0,0 UV-I 0 W/m² 8,8 °C 14,2 °C 0,0 km/h (0 Bft)
07.05.2018 20:41 14,1 °C 70 % 1012,5 hPa 0,0 mm 0,0 km/h (0 Bft) O-NO 65 ° 0 min 0,000 mm 0,0 UV-I 0 W/m² 8,7 °C 14,1 °C 0,0 km/h (0 Bft)
07.05.2018 20:42 14,1 °C 70 % 1012,5 hPa 0,0 mm 0,0 km/h (0 Bft) O-NO 65 ° 0 min 0,000 mm 0,0 UV-I 0 W/m² 8,7 °C 14,1 °C 0,0 km/h (0 Bft)
07.05.2018 20:43 14,2 °C 70 % 1012,5 hPa 0,0 mm 0,0 km/h (0 Bft) O-NO 65 ° 0 min 0,000 mm 0,0 UV-I 0 W/m² 8,8 °C 14,2 °C 0,0 km/h (0 Bft)
07.05.2018 20:44 14,2 °C 70 % 1012,5 hPa 0,0 mm 0,0 km/h (0 Bft) O-NO 65 ° 0 min 0,000 mm 0,0 UV-I 0 W/m² 8,8 °C 14,2 °C 0,0 km/h (0 Bft)
07.05.2018 20:45 13,9 °C 71 % 1012,6 hPa 0,0 mm 0,0 km/h (0 Bft) O-NO 65 ° 0 min 0,000 mm 0,0 UV-I 0 W/m² 8,7 °C 13,9 °C 0,0 km/h (0 Bft)
07.05.2018 20:46 13,6 °C 72 % 1012,6 hPa 0,0 mm 0,0 km/h (0 Bft) O-NO 65 ° 0 min 0,000 mm 0,0 UV-I 0 W/m² 8,6 °C 13,6 °C 0,0 km/h (0 Bft)
07.05.2018 20:47 13,3 °C 73 % 1012,5 hPa 0,0 mm 0,0 km/h (0 Bft) O-NO 65 ° 0 min 0,000 mm 0,0 UV-I 0 W/m² 8,6 °C 13,3 °C 0,0 km/h (0 Bft)
07.05.2018 20:48 13,1 °C 74 % 1012,6 hPa 0,0 mm 0,0 km/h (0 Bft) O-NO 65 ° 0 min 0,000 mm 0,0 UV-I 0 W/m² 8,6 °C 13,1 °C 0,0 km/h (0 Bft)
07.05.2018 20:49 12,9 °C 75 % 1012,6 hPa 0,0 mm 0,0 km/h (0 Bft) O-NO 65 ° 0 min 0,000 mm 0,0 UV-I 0 W/m² 8,6 °C 12,9 °C 0,0 km/h (0 Bft)
07.05.2018 20:50 12,8 °C 75 % 1012,5 hPa 0,0 mm 0,0 km/h (0 Bft) O-NO 65 ° 0 min 0,000 mm 0,0 UV-I 0 W/m² 8,5 °C 12,8 °C 0,0 km/h (0 Bft)
07.05.2018 20:51 12,9 °C 75 % 1012,6 hPa 0,0 mm 0,1 km/h (0 Bft) O-NO 65 ° 0 min 0,000 mm 0,0 UV-I 0 W/m² 8,6 °C 12,9 °C 1,6 km/h (1 Bft)
07.05.2018 20:52 13,0 °C 74 % 1012,6 hPa 0,0 mm 0,1 km/h (0 Bft) O-NO 65 ° 0 min 0,000 mm 0,0 UV-I 0 W/m² 8,5 °C 13,0 °C 1,6 km/h (1 Bft)
07.05.2018 20:53 13,1 °C 75 % 1012,6 hPa 0,0 mm 0,0 km/h (0 Bft) O-NO 65 ° 0 min 0,000 mm 0,0 UV-I 0 W/m² 8,8 °C 13,1 °C 0,0 km/h (0 Bft)
07.05.2018 20:54 13,1 °C 74 % 1012,6 hPa 0,0 mm 0,7 km/h (0 Bft) O-NO 65 ° 0 min 0,000 mm 0,0 UV-I 0 W/m² 8,6 °C 13,1 °C 1,6 km/h (1 Bft)
07.05.2018 20:55 13,1 °C 74 % 1012,6 hPa 0,0 mm 0,0 km/h (0 Bft) O-NO 65 ° 0 min 0,000 mm 0,0 UV-I 0 W/m² 8,6 °C 13,1 °C 0,0 km/h (0 Bft)
07.05.2018 20:56 13,1 °C 74 % 1012,7 hPa 0,0 mm 0,2 km/h (0 Bft) O-NO 65 ° 0 min 0,000 mm 0,0 UV-I 0 W/m² 8,6 °C 13,1 °C 1,6 km/h (1 Bft)
07.05.2018 20:57 13,2 °C 74 % 1012,7 hPa 0,0 mm 1,8 km/h (1 Bft) O-NO 65 ° 0 min 0,000 mm 0,0 UV-I 0 W/m² 8,7 °C 13,2 °C 3,2 km/h (1 Bft)
07.05.2018 20:58 13,4 °C 73 % 1012,6 hPa 0,0 mm 3,2 km/h (1 Bft) O-NO 66 ° 0 min 0,000 mm 0,0 UV-I 0 W/m² 8,7 °C 13,4 °C 4,8 km/h (1 Bft)
07.05.2018 20:59 13,4 °C 72 % 1012,7 hPa 0,0 mm 3,3 km/h (1 Bft) O-NO 69 ° 0 min 0,000 mm 0,0 UV-I 0 W/m² 8,5 °C 13,4 °C 4,8 km/h (1 Bft)
07.05.2018 21:00 13,6 °C 72 % 1012,7 hPa 0,0 mm 2,9 km/h (1 Bft) O-NO 69 ° 0 min 0,000 mm 0,0 UV-I 0 W/m² 8,6 °C 13,6 °C 3,2 km/h (1 Bft)
07.05.2018 21:01 13,7 °C 72 % 1012,6 hPa 0,0 mm 1,0 km/h (0 Bft) O-NO 69 ° 0 min 0,026 mm 0,0 UV-I 0 W/m² 8,7 °C 13,7 °C 3,2 km/h (1 Bft)
07.05.2018 21:02 13,6 °C 72 % 1012,6 hPa 0,0 mm 1,2 km/h (1 Bft) O-NO 69 ° 0 min 0,000 mm 0,0 UV-I 0 W/m² 8,6 °C 13,6 °C 3,2 km/h (1 Bft)
07.05.2018 21:03 13,4 °C 72 % 1012,7 hPa 0,0 mm 0,5 km/h (0 Bft) O-NO 69 ° 0 min 0,000 mm 0,0 UV-I 0 W/m² 8,5 °C 13,4 °C 1,6 km/h (1 Bft)
07.05.2018 21:04 13,2 °C 73 % 1012,7 hPa 0,0 mm 0,0 km/h (0 Bft) O-NO 69 ° 0 min 0,000 mm 0,0 UV-I 0 W/m² 8,5 °C 13,2 °C 0,0 km/h (0 Bft)
07.05.2018 21:05 13,1 °C 74 % 1012,7 hPa 0,0 mm 0,0 km/h (0 Bft) O-NO 69 ° 0 min 0,000 mm 0,0 UV-I 0 W/m² 8,6 °C 13,1 °C 0,0 km/h (0 Bft)
07.05.2018 21:06 12,9 °C 74 % 1012,7 hPa 0,0 mm 2,2 km/h (1 Bft) O 84 ° 0 min 0,000 mm 0,0 UV-I 0 W/m² 8,4 °C 12,9 °C 4,8 km/h (1 Bft)
07.05.2018 21:07 13,0 °C 74 % 1012,7 hPa 0,0 mm 2,7 km/h (1 Bft) O 87 ° 0 min 0,000 mm 0,0 UV-I 0 W/m² 8,5 °C 13,0 °C 4,8 km/h (1 Bft)
07.05.2018 21:08 13,1 °C 74 % 1012,7 hPa 0,0 mm 1,1 km/h (1 Bft) O 87 ° 0 min 0,000 mm 0,0 UV-I 0 W/m² 8,6 °C 13,1 °C 3,2 km/h (1 Bft)
07.05.2018 21:09 13,2 °C 73 % 1012,7 hPa 0,0 mm 0,8 km/h (0 Bft) O 87 ° 0 min 0,000 mm 0,0 UV-I 0 W/m² 8,5 °C 13,2 °C 1,6 km/h (1 Bft)
07.05.2018 21:10 13,2 °C 73 % 1012,7 hPa 0,0 mm 0,1 km/h (0 Bft) O 87 ° 0 min 0,000 mm 0,0 UV-I 0 W/m² 8,5 °C 13,2 °C 1,6 km/h (1 Bft)
07.05.2018 21:11 13,1 °C 74 % 1012,7 hPa 0,0 mm 0,0 km/h (0 Bft) O 87 ° 0 min 0,000 mm 0,0 UV-I 0 W/m² 8,6 °C 13,1 °C 0,0 km/h (0 Bft)
07.05.2018 21:12 12,8 °C 74 % 1012,7 hPa 0,0 mm 0,0 km/h (0 Bft) O 87 ° 0 min 0,000 mm 0,0 UV-I 0 W/m² 8,3 °C 12,8 °C 0,0 km/h (0 Bft)
07.05.2018 21:13 12,7 °C 75 % 1012,7 hPa 0,0 mm 0,0 km/h (0 Bft) O 87 ° 0 min 0,000 mm 0,0 UV-I 0 W/m² 8,4 °C 12,7 °C 0,0 km/h (0 Bft)
07.05.2018 21:14 12,6 °C 75 % 1012,7 hPa 0,0 mm 0,0 km/h (0 Bft) O 87 ° 0 min 0,000 mm 0,0 UV-I 0 W/m² 8,3 °C 12,6 °C 0,0 km/h (0 Bft)
07.05.2018 21:15 12,5 °C 76 % 1012,7 hPa 0,0 mm 0,0 km/h (0 Bft) O 87 ° 0 min 0,000 mm 0,0 UV-I 0 W/m² 8,4 °C 12,5 °C 0,0 km/h (0 Bft)
07.05.2018 21:16 12,4 °C 76 % 1012,8 hPa 0,0 mm 0,0 km/h (0 Bft) O 87 ° 0 min 0,000 mm 0,0 UV-I 0 W/m² 8,3 °C 12,4 °C 0,0 km/h (0 Bft)
07.05.2018 21:17 12,3 °C 76 % 1012,7 hPa 0,0 mm 0,4 km/h (0 Bft) O 87 ° 0 min 0,000 mm 0,0 UV-I 0 W/m² 8,2 °C 12,3 °C 1,6 km/h (1 Bft)
07.05.2018 21:18 12,3 °C 76 % 1012,8 hPa 0,0 mm 0,1 km/h (0 Bft) O 87 ° 0 min 0,000 mm 0,0 UV-I 0 W/m² 8,2 °C 12,3 °C 1,6 km/h (1 Bft)
07.05.2018 21:19 12,3 °C 77 % 1012,8 hPa 0,0 mm 0,0 km/h (0 Bft) O 87 ° 0 min 0,000 mm 0,0 UV-I 0 W/m² 8,4 °C 12,3 °C 0,0 km/h (0 Bft)
07.05.2018 21:20 12,2 °C 77 % 1012,8 hPa 0,0 mm 0,0 km/h (0 Bft) O 87 ° 0 min 0,000 mm 0,0 UV-I 0 W/m² 8,3 °C 12,2 °C 0,0 km/h (0 Bft)
07.05.2018 21:21 12,2 °C 77 % 1012,8 hPa 0,0 mm 0,0 km/h (0 Bft) O 87 ° 0 min 0,000 mm 0,0 UV-I 0 W/m² 8,3 °C 12,2 °C 0,0 km/h (0 Bft)
07.05.2018 21:22 12,2 °C 77 % 1012,8 hPa 0,0 mm 0,0 km/h (0 Bft) O 87 ° 0 min 0,000 mm 0,0 UV-I 0 W/m² 8,3 °C 12,2 °C 0,0 km/h (0 Bft)
07.05.2018 21:23 12,1 °C 77 % 1012,9 hPa 0,0 mm 0,0 km/h (0 Bft) O 87 ° 0 min 0,000 mm 0,0 UV-I 0 W/m² 8,2 °C 12,1 °C 0,0 km/h (0 Bft)
07.05.2018 21:24 12,2 °C 77 % 1012,8 hPa 0,0 mm 0,0 km/h (0 Bft) O 87 ° 0 min 0,000 mm 0,0 UV-I 0 W/m² 8,3 °C 12,2 °C 0,0 km/h (0 Bft)
07.05.2018 21:25 12,2 °C 77 % 1012,9 hPa 0,0 mm 0,0 km/h (0 Bft) O 87 ° 0 min 0,000 mm 0,0 UV-I 0 W/m² 8,3 °C 12,2 °C 0,0 km/h (0 Bft)
07.05.2018 21:26 12,1 °C 77 % 1012,8 hPa 0,0 mm 0,3 km/h (0 Bft) O 87 ° 0 min 0,000 mm 0,0 UV-I 0 W/m² 8,2 °C 12,1 °C 1,6 km/h (1 Bft)
07.05.2018 21:27 12,1 °C 77 % 1012,9 hPa 0,0 mm 0,2 km/h (0 Bft) O 87 ° 0 min 0,000 mm 0,0 UV-I 0 W/m² 8,2 °C 12,1 °C 1,6 km/h (1 Bft)
07.05.2018 21:28 12,1 °C 77 % 1012,9 hPa 0,0 mm 1,9 km/h (1 Bft) O 87 ° 0 min 0,000 mm 0,0 UV-I 0 W/m² 8,2 °C 12,1 °C 3,2 km/h (1 Bft)
07.05.2018 21:29 11,9 °C 77 % 1012,9 hPa 0,0 mm 3,7 km/h (1 Bft) O 88 ° 0 min 0,000 mm 0,0 UV-I 0 W/m² 8,0 °C 11,9 °C 4,8 km/h (1 Bft)
07.05.2018 21:30 11,9 °C 78 % 1013,0 hPa 0,0 mm 1,7 km/h (1 Bft) O 88 ° 0 min 0,000 mm 0,0 UV-I 0 W/m² 8,2 °C 11,9 °C 3,2 km/h (1 Bft)
07.05.2018 21:31 11,9 °C 78 % 1013,0 hPa 0,0 mm 1,3 km/h (1 Bft) O 88 ° 0 min 0,000 mm 0,0 UV-I 0 W/m² 8,2 °C 11,9 °C 3,2 km/h (1 Bft)
07.05.2018 21:32 12,0 °C 77 % 1013,0 hPa 0,0 mm 0,0 km/h (0 Bft) O 88 ° 0 min 0,000 mm 0,0 UV-I 0 W/m² 8,1 °C 12,0 °C 0,0 km/h (0 Bft)
07.05.2018 21:33 12,0 °C 77 % 1013,0 hPa 0,0 mm 0,0 km/h (0 Bft) O 88 ° 0 min 0,000 mm 0,0 UV-I 0 W/m² 8,1 °C 12,0 °C 0,0 km/h (0 Bft)
07.05.2018 21:34 11,9 °C 78 % 1013,0 hPa 0,0 mm 0,0 km/h (0 Bft) O 88 ° 0 min 0,000 mm 0,0 UV-I 0 W/m² 8,2 °C 11,9 °C 0,0 km/h (0 Bft)
07.05.2018 21:35 11,7 °C 78 % 1013,0 hPa 0,0 mm 0,0 km/h (0 Bft) O 88 ° 0 min 0,000 mm 0,0 UV-I 0 W/m² 8,0 °C 11,7 °C 0,0 km/h (0 Bft)
07.05.2018 21:36 11,6 °C 79 % 1013,0 hPa 0,0 mm 0,0 km/h (0 Bft) O 88 ° 0 min 0,000 mm 0,0 UV-I 0 W/m² 8,1 °C 11,6 °C 0,0 km/h (0 Bft)
07.05.2018 21:37 11,5 °C 79 % 1013,0 hPa 0,0 mm 0,0 km/h (0 Bft) O 88 ° 0 min 0,000 mm 0,0 UV-I 0 W/m² 8,0 °C 11,5 °C 0,0 km/h (0 Bft)
07.05.2018 21:38 11,4 °C 79 % 1013,1 hPa 0,0 mm 0,0 km/h (0 Bft) O 88 ° 0 min 0,000 mm 0,0 UV-I 0 W/m² 7,9 °C 11,4 °C 0,0 km/h (0 Bft)
07.05.2018 21:39 11,4 °C 79 % 1013,1 hPa 0,0 mm 0,0 km/h (0 Bft) O 88 ° 0 min 0,000 mm 0,0 UV-I 0 W/m² 7,9 °C 11,4 °C 0,0 km/h (0 Bft)
07.05.2018 21:40 11,3 °C 79 % 1013,0 hPa 0,0 mm 0,0 km/h (0 Bft) O 88 ° 0 min 0,000 mm 0,0 UV-I 0 W/m² 7,8 °C 11,3 °C 0,0 km/h (0 Bft)
07.05.2018 21:41 11,3 °C 79 % 1013,0 hPa 0,0 mm 0,0 km/h (0 Bft) O 88 ° 0 min 0,000 mm 0,0 UV-I 0 W/m² 7,8 °C 11,3 °C 0,0 km/h (0 Bft)
07.05.2018 21:42 11,3 °C 79 % 1013,0 hPa 0,0 mm 0,0 km/h (0 Bft) O 88 ° 0 min 0,000 mm 0,0 UV-I 0 W/m² 7,8 °C 11,3 °C 0,0 km/h (0 Bft)
07.05.2018 21:43 11,3 °C 80 % 1013,0 hPa 0,0 mm 0,0 km/h (0 Bft) O 88 ° 0 min 0,000 mm 0,0 UV-I 0 W/m² 8,0 °C 11,3 °C 0,0 km/h (0 Bft)
07.05.2018 21:44 11,4 °C 80 % 1013,0 hPa 0,0 mm 0,0 km/h (0 Bft) O 88 ° 0 min 0,000 mm 0,0 UV-I 0 W/m² 8,1 °C 11,4 °C 0,0 km/h (0 Bft)
07.05.2018 21:45 11,4 °C 80 % 1013,1 hPa 0,0 mm 0,0 km/h (0 Bft) O 88 ° 0 min 0,000 mm 0,0 UV-I 0 W/m² 8,1 °C 11,4 °C 0,0 km/h (0 Bft)
07.05.2018 21:46 11,4 °C 79 % 1013,0 hPa 0,0 mm 0,3 km/h (0 Bft) O 88 ° 0 min 0,000 mm 0,0 UV-I 0 W/m² 7,9 °C 11,4 °C 3,2 km/h (1 Bft)
07.05.2018 21:47 11,4 °C 79 % 1013,1 hPa 0,0 mm 0,3 km/h (0 Bft) O 88 ° 0 min 0,000 mm 0,0 UV-I 0 W/m² 7,9 °C 11,4 °C 3,2 km/h (1 Bft)
07.05.2018 21:48 11,5 °C 80 % 1013,1 hPa 0,0 mm 0,0 km/h (0 Bft) O 88 ° 0 min 0,000 mm 0,0 UV-I 0 W/m² 8,2 °C 11,5 °C 0,0 km/h (0 Bft)
07.05.2018 21:49 11,5 °C 80 % 1013,1 hPa 0,0 mm 0,0 km/h (0 Bft) O 88 ° 0 min 0,000 mm 0,0 UV-I 0 W/m² 8,2 °C 11,5 °C 0,0 km/h (0 Bft)
07.05.2018 21:50 11,5 °C 79 % 1013,1 hPa 0,0 mm 0,0 km/h (0 Bft) O 88 ° 0 min 0,000 mm 0,0 UV-I 0 W/m² 8,0 °C 11,5 °C 0,0 km/h (0 Bft)
07.05.2018 21:51 11,5 °C 79 % 1013,1 hPa 0,0 mm 0,0 km/h (0 Bft) O 88 ° 0 min 0,000 mm 0,0 UV-I 0 W/m² 8,0 °C 11,5 °C 0,0 km/h (0 Bft)
07.05.2018 21:52 11,5 °C 79 % 1013,1 hPa 0,0 mm 0,0 km/h (0 Bft) O 88 ° 0 min 0,000 mm 0,0 UV-I 0 W/m² 8,0 °C 11,5 °C 0,0 km/h (0 Bft)
07.05.2018 21:53 11,4 °C 79 % 1013,1 hPa 0,0 mm 0,0 km/h (0 Bft) O 88 ° 0 min 0,000 mm 0,0 UV-I 0 W/m² 7,9 °C 11,4 °C 0,0 km/h (0 Bft)
07.05.2018 21:54 11,3 °C 80 % 1013,1 hPa 0,0 mm 0,0 km/h (0 Bft) O 88 ° 0 min 0,000 mm 0,0 UV-I 0 W/m² 8,0 °C 11,3 °C 0,0 km/h (0 Bft)
07.05.2018 21:55 11,2 °C 80 % 1013,1 hPa 0,0 mm 0,0 km/h (0 Bft) O 88 ° 0 min 0,000 mm 0,0 UV-I 0 W/m² 7,9 °C 11,2 °C 0,0 km/h (0 Bft)
07.05.2018 21:56 11,2 °C 80 % 1013,0 hPa 0,0 mm 0,0 km/h (0 Bft) O 88 ° 0 min 0,000 mm 0,0 UV-I 0 W/m² 7,9 °C 11,2 °C 0,0 km/h (0 Bft)
07.05.2018 21:57 11,1 °C 80 % 1013,0 hPa 0,0 mm 0,0 km/h (0 Bft) O 88 ° 0 min 0,000 mm 0,0 UV-I 0 W/m² 7,8 °C 11,1 °C 0,0 km/h (0 Bft)
07.05.2018 21:58 11,1 °C 81 % 1013,0 hPa 0,0 mm 0,0 km/h (0 Bft) O 88 ° 0 min 0,000 mm 0,0 UV-I 0 W/m² 8,0 °C 11,1 °C 0,0 km/h (0 Bft)
07.05.2018 21:59 11,1 °C 80 % 1013,0 hPa 0,0 mm 0,0 km/h (0 Bft) O 88 ° 0 min 0,000 mm 0,0 UV-I 0 W/m² 7,8 °C 11,1 °C 0,0 km/h (0 Bft)
07.05.2018 22:00 11,1 °C 80 % 1013,0 hPa 0,0 mm 0,0 km/h (0 Bft) O 88 ° 0 min 0,000 mm 0,0 UV-I 0 W/m² 7,8 °C 11,1 °C 0,0 km/h (0 Bft)
07.05.2018 22:01 11,0 °C 80 % 1013,0 hPa 0,0 mm 0,0 km/h (0 Bft) O 88 ° 0 min 0,025 mm 0,0 UV-I 0 W/m² 7,7 °C 11,0 °C 0,0 km/h (0 Bft)
07.05.2018 22:02 10,9 °C 80 % 1013,0 hPa 0,0 mm 0,0 km/h (0 Bft) O 88 ° 0 min 0,000 mm 0,0 UV-I 0 W/m² 7,6 °C 10,9 °C 0,0 km/h (0 Bft)
07.05.2018 22:03 10,9 °C 80 % 1013,0 hPa 0,0 mm 0,2 km/h (0 Bft) O 88 ° 0 min 0,000 mm 0,0 UV-I 0 W/m² 7,6 °C 10,9 °C 1,6 km/h (1 Bft)
07.05.2018 22:04 10,9 °C 80 % 1013,0 hPa 0,0 mm 0,4 km/h (0 Bft) O 88 ° 0 min 0,000 mm 0,0 UV-I 0 W/m² 7,6 °C 10,9 °C 1,6 km/h (1 Bft)
07.05.2018 22:05 11,0 °C 80 % 1013,0 hPa 0,0 mm 0,0 km/h (0 Bft) O 88 ° 0 min 0,000 mm 0,0 UV-I 0 W/m² 7,7 °C 11,0 °C 0,0 km/h (0 Bft)
07.05.2018 22:06 10,9 °C 80 % 1013,0 hPa 0,0 mm 0,4 km/h (0 Bft) O 88 ° 0 min 0,000 mm 0,0 UV-I 0 W/m² 7,6 °C 10,9 °C 1,6 km/h (1 Bft)
07.05.2018 22:07 10,9 °C 80 % 1013,0 hPa 0,0 mm 0,0 km/h (0 Bft) O 88 ° 0 min 0,000 mm 0,0 UV-I 0 W/m² 7,6 °C 10,9 °C 0,0 km/h (0 Bft)
07.05.2018 22:08 10,9 °C 81 % 1013,0 hPa 0,0 mm 0,0 km/h (0 Bft) O 88 ° 0 min 0,000 mm 0,0 UV-I 0 W/m² 7,8 °C 10,9 °C 0,0 km/h (0 Bft)
07.05.2018 22:09 10,9 °C 80 % 1013,0 hPa 0,0 mm 0,0 km/h (0 Bft) O 88 ° 0 min 0,000 mm 0,0 UV-I 0 W/m² 7,6 °C 10,9 °C 0,0 km/h (0 Bft)
07.05.2018 22:10 10,9 °C 80 % 1013,0 hPa 0,0 mm 0,0 km/h (0 Bft) O 88 ° 0 min 0,000 mm 0,0 UV-I 0 W/m² 7,6 °C 10,9 °C 0,0 km/h (0 Bft)
07.05.2018 22:11 10,9 °C 80 % 1013,0 hPa 0,0 mm 0,0 km/h (0 Bft) O 88 ° 0 min 0,000 mm 0,0 UV-I 0 W/m² 7,6 °C 10,9 °C 0,0 km/h (0 Bft)
07.05.2018 22:12 10,9 °C 80 % 1013,0 hPa 0,0 mm 0,0 km/h (0 Bft) O 88 ° 0 min 0,000 mm 0,0 UV-I 0 W/m² 7,6 °C 10,9 °C 0,0 km/h (0 Bft)
07.05.2018 22:13 10,9 °C 80 % 1013,0 hPa 0,0 mm 0,0 km/h (0 Bft) O 88 ° 0 min 0,000 mm 0,0 UV-I 0 W/m² 7,6 °C 10,9 °C 0,0 km/h (0 Bft)
07.05.2018 22:14 10,9 °C 80 % 1013,0 hPa 0,0 mm 0,0 km/h (0 Bft) O 88 ° 0 min 0,000 mm 0,0 UV-I 0 W/m² 7,6 °C 10,9 °C 0,0 km/h (0 Bft)
07.05.2018 22:15 10,9 °C 80 % 1013,0 hPa 0,0 mm 0,1 km/h (0 Bft) O 88 ° 0 min 0,000 mm 0,0 UV-I 0 W/m² 7,6 °C 10,9 °C 1,6 km/h (1 Bft)
07.05.2018 22:16 10,9 °C 80 % 1013,0 hPa 0,0 mm 0,0 km/h (0 Bft) O 88 ° 0 min 0,000 mm 0,0 UV-I 0 W/m² 7,6 °C 10,9 °C 0,0 km/h (0 Bft)
07.05.2018 22:17 10,9 °C 81 % 1013,0 hPa 0,0 mm 0,0 km/h (0 Bft) O 88 ° 0 min 0,000 mm 0,0 UV-I 0 W/m² 7,8 °C 10,9 °C 0,0 km/h (0 Bft)
07.05.2018 22:18 10,9 °C 80 % 1013,0 hPa 0,0 mm 0,0 km/h (0 Bft) O 88 ° 0 min 0,000 mm 0,0 UV-I 0 W/m² 7,6 °C 10,9 °C 0,0 km/h (0 Bft)
07.05.2018 22:19 10,8 °C 80 % 1013,0 hPa 0,0 mm 0,0 km/h (0 Bft) O 88 ° 0 min 0,000 mm 0,0 UV-I 0 W/m² 7,5 °C 10,8 °C 0,0 km/h (0 Bft)
07.05.2018 22:20 10,8 °C 81 % 1013,0 hPa 0,0 mm 0,0 km/h (0 Bft) O 88 ° 0 min 0,000 mm 0,0 UV-I 0 W/m² 7,7 °C 10,8 °C 0,0 km/h (0 Bft)
07.05.2018 22:21 10,8 °C 81 % 1013,0 hPa 0,0 mm 0,0 km/h (0 Bft) O 88 ° 0 min 0,000 mm 0,0 UV-I 0 W/m² 7,7 °C 10,8 °C 0,0 km/h (0 Bft)
07.05.2018 22:22 10,8 °C 81 % 1013,0 hPa 0,0 mm 0,0 km/h (0 Bft) O 88 ° 0 min 0,000 mm 0,0 UV-I 0 W/m² 7,7 °C 10,8 °C 0,0 km/h (0 Bft)
07.05.2018 22:23 10,7 °C 81 % 1013,0 hPa 0,0 mm 0,0 km/h (0 Bft) O 88 ° 0 min 0,000 mm 0,0 UV-I 0 W/m² 7,6 °C 10,7 °C 0,0 km/h (0 Bft)
07.05.2018 22:24 10,6 °C 81 % 1013,0 hPa 0,0 mm 0,0 km/h (0 Bft) O 88 ° 0 min 0,000 mm 0,0 UV-I 0 W/m² 7,5 °C 10,6 °C 0,0 km/h (0 Bft)
07.05.2018 22:25 10,6 °C 81 % 1013,0 hPa 0,0 mm 0,0 km/h (0 Bft) O 88 ° 0 min 0,000 mm 0,0 UV-I 0 W/m² 7,5 °C 10,6 °C 0,0 km/h (0 Bft)
07.05.2018 22:26 10,5 °C 82 % 1013,0 hPa 0,0 mm 0,0 km/h (0 Bft) O 88 ° 0 min 0,000 mm 0,0 UV-I 0 W/m² 7,6 °C 10,5 °C 0,0 km/h (0 Bft)
07.05.2018 22:27 10,5 °C 82 % 1013,0 hPa 0,0 mm 0,0 km/h (0 Bft) O 88 ° 0 min 0,000 mm 0,0 UV-I 0 W/m² 7,6 °C 10,5 °C 0,0 km/h (0 Bft)
07.05.2018 22:28 10,5 °C 82 % 1013,0 hPa 0,0 mm 0,0 km/h (0 Bft) O 88 ° 0 min 0,000 mm 0,0 UV-I 0 W/m² 7,6 °C 10,5 °C 0,0 km/h (0 Bft)
07.05.2018 22:29 10,5 °C 82 % 1013,0 hPa 0,0 mm 0,0 km/h (0 Bft) O 88 ° 0 min 0,000 mm 0,0 UV-I 0 W/m² 7,6 °C 10,5 °C 0,0 km/h (0 Bft)
07.05.2018 22:30 10,4 °C 82 % 1012,9 hPa 0,0 mm 0,0 km/h (0 Bft) O 88 ° 0 min 0,000 mm 0,0 UV-I 0 W/m² 7,5 °C 10,4 °C 0,0 km/h (0 Bft)
07.05.2018 22:31 10,4 °C 82 % 1012,9 hPa 0,0 mm 1,7 km/h (1 Bft) O 88 ° 0 min 0,000 mm 0,0 UV-I 0 W/m² 7,5 °C 10,4 °C 3,2 km/h (1 Bft)
07.05.2018 22:32 10,4 °C 82 % 1012,9 hPa 0,0 mm 1,8 km/h (1 Bft) O 88 ° 0 min 0,000 mm 0,0 UV-I 0 W/m² 7,5 °C 10,4 °C 3,2 km/h (1 Bft)
07.05.2018 22:33 10,3 °C 82 % 1012,9 hPa 0,0 mm 0,0 km/h (0 Bft) O 88 ° 0 min 0,000 mm 0,0 UV-I 0 W/m² 7,4 °C 10,3 °C 0,0 km/h (0 Bft)
07.05.2018 22:34 10,3 °C 82 % 1012,9 hPa 0,0 mm 0,0 km/h (0 Bft) O 88 ° 0 min 0,000 mm 0,0 UV-I 0 W/m² 7,4 °C 10,3 °C 0,0 km/h (0 Bft)
07.05.2018 22:35 10,3 °C 83 % 1012,9 hPa 0,0 mm 0,0 km/h (0 Bft) O 88 ° 0 min 0,000 mm 0,0 UV-I 0 W/m² 7,5 °C 10,3 °C 0,0 km/h (0 Bft)
07.05.2018 22:36 10,3 °C 83 % 1012,9 hPa 0,0 mm 0,4 km/h (0 Bft) O 88 ° 0 min 0,000 mm 0,0 UV-I 0 W/m² 7,5 °C 10,3 °C 1,6 km/h (1 Bft)
07.05.2018 22:37 10,3 °C 83 % 1012,9 hPa 0,0 mm 1,9 km/h (1 Bft) O 88 ° 0 min 0,000 mm 0,0 UV-I 0 W/m² 7,5 °C 10,3 °C 3,2 km/h (1 Bft)
07.05.2018 22:38 10,3 °C 82 % 1012,8 hPa 0,0 mm 0,0 km/h (0 Bft) O 88 ° 0 min 0,000 mm 0,0 UV-I 0 W/m² 7,4 °C 10,3 °C 0,0 km/h (0 Bft)
07.05.2018 22:39 10,2 °C 83 % 1012,9 hPa 0,0 mm 0,6 km/h (0 Bft) O 88 ° 0 min 0,000 mm 0,0 UV-I 0 W/m² 7,4 °C 10,2 °C 4,8 km/h (1 Bft)
07.05.2018 22:40 10,2 °C 83 % 1012,8 hPa 0,0 mm 2,9 km/h (1 Bft) O 88 ° 0 min 0,000 mm 0,0 UV-I 0 W/m² 7,4 °C 10,2 °C 4,8 km/h (1 Bft)
07.05.2018 22:41 10,2 °C 83 % 1012,8 hPa 0,0 mm 1,8 km/h (1 Bft) O 88 ° 0 min 0,000 mm 0,0 UV-I 0 W/m² 7,4 °C 10,2 °C 3,2 km/h (1 Bft)
07.05.2018 22:42 10,2 °C 83 % 1012,8 hPa 0,0 mm 0,1 km/h (0 Bft) O 88 ° 0 min 0,000 mm 0,0 UV-I 0 W/m² 7,4 °C 10,2 °C 1,6 km/h (1 Bft)
07.05.2018 22:43 10,2 °C 83 % 1012,9 hPa 0,0 mm 0,3 km/h (0 Bft) O 88 ° 0 min 0,000 mm 0,0 UV-I 0 W/m² 7,4 °C 10,2 °C 1,6 km/h (1 Bft)
07.05.2018 22:44 10,2 °C 83 % 1012,9 hPa 0,0 mm 0,0 km/h (0 Bft) O 88 ° 0 min 0,000 mm 0,0 UV-I 0 W/m² 7,4 °C 10,2 °C 0,0 km/h (0 Bft)
07.05.2018 22:45 10,3 °C 83 % 1012,8 hPa 0,0 mm 1,7 km/h (1 Bft) O 90 ° 0 min 0,000 mm 0,0 UV-I 0 W/m² 7,5 °C 10,3 °C 4,8 km/h (1 Bft)
07.05.2018 22:46 10,2 °C 82 % 1012,8 hPa 0,0 mm 3,2 km/h (1 Bft) O-SO 106 ° 0 min 0,000 mm 0,0 UV-I 0 W/m² 7,3 °C 10,2 °C 4,8 km/h (1 Bft)
07.05.2018 22:47 10,3 °C 82 % 1012,8 hPa 0,0 mm 2,5 km/h (1 Bft) O-SO 106 ° 0 min 0,000 mm 0,0 UV-I 0 W/m² 7,4 °C 10,3 °C 3,2 km/h (1 Bft)
07.05.2018 22:48 10,3 °C 82 % 1012,8 hPa 0,0 mm 2,6 km/h (1 Bft) O-SO 106 ° 0 min 0,000 mm 0,0 UV-I 0 W/m² 7,4 °C 10,3 °C 3,2 km/h (1 Bft)
07.05.2018 22:49 10,2 °C 83 % 1012,9 hPa 0,0 mm 1,5 km/h (1 Bft) O-SO 106 ° 0 min 0,000 mm 0,0 UV-I 0 W/m² 7,4 °C 10,2 °C 3,2 km/h (1 Bft)
07.05.2018 22:50 10,1 °C 83 % 1012,9 hPa 0,0 mm 0,0 km/h (0 Bft) O-SO 106 ° 0 min 0,000 mm 0,0 UV-I 0 W/m² 7,3 °C 10,1 °C 0,0 km/h (0 Bft)
07.05.2018 22:51 10,1 °C 83 % 1012,9 hPa 0,0 mm 0,0 km/h (0 Bft) O-SO 106 ° 0 min 0,000 mm 0,0 UV-I 0 W/m² 7,3 °C 10,1 °C 0,0 km/h (0 Bft)
07.05.2018 22:52 10,0 °C 83 % 1012,8 hPa 0,0 mm 0,0 km/h (0 Bft) O-SO 106 ° 0 min 0,000 mm 0,0 UV-I 0 W/m² 7,2 °C 10,0 °C 0,0 km/h (0 Bft)
07.05.2018 22:53 10,0 °C 83 % 1012,8 hPa 0,0 mm 0,0 km/h (0 Bft) O-SO 106 ° 0 min 0,000 mm 0,0 UV-I 0 W/m² 7,2 °C 10,0 °C 0,0 km/h (0 Bft)
07.05.2018 22:54 9,9 °C 84 % 1012,9 hPa 0,0 mm 0,0 km/h (0 Bft) O-SO 106 ° 0 min 0,000 mm 0,0 UV-I 0 W/m² 7,3 °C 9,9 °C 0,0 km/h (0 Bft)
07.05.2018 22:55 9,9 °C 83 % 1012,9 hPa 0,0 mm 0,0 km/h (0 Bft) O-SO 106 ° 0 min 0,000 mm 0,0 UV-I 0 W/m² 7,2 °C 9,9 °C 0,0 km/h (0 Bft)
07.05.2018 22:56 9,9 °C 83 % 1012,8 hPa 0,0 mm 0,0 km/h (0 Bft) O-SO 106 ° 0 min 0,000 mm 0,0 UV-I 0 W/m² 7,2 °C 9,9 °C 0,0 km/h (0 Bft)
07.05.2018 22:57 9,9 °C 83 % 1012,8 hPa 0,0 mm 0,0 km/h (0 Bft) O-SO 106 ° 0 min 0,000 mm 0,0 UV-I 0 W/m² 7,2 °C 9,9 °C 0,0 km/h (0 Bft)
07.05.2018 22:58 9,9 °C 84 % 1012,8 hPa 0,0 mm 0,0 km/h (0 Bft) O-SO 106 ° 0 min 0,000 mm 0,0 UV-I 0 W/m² 7,3 °C 9,9 °C 0,0 km/h (0 Bft)
07.05.2018 22:59 9,8 °C 83 % 1012,8 hPa 0,0 mm 0,0 km/h (0 Bft) O-SO 106 ° 0 min 0,000 mm 0,0 UV-I 0 W/m² 7,1 °C 9,8 °C 0,0 km/h (0 Bft)
07.05.2018 23:00 9,7 °C 83 % 1012,8 hPa 0,0 mm 0,0 km/h (0 Bft) O-SO 106 ° 0 min 0,000 mm 0,0 UV-I 0 W/m² 7,0 °C 9,7 °C 0,0 km/h (0 Bft)
07.05.2018 23:01 9,7 °C 84 % 1012,8 hPa 0,0 mm 0,0 km/h (0 Bft) O-SO 106 ° 0 min 0,026 mm 0,0 UV-I 0 W/m² 7,1 °C 9,7 °C 0,0 km/h (0 Bft)
07.05.2018 23:02 9,7 °C 84 % 1012,8 hPa 0,0 mm 0,0 km/h (0 Bft) O-SO 106 ° 0 min 0,000 mm 0,0 UV-I 0 W/m² 7,1 °C 9,7 °C 0,0 km/h (0 Bft)
07.05.2018 23:03 9,7 °C 84 % 1012,8 hPa 0,0 mm 1,7 km/h (1 Bft) O-SO 106 ° 0 min 0,000 mm 0,0 UV-I 0 W/m² 7,1 °C 9,7 °C 3,2 km/h (1 Bft)
07.05.2018 23:04 9,7 °C 84 % 1012,8 hPa 0,0 mm 0,9 km/h (0 Bft) O-SO 106 ° 0 min 0,000 mm 0,0 UV-I 0 W/m² 7,1 °C 9,7 °C 3,2 km/h (1 Bft)
07.05.2018 23:05 9,7 °C 84 % 1012,8 hPa 0,0 mm 0,0 km/h (0 Bft) O-SO 106 ° 0 min 0,000 mm 0,0 UV-I 0 W/m² 7,1 °C 9,7 °C 0,0 km/h (0 Bft)
07.05.2018 23:06 9,8 °C 84 % 1012,8 hPa 0,0 mm 0,0 km/h (0 Bft) O-SO 106 ° 0 min 0,000 mm 0,0 UV-I 0 W/m² 7,2 °C 9,8 °C 0,0 km/h (0 Bft)
07.05.2018 23:07 9,8 °C 84 % 1012,8 hPa 0,0 mm 2,0 km/h (1 Bft) O-SO 107 ° 0 min 0,000 mm 0,0 UV-I 0 W/m² 7,2 °C 9,8 °C 4,8 km/h (1 Bft)
07.05.2018 23:08 9,9 °C 84 % 1012,8 hPa 0,0 mm 2,4 km/h (1 Bft) O-SO 109 ° 0 min 0,000 mm 0,0 UV-I 0 W/m² 7,3 °C 9,9 °C 4,8 km/h (1 Bft)
07.05.2018 23:09 10,0 °C 84 % 1012,8 hPa 0,0 mm 2,2 km/h (1 Bft) SO 128 ° 0 min 0,000 mm 0,0 UV-I 0 W/m² 7,4 °C 10,0 °C 4,8 km/h (1 Bft)
07.05.2018 23:10 10,1 °C 84 % 1012,8 hPa 0,0 mm 2,4 km/h (1 Bft) SO 133 ° 0 min 0,000 mm 0,0 UV-I 0 W/m² 7,5 °C 10,1 °C 4,8 km/h (1 Bft)
07.05.2018 23:11 10,2 °C 83 % 1012,8 hPa 0,0 mm 2,9 km/h (1 Bft) SO 133 ° 0 min 0,000 mm 0,0 UV-I 0 W/m² 7,4 °C 10,2 °C 4,8 km/h (1 Bft)
07.05.2018 23:12 10,3 °C 83 % 1012,8 hPa 0,0 mm 3,2 km/h (1 Bft) SO 133 ° 0 min 0,000 mm 0,0 UV-I 0 W/m² 7,5 °C 10,3 °C 4,8 km/h (1 Bft)
07.05.2018 23:13 10,4 °C 82 % 1012,8 hPa 0,0 mm 3,2 km/h (1 Bft) SO 133 ° 0 min 0,000 mm 0,0 UV-I 0 W/m² 7,5 °C 10,4 °C 4,8 km/h (1 Bft)
07.05.2018 23:14 10,6 °C 82 % 1012,8 hPa 0,0 mm 3,3 km/h (1 Bft) SO 145 ° 0 min 0,000 mm 0,0 UV-I 0 W/m² 7,7 °C 10,6 °C 4,8 km/h (1 Bft)
07.05.2018 23:15 10,7 °C 82 % 1012,7 hPa 0,0 mm 4,0 km/h (1 Bft) S-SO 153 ° 0 min 0,000 mm 0,0 UV-I 0 W/m² 7,8 °C 10,7 °C 4,8 km/h (1 Bft)
07.05.2018 23:16 10,7 °C 81 % 1012,7 hPa 0,0 mm 3,8 km/h (1 Bft) S-SO 160 ° 0 min 0,000 mm 0,0 UV-I 0 W/m² 7,6 °C 10,7 °C 6,4 km/h (2 Bft)
07.05.2018 23:17 10,8 °C 81 % 1012,7 hPa 0,0 mm 5,3 km/h (1 Bft) S-SO 164 ° 0 min 0,000 mm 0,0 UV-I 0 W/m² 7,7 °C 10,8 °C 6,4 km/h (2 Bft)
07.05.2018 23:18 10,7 °C 81 % 1012,7 hPa 0,0 mm 5,3 km/h (1 Bft) S-SO 167 ° 0 min 0,000 mm 0,0 UV-I 0 W/m² 7,6 °C 10,7 °C 8,0 km/h (2 Bft)
07.05.2018 23:19 10,6 °C 81 % 1012,7 hPa 0,0 mm 6,2 km/h (2 Bft) S-SO 168 ° 0 min 0,000 mm 0,0 UV-I 0 W/m² 7,5 °C 10,6 °C 8,0 km/h (2 Bft)
07.05.2018 23:20 10,4 °C 82 % 1012,7 hPa 0,0 mm 5,2 km/h (1 Bft) S-SO 168 ° 0 min 0,000 mm 0,0 UV-I 0 W/m² 7,5 °C 10,4 °C 8,0 km/h (2 Bft)
07.05.2018 23:21 10,4 °C 82 % 1012,7 hPa 0,0 mm 5,4 km/h (1 Bft) S 171 ° 0 min 0,000 mm 0,0 UV-I 0 W/m² 7,5 °C 10,4 °C 8,0 km/h (2 Bft)
07.05.2018 23:22 10,4 °C 82 % 1012,7 hPa 0,0 mm 4,3 km/h (1 Bft) S 171 ° 0 min 0,000 mm 0,0 UV-I 0 W/m² 7,5 °C 10,4 °C 6,4 km/h (2 Bft)
07.05.2018 23:23 10,4 °C 82 % 1012,7 hPa 0,0 mm 4,2 km/h (1 Bft) S 171 ° 0 min 0,000 mm 0,0 UV-I 0 W/m² 7,5 °C 10,4 °C 6,4 km/h (2 Bft)
07.05.2018 23:24 10,4 °C 82 % 1012,7 hPa 0,0 mm 1,9 km/h (1 Bft) S 171 ° 0 min 0,000 mm 0,0 UV-I 0 W/m² 7,5 °C 10,4 °C 3,2 km/h (1 Bft)
07.05.2018 23:25 10,4 °C 83 % 1012,7 hPa 0,0 mm 1,5 km/h (1 Bft) S 171 ° 0 min 0,000 mm 0,0 UV-I 0 W/m² 7,6 °C 10,4 °C 3,2 km/h (1 Bft)
07.05.2018 23:26 10,4 °C 82 % 1012,6 hPa 0,0 mm 0,5 km/h (0 Bft) S 171 ° 0 min 0,000 mm 0,0 UV-I 0 W/m² 7,5 °C 10,4 °C 1,6 km/h (1 Bft)
07.05.2018 23:27 10,4 °C 82 % 1012,7 hPa 0,0 mm 0,0 km/h (0 Bft) S 171 ° 0 min 0,000 mm 0,0 UV-I 0 W/m² 7,5 °C 10,4 °C 0,0 km/h (0 Bft)
07.05.2018 23:28 10,2 °C 82 % 1012,6 hPa 0,0 mm 0,0 km/h (0 Bft) S 171 ° 0 min 0,000 mm 0,0 UV-I 0 W/m² 7,3 °C 10,2 °C 0,0 km/h (0 Bft)
07.05.2018 23:29 10,1 °C 83 % 1012,6 hPa 0,0 mm 0,0 km/h (0 Bft) S 171 ° 0 min 0,000 mm 0,0 UV-I 0 W/m² 7,3 °C 10,1 °C 0,0 km/h (0 Bft)
07.05.2018 23:30 9,9 °C 83 % 1012,6 hPa 0,0 mm 0,0 km/h (0 Bft) S 171 ° 0 min 0,000 mm 0,0 UV-I 0 W/m² 7,2 °C 9,9 °C 0,0 km/h (0 Bft)
07.05.2018 23:31 9,8 °C 84 % 1012,6 hPa 0,0 mm 0,0 km/h (0 Bft) S 171 ° 0 min 0,000 mm 0,0 UV-I 0 W/m² 7,2 °C 9,8 °C 0,0 km/h (0 Bft)
07.05.2018 23:32 9,7 °C 85 % 1012,6 hPa 0,0 mm 0,0 km/h (0 Bft) S 171 ° 0 min 0,000 mm 0,0 UV-I 0 W/m² 7,3 °C 9,7 °C 0,0 km/h (0 Bft)
07.05.2018 23:33 9,7 °C 85 % 1012,6 hPa 0,0 mm 0,0 km/h (0 Bft) S 171 ° 0 min 0,000 mm 0,0 UV-I 0 W/m² 7,3 °C 9,7 °C 0,0 km/h (0 Bft)
07.05.2018 23:34 9,8 °C 85 % 1012,6 hPa 0,0 mm 0,0 km/h (0 Bft) S 171 ° 0 min 0,000 mm 0,0 UV-I 0 W/m² 7,4 °C 9,8 °C 0,0 km/h (0 Bft)
07.05.2018 23:35 9,8 °C 85 % 1012,6 hPa 0,0 mm 0,0 km/h (0 Bft) S 171 ° 0 min 0,000 mm 0,0 UV-I 0 W/m² 7,4 °C 9,8 °C 0,0 km/h (0 Bft)
07.05.2018 23:36 9,8 °C 85 % 1012,5 hPa 0,0 mm 0,0 km/h (0 Bft) S 171 ° 0 min 0,000 mm 0,0 UV-I 0 W/m² 7,4 °C 9,8 °C 0,0 km/h (0 Bft)
07.05.2018 23:37 9,8 °C 85 % 1012,5 hPa 0,0 mm 0,0 km/h (0 Bft) S 171 ° 0 min 0,000 mm 0,0 UV-I 0 W/m² 7,4 °C 9,8 °C 0,0 km/h (0 Bft)
07.05.2018 23:38 9,9 °C 85 % 1012,5 hPa 0,0 mm 0,0 km/h (0 Bft) S 171 ° 0 min 0,000 mm 0,0 UV-I 0 W/m² 7,5 °C 9,9 °C 0,0 km/h (0 Bft)
07.05.2018 23:39 10,0 °C 84 % 1012,5 hPa 0,0 mm 0,0 km/h (0 Bft) S 171 ° 0 min 0,000 mm 0,0 UV-I 0 W/m² 7,4 °C 10,0 °C 0,0 km/h (0 Bft)
07.05.2018 23:40 10,1 °C 84 % 1012,5 hPa 0,0 mm 0,0 km/h (0 Bft) S 171 ° 0 min 0,000 mm 0,0 UV-I 0 W/m² 7,5 °C 10,1 °C 0,0 km/h (0 Bft)
07.05.2018 23:41 10,1 °C 84 % 1012,5 hPa 0,0 mm 0,0 km/h (0 Bft) S 171 ° 0 min 0,000 mm 0,0 UV-I 0 W/m² 7,5 °C 10,1 °C 0,0 km/h (0 Bft)
07.05.2018 23:42 10,1 °C 84 % 1012,5 hPa 0,0 mm 0,0 km/h (0 Bft) S 171 ° 0 min 0,000 mm 0,0 UV-I 0 W/m² 7,5 °C 10,1 °C 0,0 km/h (0 Bft)
07.05.2018 23:43 9,9 °C 84 % 1012,5 hPa 0,0 mm 0,0 km/h (0 Bft) S 171 ° 0 min 0,000 mm 0,0 UV-I 0 W/m² 7,3 °C 9,9 °C 0,0 km/h (0 Bft)
07.05.2018 23:44 9,8 °C 84 % 1012,5 hPa 0,0 mm 0,0 km/h (0 Bft) S 171 ° 0 min 0,000 mm 0,0 UV-I 0 W/m² 7,2 °C 9,8 °C 0,0 km/h (0 Bft)
07.05.2018 23:45 9,8 °C 85 % 1012,5 hPa 0,0 mm 0,0 km/h (0 Bft) S 171 ° 0 min 0,000 mm 0,0 UV-I 0 W/m² 7,4 °C 9,8 °C 0,0 km/h (0 Bft)
07.05.2018 23:46 9,7 °C 85 % 1012,5 hPa 0,0 mm 0,0 km/h (0 Bft) S 171 ° 0 min 0,000 mm 0,0 UV-I 0 W/m² 7,3 °C 9,7 °C 0,0 km/h (0 Bft)
07.05.2018 23:47 9,8 °C 85 % 1012,5 hPa 0,0 mm 0,0 km/h (0 Bft) S 171 ° 0 min 0,000 mm 0,0 UV-I 0 W/m² 7,4 °C 9,8 °C 0,0 km/h (0 Bft)
07.05.2018 23:48 9,7 °C 85 % 1012,5 hPa 0,0 mm 0,0 km/h (0 Bft) S 171 ° 0 min 0,000 mm 0,0 UV-I 0 W/m² 7,3 °C 9,7 °C 0,0 km/h (0 Bft)
07.05.2018 23:49 9,7 °C 85 % 1012,5 hPa 0,0 mm 0,0 km/h (0 Bft) S 171 ° 0 min 0,000 mm 0,0 UV-I 0 W/m² 7,3 °C 9,7 °C 0,0 km/h (0 Bft)
07.05.2018 23:50 9,7 °C 85 % 1012,5 hPa 0,0 mm 0,0 km/h (0 Bft) S 171 ° 0 min 0,000 mm 0,0 UV-I 0 W/m² 7,3 °C 9,7 °C 0,0 km/h (0 Bft)
07.05.2018 23:51 9,7 °C 85 % 1012,5 hPa 0,0 mm 0,0 km/h (0 Bft) S 171 ° 0 min 0,000 mm 0,0 UV-I 0 W/m² 7,3 °C 9,7 °C 0,0 km/h (0 Bft)
07.05.2018 23:52 9,7 °C 85 % 1012,5 hPa 0,0 mm 0,0 km/h (0 Bft) S 171 ° 0 min 0,000 mm 0,0 UV-I 0 W/m² 7,3 °C 9,7 °C 0,0 km/h (0 Bft)
07.05.2018 23:53 9,7 °C 85 % 1012,4 hPa 0,0 mm 0,0 km/h (0 Bft) S 171 ° 0 min 0,000 mm 0,0 UV-I 0 W/m² 7,3 °C 9,7 °C 0,0 km/h (0 Bft)
07.05.2018 23:54 9,6 °C 85 % 1012,4 hPa 0,0 mm 0,0 km/h (0 Bft) S 171 ° 0 min 0,000 mm 0,0 UV-I 0 W/m² 7,2 °C 9,6 °C 0,0 km/h (0 Bft)
07.05.2018 23:55 9,6 °C 85 % 1012,5 hPa 0,0 mm 0,0 km/h (0 Bft) S 171 ° 0 min 0,000 mm 0,0 UV-I 0 W/m² 7,2 °C 9,6 °C 0,0 km/h (0 Bft)
07.05.2018 23:56 9,6 °C 85 % 1012,5 hPa 0,0 mm 0,0 km/h (0 Bft) S 171 ° 0 min 0,000 mm 0,0 UV-I 0 W/m² 7,2 °C 9,6 °C 0,0 km/h (0 Bft)
07.05.2018 23:57 9,6 °C 85 % 1012,4 hPa 0,0 mm 0,0 km/h (0 Bft) S 171 ° 0 min 0,000 mm 0,0 UV-I 0 W/m² 7,2 °C 9,6 °C 0,0 km/h (0 Bft)
07.05.2018 23:58 9,6 °C 85 % 1012,5 hPa 0,0 mm 0,0 km/h (0 Bft) S 171 ° 0 min 0,000 mm 0,0 UV-I 0 W/m² 7,2 °C 9,6 °C 0,0 km/h (0 Bft)
07.05.2018 23:59 9,6 °C 86 % 1012,5 hPa 0,0 mm 0,0 km/h (0 Bft) S 171 ° 0 min 0,000 mm 0,0 UV-I 0 W/m² 7,4 °C 9,6 °C 0,0 km/h (0 Bft)
_ Min-Zeit 06:30 15:23 18:33 - 23:59 - - - - - - 06:03 05:21 23:59
Minimum _ 4,2 °C 49 % 1012,1 hPa - 0,0 km/h (0 Bft) - - - - - - 2,8 °C 3,5 °C 0,0 km/h (0 Bft)
_ Max-Zeit 15:42 07:24 00:33 23:59 15:28 - - 16:01 14:01 13:30 13:29 13:24 15:42 16:30
Maximum _ 20,9 °C 92 % 1017,1 hPa 0,0 mm 15,7 km/h
N-NO (3 Bft)
- - 1 min 0,533 mm 6,1 UV-I 861 W/m² 11,9 °C 20,9 °C 22,5 km/h
O (4 Bft)
Durchschnitt _ 12,5 °C 73 % 1014,5 hPa #0,0 mm 3,1 km/h (1 Bft) O-NO - #7:53 h #3,785 mm 3,5 UV-I 253 W/m² 7,4 °C 12,5 °C 5,5 km/h (1 Bft)